GFSMW_con_3kmhel_000.txt.gz
Helicity
160 127 89 84 75 145 164 111 211 251 317 379 360 338 329 287 277 294 279 286 289 282 317 343 325 324 320 292 297 305 299 282 311 288 272 230 238 295 323 320 287 296 313
108 93 73 71 83 70 64 128 145 146 231 335 341 322 291 241 250 256 260 275 282 280 310 340 355 344 329 308 323 333 330 294 321 304 305 258 240 283 275 268 286 270 280
105 100 86 79 83 95 75 60 95 188 128 205 278 210 201 217 203 202 205 182 181 187 209 224 275 291 301 285 313 338 332 317 305 330 301 312 303 241 215 206 218 238 336
79 75 77 81 84 70 38 37 45 73 171 165 156 135 158 166 157 153 166 161 175 206 215 228 240 274 312 289 300 343 364 320 298 330 315 304 333 328 282 295 308 312 312
89 89 72 52 29 33 31 38 32 58 53 65 87 90 90 129 124 127 129 131 158 192 224 237 222 213 256 264 290 290 311 319 313 320 346 320 309 297 342 318 341 409 443
111 106 63 37 29 37 45 53 62 71 73 76 75 78 70 67 76 82 95 104 111 142 198 224 229 211 208 223 230 248 276 336 351 351 366 403 418 383 380 368 323 360 369
117 71 40 31 48 78 92 84 96 112 112 104 101 95 89 80 75 74 80 83 96 101 102 157 210 238 221 204 199 205 236 292 352 371 412 403 427 406 405 396 367 345 373
104 62 26 -2 2 32 80 104 106 105 115 117 124 121 120 108 102 97 94 79 72 74 88 91 110 177 194 164 167 188 206 234 287 304 360 400 408 394 383 400 361 340 321
116 73 24 9 -15 -2 7 36 71 89 106 114 118 130 135 140 130 124 109 103 87 85 83 75 86 90 97 119 146 184 174 208 249 274 296 352 346 355 408 398 384 361 295
133 87 45 7 -42 -31 25 69 89 93 86 88 83 75 77 85 89 84 83 79 82 88 97 103 105 98 91 97 105 122 133 149 197 255 264 292 307 306 363 403 357 350 349
110 58 24 5 -33 40 102 93 84 75 77 63 59 64 60 65 63 65 68 71 71 69 71 72 80 91 110 124 132 118 110 126 141 169 201 217 226 276 303 347 325 330 334
131 82 13 10 108 95 114 136 119 99 73 63 52 42 40 37 39 36 43 50 51 50 52 65 83 88 91 90 101 120 131 133 143 134 142 145 178 201 259 326 345 347 328
124 125 137 176 182 192 178 134 112 97 89 75 61 59 50 42 38 35 29 26 23 32 35 39 50 61 66 68 73 82 109 113 97 107 118 114 118 145 190 274 340 406 376
168 147 240 262 207 202 185 136 118 112 95 86 80 78 72 63 62 55 43 28 20 20 24 40 51 58 67 78 89 99 89 71 86 106 126 126 118 111 119 155 217 301 311
274 327 293 222 200 212 180 155 133 118 109 90 78 91 89 84 72 59 49 46 45 44 36 30 33 40 51 65 72 50 67 80 83 74 85 122 128 112 102 130 126 168 272
316 283 255 252 247 214 172 138 130 110 94 86 84 93 103 92 66 52 38 34 40 41 43 45 45 46 55 62 67 105 88 39 28 40 71 96 96 80 66 77 86 117 166
411 336 322 255 206 177 162 138 120 107 98 88 92 116 93 81 67 55 39 31 28 27 22 22 16 28 36 48 85 89 37 37 32 46 57 71 99 105 86 43 63 87 135
558 442 270 223 200 172 157 132 105 97 97 87 96 83 71 55 36 21 16 15 14 17 26 30 46 48 55 40 72 80 63 53 48 44 40 55 67 73 79 87 59 89 86
445 351 262 191 160 158 123 100 91 75 66 77 67 43 23 13 3 3 11 25 26 40 39 40 40 50 69 88 95 94 66 57 60 53 57 59 57 38 67 86 97 58 106
399 316 215 160 147 134 128 103 59 51 58 58 40 18 8 4 13 19 33 39 50 67 69 85 68 54 86 82 90 87 60 62 51 58 41 39 52 56 51 71 50 7 127
350 264 163 119 102 118 107 87 68 49 52 42 22 16 13 25 22 31 34 42 52 63 81 88 103 113 84 69 78 98 82 49 61 61 44 38 61 62 71 47 -25 10 99
220 170 146 147 131 115 115 95 81 63 50 38 35 31 21 15 11 -2 22 34 50 59 78 100 127 104 85 62 74 85 79 87 57 53 61 54 66 80 69 42 13 16 3
214 194 187 168 147 129 109 94 79 62 51 55 45 31 18 16 20 40 52 57 50 60 52 81 92 84 61 66 68 55 66 61 43 49 50 56 63 67 72 54 36 16 182
203 185 161 144 120 101 93 76 67 69 73 70 52 36 34 41 79 92 86 100 79 66 76 74 68 67 77 84 74 50 51 40 16 28 50 7 -13 -35 7 38 82 146 286
181 148 142 126 110 98 88 73 77 84 87 80 69 68 84 93 103 114 111 88 82 88 83 85 81 71 72 85 74 41 18 16 15 20 -18 -65 -68 -85 -47 -13 80 149 272
154 131 118 105 104 101 96 90 99 103 102 98 101 114 123 132 137 123 114 77 60 43 36 36 44 64 24 12 28 13 43 65 47 -18 -46 -67 -76 -64 -63 -61 -13 76 196

GFSMW_con_3kmhel_003.txt.gz
Helicity
99 97 107 94 92 144 188 235 214 184 380 447 369 302 284 287 270 269 247 247 248 275 301 290 297 331 324 314 336 307 289 262 337 273 230 205 206 229 264 271 294 304 342
146 121 105 99 106 108 119 123 168 215 194 278 385 380 338 238 244 235 242 246 251 275 295 286 302 344 334 314 343 348 305 291 356 322 317 224 167 230 240 249 269 271 307
85 79 94 102 119 156 147 113 82 115 163 161 212 278 291 216 159 173 185 175 193 216 245 237 270 280 343 315 316 323 309 287 288 341 339 312 275 183 151 148 179 196 233
70 76 95 113 112 103 74 67 60 79 107 123 154 146 120 113 94 100 115 110 144 176 194 214 244 260 293 273 286 305 305 297 275 335 369 326 338 287 207 169 195 203 230
104 109 107 103 77 69 56 46 67 102 99 91 73 69 81 70 59 78 83 82 83 96 122 180 244 267 257 257 240 207 225 261 277 291 316 346 304 282 333 274 154 228 254
139 132 109 88 80 69 52 52 82 123 149 156 166 160 154 136 126 123 113 107 96 93 103 114 172 209 222 243 237 208 162 221 232 257 266 308 345 284 293 320 276 250 196
154 144 117 92 79 84 62 43 81 121 157 186 209 215 215 210 199 190 179 189 181 166 175 145 114 96 123 163 195 182 171 173 202 206 256 280 312 284 280 293 282 234 225
137 112 84 72 69 54 53 46 60 98 155 163 166 157 152 142 135 136 124 134 140 152 157 187 194 180 139 112 115 155 181 161 172 163 194 235 253 292 291 268 230 220 225
127 106 78 50 20 14 35 52 72 111 147 140 129 125 112 109 110 105 87 87 86 97 108 106 118 135 150 163 168 156 150 139 141 126 134 158 187 218 234 270 279 270 314
97 97 71 31 10 16 54 139 154 148 122 105 92 88 82 70 64 59 74 73 82 89 101 109 112 116 122 124 140 148 148 158 155 145 147 148 158 172 204 247 295 332 355
124 79 51 35 43 107 163 158 153 122 120 110 96 98 88 65 61 61 70 78 74 69 68 70 80 94 108 119 133 134 134 155 182 186 182 179 166 170 171 173 204 263 319
109 96 118 196 255 237 209 177 142 130 109 97 99 95 82 58 62 70 70 61 40 26 23 31 44 56 69 82 96 107 125 169 192 195 194 188 186 182 166 172 176 195 242
171 236 291 283 273 248 233 175 142 132 122 120 107 107 104 89 84 81 77 55 42 34 30 29 28 30 42 55 66 94 107 84 79 93 108 118 119 123 133 144 152 158 150
228 277 299 320 304 261 203 161 140 117 127 116 98 108 108 87 83 68 54 54 62 68 69 60 54 61 53 47 68 72 68 88 99 100 102 89 93 107 116 130 132 140 142
290 281 330 329 282 235 201 161 142 121 106 103 103 103 99 89 69 70 72 70 70 69 63 58 64 56 66 69 68 88 111 100 65 33 32 57 76 85 91 129 124 143 162
290 339 368 316 249 209 168 141 111 98 95 106 114 112 100 81 76 73 71 65 60 55 53 55 55 61 73 67 95 177 129 73 47 13 28 44 35 45 84 92 80 107 136
321 351 353 288 245 218 178 155 124 90 123 135 126 103 79 69 63 56 51 46 42 43 55 64 58 73 73 46 82 127 121 85 55 54 57 56 54 67 74 71 86 85 71
317 369 342 303 269 217 161 111 120 172 166 127 104 81 72 62 50 39 35 34 30 31 37 42 57 70 85 67 146 139 122 71 77 84 73 75 85 87 80 79 73 50 62
360 375 264 187 165 153 118 196 213 181 156 126 106 81 63 60 49 41 29 25 23 18 11 20 32 38 105 185 208 169 110 106 113 80 75 80 74 76 94 69 71 63 47
386 341 218 179 188 226 236 209 171 144 120 109 86 66 59 49 47 41 39 41 42 26 18 20 56 58 116 147 151 93 72 111 126 103 61 64 60 67 86 78 87 89 62
273 224 216 222 257 200 178 156 121 118 99 85 74 70 72 73 66 72 68 58 32 28 44 47 57 77 98 88 71 94 110 123 131 91 47 43 68 74 103 97 121 107 85
270 225 241 228 188 177 158 132 125 103 88 80 77 78 90 100 90 72 71 50 46 47 55 63 81 104 92 63 55 61 95 128 119 82 39 48 72 75 91 88 62 66 73
237 258 241 207 182 161 119 118 107 88 81 83 81 96 108 103 75 79 69 67 72 83 86 95 110 98 81 72 57 50 59 78 53 43 50 64 68 39 55 58 76 46 5
277 258 215 175 174 132 102 89 82 79 79 82 93 108 109 81 93 85 72 88 88 97 103 105 98 89 82 75 81 59 33 -19 -20 28 44 43 45 41 34 15 1 6 -7
254 223 171 149 133 112 90 78 70 76 86 99 113 121 119 110 112 99 94 93 104 96 101 94 89 86 80 55 25 39 -3 2 -5 24 -17 -13 5 26 25 11 -16 3 -15
184 154 134 123 119 103 87 83 95 105 120 127 131 129 123 120 111 96 103 81 64 50 42 34 45 66 33 14 23 34 35 41 63 -1 -32 -23 14 24 32 8 3 13 -39

GFSMW_con_3kmhel_006.txt.gz
Helicity
82 86 92 96 89 108 120 114 130 115 234 277 242 220 227 240 231 227 203 212 224 219 227 219 221 280 273 243 249 260 232 236 279 237 172 175 183 190 224 221 227 232 237
134 145 138 137 141 116 110 101 109 119 64 159 215 222 185 185 197 184 153 145 163 188 195 210 218 247 267 245 243 272 253 252 279 275 230 206 123 169 179 195 188 189 213
124 139 143 137 138 163 135 109 76 80 74 44 95 137 157 139 114 94 82 82 96 123 153 171 215 227 285 258 252 279 299 241 203 266 264 246 251 200 126 105 85 102 157
106 98 114 136 133 127 106 79 57 62 82 106 115 133 123 110 103 83 79 70 64 74 94 123 156 182 232 261 258 255 281 246 242 205 275 257 274 266 195 149 120 127 155
104 101 98 95 100 96 86 80 90 126 127 144 154 160 176 150 126 136 156 166 167 159 158 155 144 156 191 205 203 210 223 242 254 257 236 265 271 276 311 258 158 127 182
102 94 99 105 94 84 87 80 81 118 174 210 237 242 239 221 211 199 188 173 165 159 175 188 172 158 152 156 167 185 197 225 205 195 203 236 279 260 260 282 257 219 133
102 110 98 78 71 77 65 60 95 145 178 190 198 171 154 147 148 142 127 126 121 122 151 149 160 155 163 164 163 159 151 145 142 132 141 156 204 212 216 241 240 248 230
121 88 76 64 70 70 91 115 130 159 161 154 136 124 122 101 97 93 79 85 91 97 106 123 129 146 158 163 155 148 154 152 152 146 137 121 124 144 176 188 202 200 192
74 78 76 98 100 144 128 107 102 117 135 136 133 140 117 109 91 84 71 74 85 99 104 97 101 113 120 130 145 145 159 161 150 147 140 156 161 178 166 164 171 182 199
105 100 81 100 170 179 165 170 134 103 110 123 116 104 95 94 91 80 84 85 87 84 75 68 67 77 90 100 122 130 140 154 161 184 201 196 186 180 174 177 175 168 176
97 88 136 239 258 228 206 172 130 125 139 125 109 103 87 69 54 55 57 64 61 57 44 37 39 43 38 48 73 100 119 154 168 156 149 161 162 160 149 140 138 137 133
120 181 247 273 277 247 216 183 158 149 132 113 106 95 86 90 94 104 110 111 103 88 87 80 68 59 60 62 64 78 107 99 113 100 120 122 115 118 94 68 70 81 91
265 291 316 302 263 248 215 181 164 141 125 113 111 108 108 112 114 110 111 108 106 97 86 83 87 93 83 73 73 80 63 74 83 101 99 97 83 61 59 81 98 84 84
239 282 299 267 270 221 216 197 163 139 125 129 124 102 103 125 127 120 114 103 89 78 73 69 74 77 69 85 93 104 114 98 100 102 89 58 34 35 50 72 83 91 104
220 269 284 263 200 193 236 178 156 154 136 114 101 98 117 128 118 115 100 88 80 75 67 68 68 74 64 75 87 104 119 132 121 108 94 48 36 28 40 74 70 98 86
233 281 267 220 175 193 210 180 156 126 98 87 97 118 136 133 115 101 100 96 90 82 74 72 71 66 77 67 81 136 160 161 157 141 91 54 27 23 104 104 102 111 112
244 259 262 229 220 198 167 153 137 108 159 147 158 158 144 127 109 93 86 78 65 55 55 54 53 63 60 46 100 155 180 221 187 172 127 102 79 69 70 86 79 80 77
302 296 266 265 224 187 152 89 170 238 196 153 148 142 128 119 86 74 67 64 61 66 70 68 68 64 61 47 136 163 112 111 123 113 68 96 112 51 93 89 67 64 67
259 285 269 222 186 119 82 189 270 224 197 182 152 143 121 96 85 83 80 87 86 88 82 70 67 67 82 99 101 86 82 99 120 108 125 144 136 67 97 69 53 76 96
307 279 229 217 139 84 216 272 226 205 180 155 132 118 94 87 85 79 85 94 104 102 98 96 82 59 97 92 100 120 134 143 138 112 105 114 120 102 82 69 69 75 54
279 281 190 193 217 207 226 236 197 174 145 123 109 98 88 81 66 81 97 102 103 89 97 98 89 80 94 102 87 98 124 126 116 84 78 63 21 47 61 71 80 46 48
333 298 253 234 229 259 233 188 164 138 129 116 101 87 80 80 80 92 112 108 105 102 101 80 75 95 102 84 78 78 88 102 81 82 56 47 38 56 55 51 65 78 47
334 303 260 229 246 228 186 160 146 130 116 102 87 83 91 102 91 110 116 116 97 98 89 87 98 113 117 115 66 56 70 67 63 51 38 30 41 38 33 52 82 66 32
261 210 229 217 196 168 141 131 124 117 109 105 101 104 104 90 118 117 108 111 102 95 96 108 122 121 109 92 68 54 28 28 32 16 3 18 23 23 29 29 39 30 27
187 204 177 160 149 138 130 125 123 117 114 114 109 112 127 128 124 113 116 102 103 93 124 130 127 112 98 74 46 44 47 42 15 -12 7 4 -21 -17 1 30 19 9 36
202 180 155 140 124 120 111 122 122 117 121 125 139 152 149 132 126 124 124 79 75 86 84 63 76 88 55 48 40 43 57 39 10 -24 3 -22 -27 -19 -2 11 30 22 22

GFSMW_con_3kmhel_009.txt.gz
Helicity
141 143 129 130 120 124 106 93 102 77 61 130 157 155 164 148 129 133 135 136 133 130 158 173 185 211 222 210 216 254 220 220 231 205 172 166 164 184 197 184 182 182 212
143 151 143 144 146 127 126 120 105 98 45 11 8 32 26 50 49 42 43 70 84 90 107 135 146 161 189 185 194 226 217 247 256 251 214 180 127 147 146 157 158 147 164
120 132 134 138 124 136 122 107 96 81 66 28 21 45 63 84 102 96 102 104 96 96 97 110 128 134 163 157 150 195 226 211 194 225 245 231 196 181 169 178 186 179 196
96 103 116 123 120 96 67 60 76 93 101 101 110 129 117 113 99 84 92 145 157 156 158 143 134 122 116 124 146 149 163 194 210 191 207 209 211 223 181 188 188 186 207
74 93 95 87 70 61 61 68 91 110 95 122 124 131 146 135 125 140 156 158 154 137 131 140 132 131 125 133 132 136 135 142 151 162 173 187 231 237 254 195 162 157 214
86 87 83 69 72 81 98 84 80 103 125 138 150 141 142 138 140 139 130 117 108 106 123 136 133 129 141 152 152 162 168 164 161 160 157 162 172 181 183 205 190 180 205
79 65 66 75 101 105 84 77 97 126 118 119 112 107 107 106 95 80 61 66 62 63 82 78 88 93 104 111 115 135 156 170 181 183 174 165 155 141 133 132 137 144 153
66 76 79 100 108 98 106 114 105 111 109 91 94 101 105 80 75 77 67 81 83 80 82 88 84 91 98 105 108 107 126 129 157 169 181 184 177 178 182 189 184 141 111
85 94 99 137 120 139 141 125 112 105 106 102 92 96 91 94 85 87 81 77 70 77 84 76 68 64 59 64 75 83 94 116 132 159 171 181 168 167 171 183 194 189 173
118 114 146 151 170 175 168 158 123 106 94 96 100 97 105 94 78 64 75 81 83 82 75 73 70 66 59 61 65 58 68 91 109 118 135 142 142 132 100 81 89 105 130
107 140 186 225 220 206 187 162 139 120 118 120 107 103 94 90 76 66 64 86 91 94 88 86 78 73 75 71 59 73 70 95 89 78 93 110 116 116 108 98 83 70 58
123 183 238 251 244 224 205 171 146 136 132 118 106 93 75 80 96 101 101 109 98 93 84 75 67 67 65 72 75 86 86 94 74 68 88 95 99 107 87 66 60 62 73
208 298 302 273 238 219 202 162 143 136 125 112 92 88 103 101 105 107 113 109 104 91 79 70 69 64 55 44 57 69 84 81 79 81 100 103 111 89 71 56 35 30 48
242 290 298 246 235 230 196 178 179 173 158 123 117 134 128 139 131 110 114 111 95 79 75 64 54 48 43 45 47 69 86 82 74 100 122 126 109 101 82 61 68 40 49
258 246 235 229 243 201 193 216 225 198 123 115 113 106 137 118 99 104 105 95 87 84 78 74 72 69 70 68 87 94 98 92 93 99 96 88 77 69 55 108 77 60 53
194 204 221 240 204 237 241 228 186 146 130 117 99 168 136 113 123 131 129 115 98 84 75 72 70 71 78 62 93 134 143 118 82 65 49 51 40 29 59 96 89 80 97
175 222 235 219 244 254 236 202 182 126 113 84 153 152 137 138 138 127 112 98 79 60 65 74 84 92 83 60 103 134 137 101 77 77 69 61 67 85 86 79 75 82 76
141 202 208 255 286 248 255 191 118 111 90 135 162 142 147 142 129 113 96 86 78 82 86 82 82 82 79 78 118 132 123 123 120 119 117 124 110 107 115 92 81 56 27
162 197 258 287 287 283 208 91 69 122 164 163 141 138 145 138 127 119 105 93 95 89 81 81 89 87 81 71 97 130 128 118 121 117 114 87 72 50 64 59 62 48 57
224 250 266 275 247 162 102 67 111 185 175 140 130 131 136 133 124 113 103 94 95 95 105 108 84 62 77 46 72 102 121 119 117 121 63 41 46 36 34 47 62 91 71
225 258 255 252 208 152 124 156 191 187 140 132 126 126 119 125 113 113 102 104 108 105 105 103 92 78 75 89 83 99 117 117 114 81 68 59 23 21 29 20 33 41 37
251 259 246 229 213 163 157 196 194 143 132 125 123 121 120 113 98 104 123 124 125 122 118 101 101 101 109 86 89 76 75 84 110 91 78 49 15 13 9 24 30 38 35
232 239 237 206 159 180 200 188 151 139 121 120 119 122 115 109 108 147 144 139 118 121 111 112 116 130 129 127 65 55 59 61 85 110 48 11 -8 3 9 3 29 33 32
211 206 191 195 212 188 176 141 120 119 122 122 119 114 124 115 152 162 143 144 143 132 129 126 146 168 153 128 121 125 107 87 109 100 28 -21 -20 21 -7 -14 2 8 3
214 213 217 201 174 146 127 133 136 131 125 124 128 134 151 161 163 157 155 145 144 126 132 150 159 159 143 124 74 89 101 106 121 35 11 -50 10 11 -5 -16 -11 14 13
214 208 192 172 148 133 128 139 129 125 136 145 150 158 160 164 161 166 167 111 86 65 59 75 99 122 77 51 63 70 53 75 105 77 13 -1 22 -38 -47 -23 12 41 22

GFSMW_con_3kmhel_012.txt.gz
Helicity
132 137 154 146 121 112 95 114 124 111 49 48 48 36 16 20 19 18 20 33 52 66 83 96 86 88 103 98 99 108 123 125 154 152 137 130 142 161 174 182 182 172 191
152 174 152 149 131 109 119 130 120 98 44 5 7 19 33 60 73 95 124 125 112 112 102 92 89 90 89 91 105 126 122 126 119 161 136 111 94 121 115 160 187 174 178
109 108 129 127 125 144 118 91 74 77 72 50 26 50 81 123 145 152 147 143 114 115 108 99 85 84 74 70 80 88 82 95 115 123 156 162 158 136 139 178 188 171 177
70 86 96 121 107 74 52 56 67 61 60 50 62 84 69 66 47 43 47 73 82 84 92 91 92 83 80 99 95 98 99 114 116 123 127 148 164 174 132 132 185 184 206
61 69 93 87 68 52 50 46 60 77 67 86 67 49 59 29 37 60 77 81 80 73 71 88 81 90 90 103 109 123 129 120 138 145 156 166 169 174 201 168 144 167 193
65 87 92 74 72 63 69 53 64 77 93 98 92 80 82 75 77 79 64 51 39 35 50 63 59 58 68 82 85 91 101 117 130 143 159 168 171 163 172 173 155 137 117
61 77 78 84 80 78 62 63 71 85 72 79 92 87 74 75 74 67 62 60 45 29 40 36 42 39 49 51 51 58 68 78 98 116 129 142 162 170 173 177 163 149 133
58 66 84 86 80 82 87 92 94 98 90 80 75 74 84 61 63 67 53 41 39 35 55 66 68 65 63 59 60 58 63 67 94 110 133 134 145 158 171 174 177 132 93
68 87 103 95 95 126 128 114 102 97 86 70 63 75 75 77 65 55 40 51 63 75 84 82 77 71 67 68 65 50 56 70 79 89 100 118 115 134 156 171 189 237 206
92 111 118 124 152 162 154 155 132 111 94 91 89 81 78 76 72 71 84 81 82 96 91 85 76 70 65 53 57 44 59 61 72 75 78 80 95 109 133 160 177 174 182
85 119 147 170 191 197 196 172 152 134 126 104 94 106 111 87 62 68 78 110 115 95 72 66 60 58 54 54 54 54 47 67 66 56 62 70 85 97 119 130 131 129 127
98 154 179 217 227 233 214 192 168 151 129 128 149 115 79 74 82 85 85 81 65 71 70 69 61 56 48 41 31 28 45 37 44 37 37 44 52 73 71 79 74 75 64
182 206 237 260 257 223 233 206 187 170 164 153 126 107 92 80 67 85 119 105 92 89 86 69 52 42 37 38 28 51 51 54 59 53 59 62 46 50 42 50 57 30 76
215 219 276 275 248 244 249 224 207 198 178 158 137 102 71 50 77 102 97 81 81 71 69 68 61 58 59 57 80 104 112 113 104 102 71 47 44 41 49 25 34 48 44
195 239 261 263 254 264 255 248 255 238 177 143 111 73 86 105 104 86 80 80 81 90 85 80 78 69 66 76 115 133 139 138 138 106 74 58 47 51 70 79 60 66 69
151 205 258 250 259 265 267 265 235 183 112 70 54 91 127 109 83 78 91 97 98 86 75 73 64 76 95 105 135 152 149 143 126 107 78 70 58 54 86 74 88 88 99
135 195 221 236 256 263 252 243 180 88 33 47 26 92 111 92 88 95 100 96 86 77 83 90 107 119 128 99 113 113 128 124 111 104 105 104 106 85 43 19 29 40 47
120 186 233 268 258 247 232 163 106 78 76 -1 62 94 109 109 102 97 90 91 91 107 117 121 125 134 127 78 83 86 112 108 104 110 111 123 91 53 48 40 37 22 24
117 192 222 237 250 219 182 166 139 112 80 94 106 119 113 105 98 102 108 114 120 124 126 123 123 119 118 64 71 91 110 122 122 112 118 92 85 54 38 50 35 33 39
172 213 244 241 227 206 171 152 144 124 109 120 118 111 103 105 121 118 111 130 132 126 137 140 116 92 115 58 69 94 133 130 127 133 100 57 81 33 36 36 49 29 3
158 198 219 216 193 178 161 158 119 120 123 111 106 111 121 122 111 127 134 129 131 131 144 147 144 122 98 93 60 72 104 110 124 121 127 145 63 46 32 18 74 37 -33
165 196 217 205 194 183 170 138 142 125 111 112 115 118 122 116 118 125 127 137 146 149 151 160 154 133 106 70 65 48 44 53 102 109 147 165 139 62 19 61 -23 -18 -13
181 202 217 210 175 165 169 158 135 124 118 120 126 128 117 122 113 123 129 150 148 170 182 169 161 156 146 134 58 39 37 50 90 114 115 91 72 25 53 34 2 -5 52
171 198 195 185 184 181 154 140 132 129 134 127 126 127 127 99 128 134 149 174 179 187 158 153 166 164 153 135 126 118 106 93 112 114 140 107 58 41 51 76 97 108 -24
182 209 204 187 164 154 162 153 142 141 139 135 128 117 116 119 128 143 163 167 175 144 145 155 155 147 142 130 76 89 111 114 102 98 128 117 82 82 101 111 105 26 39
187 185 179 176 167 156 144 150 149 142 131 122 109 106 116 134 137 155 166 112 75 61 57 49 88 124 84 55 60 68 54 76 61 91 125 125 91 105 112 4 52 74 88

GFSMW_con_3kmhel_018.txt.gz
Helicity
108 122 135 130 144 186 205 157 120 84 55 64 93 108 117 131 146 152 166 164 152 146 139 117 115 104 91 89 80 73 68 62 61 63 60 57 -35 6 27 94 73 56 59
131 155 167 174 200 206 178 151 121 99 75 63 85 102 125 156 156 153 162 154 145 133 110 103 90 84 67 68 63 58 51 54 66 54 58 38 56 70 231 133 71 70 93
137 150 171 197 184 176 136 113 93 76 61 49 46 60 84 105 118 119 107 112 108 102 86 73 58 56 48 52 53 62 62 68 75 104 107 84 116 102 71 106 52 101 155
162 162 177 189 165 139 107 94 83 75 70 61 71 97 99 107 100 93 83 74 84 85 80 68 59 49 39 58 60 77 91 111 122 113 107 119 122 112 76 107 133 61 169
147 159 163 152 129 101 89 77 81 90 88 107 115 109 109 84 73 69 80 81 76 78 74 48 24 28 44 67 72 83 84 72 84 83 88 96 98 99 144 135 143 118 117
122 140 138 109 111 94 92 83 86 89 105 125 134 119 98 88 78 82 74 65 55 44 50 32 31 61 93 88 78 78 83 87 89 83 81 89 101 101 104 125 117 93 67
95 102 102 107 110 110 107 99 95 104 115 136 126 105 93 92 93 78 79 75 58 50 61 79 101 114 100 88 79 84 80 83 91 77 72 76 65 67 77 84 112 115 97
70 80 95 111 114 123 120 110 118 125 142 147 132 115 110 94 87 97 81 57 55 76 101 105 103 97 88 89 89 75 74 62 54 55 53 67 68 82 90 111 136 157 147
71 90 110 118 127 139 149 144 146 158 179 164 137 133 122 116 105 98 74 64 90 92 99 98 100 106 104 93 80 73 60 66 75 72 83 100 107 125 138 174 202 220 252
95 104 117 131 146 168 175 158 164 206 210 178 157 136 131 123 111 100 103 106 110 112 114 115 108 102 94 81 69 67 75 84 96 100 109 124 135 164 177 185 181 191 233
105 110 123 144 169 180 176 173 185 217 210 189 164 148 138 124 112 116 124 123 131 126 111 106 102 88 74 65 70 82 86 99 104 112 128 127 132 165 168 170 167 174 165
113 120 148 172 180 186 184 189 207 224 214 200 183 169 128 99 100 110 133 139 133 115 107 92 77 65 65 75 82 86 99 101 106 115 128 135 168 156 157 164 159 161 147
166 169 171 175 194 200 200 211 240 238 224 207 181 149 120 98 94 100 134 132 116 93 83 76 71 67 72 71 69 91 97 105 122 137 148 150 150 150 158 158 163 163 170
155 163 178 189 206 205 221 256 268 254 230 194 167 136 115 87 51 82 115 98 87 82 84 75 70 64 62 64 91 98 108 128 147 148 152 151 147 156 151 149 144 137 129
148 153 184 198 199 232 262 280 280 250 201 167 139 125 99 87 63 105 100 94 91 79 72 67 55 54 73 86 115 118 131 135 148 148 143 136 127 93 96 140 111 111 115
143 177 190 183 215 237 264 277 268 221 168 157 143 115 94 80 108 104 100 84 75 71 68 74 64 65 92 101 97 110 125 131 138 149 131 116 95 98 81 60 56 54 90
164 165 165 180 213 245 275 272 231 190 170 156 116 95 94 118 104 92 85 94 90 76 82 71 67 79 89 87 86 90 124 137 153 136 119 115 114 96 98 71 50 53 56
170 159 159 198 241 277 269 254 220 196 157 101 95 104 111 109 101 101 99 100 95 84 80 75 79 82 90 85 89 107 118 146 138 117 110 107 95 94 87 84 85 103 96
152 124 150 209 245 244 244 233 215 189 107 121 127 114 109 112 102 104 105 92 103 90 80 83 84 84 85 95 100 98 132 134 114 114 105 95 94 64 44 71 105 99 83
113 131 186 206 220 234 222 214 203 150 134 124 121 115 106 94 105 100 94 97 91 85 94 87 97 95 83 64 65 94 136 128 139 108 104 83 83 45 43 79 80 83 66
113 153 159 183 213 218 216 222 174 149 131 122 118 103 100 102 87 90 93 87 86 95 91 98 106 96 72 64 79 85 127 135 137 144 140 133 61 49 35 29 73 89 58
120 127 170 207 220 211 200 182 151 141 121 120 112 107 98 100 99 99 95 92 90 96 99 101 96 95 86 84 86 80 79 78 125 133 146 124 62 36 33 46 42 15 22
124 154 188 225 218 200 171 156 153 128 129 124 115 100 94 99 93 93 85 95 103 111 100 98 97 106 115 103 77 70 67 70 120 142 108 69 51 45 53 35 13 20 73
144 169 199 202 188 175 167 142 145 135 125 107 94 99 98 96 89 100 106 106 98 98 95 96 115 125 123 115 119 120 129 104 124 121 133 79 68 50 38 41 49 25 -14
160 169 156 147 173 166 151 147 143 125 98 90 96 93 95 89 92 100 110 107 90 98 104 112 124 135 137 123 80 86 123 131 111 111 109 112 88 77 61 45 9 16 22
150 153 166 167 173 166 164 140 114 95 94 96 104 105 96 100 109 105 106 93 77 71 65 52 87 117 82 58 44 48 54 59 74 109 111 94 83 30 15 23 49 77 66

GFSMW_con_3kmhel_021.txt.gz
Helicity
87 94 115 129 143 158 167 159 126 81 64 74 108 127 132 136 154 168 184 176 175 184 176 146 133 123 111 107 101 86 83 72 77 78 82 82 45 77 134 285 135 115 139
96 120 134 158 184 194 198 187 156 108 96 93 111 119 131 152 159 163 167 157 153 149 134 134 120 114 91 90 76 67 53 60 80 76 75 56 50 127 142 122 128 105 126
122 141 170 197 214 240 223 176 138 118 101 85 85 101 112 114 134 135 124 129 131 132 117 101 82 67 49 49 56 70 85 77 74 99 86 60 95 83 69 89 52 137 117
156 179 197 209 219 222 176 138 120 108 95 89 106 115 106 117 111 103 99 87 90 86 77 64 63 59 48 60 54 90 87 90 80 89 94 108 113 111 99 111 156 67 148
193 189 192 208 220 193 155 125 119 114 101 90 82 89 106 96 79 62 60 61 61 71 78 47 40 47 60 86 88 91 89 90 108 108 94 87 95 102 145 146 139 138 113
198 201 187 200 210 160 127 114 115 117 103 101 114 124 120 95 76 79 76 62 61 56 63 35 52 77 94 90 92 96 101 101 99 101 96 106 123 135 137 139 137 130 126
153 153 160 180 163 135 126 120 125 128 110 117 135 145 127 110 106 90 75 76 76 66 61 64 83 103 104 101 102 107 83 94 101 90 101 98 105 123 138 138 167 162 174
90 98 129 143 134 129 132 133 131 128 125 132 158 164 140 121 107 100 92 98 93 77 82 107 118 117 108 101 100 93 100 83 106 80 109 105 133 141 160 157 191 180 197
82 102 128 122 129 135 147 148 146 147 150 163 186 179 162 151 125 117 109 101 98 96 115 125 116 104 97 98 98 103 89 104 99 110 113 124 144 154 180 217 246 271 218
105 121 118 126 140 149 161 160 158 164 179 196 211 191 176 162 137 127 111 98 101 126 133 122 110 101 100 100 103 101 101 100 113 111 122 134 155 174 190 228 252 271 278
126 120 119 137 144 148 156 173 180 188 205 222 223 202 188 158 136 130 103 88 86 122 124 119 108 105 106 99 102 99 91 113 109 111 131 144 144 190 218 253 241 246 234
111 112 135 147 142 148 168 177 194 212 237 244 216 203 175 155 138 102 78 64 104 130 128 121 110 101 91 96 96 98 98 117 114 122 137 149 187 190 213 218 208 221 215
121 140 174 153 146 161 177 195 221 247 254 233 216 199 183 151 124 98 76 94 128 129 122 113 97 88 92 96 89 84 128 119 123 134 155 159 173 193 201 205 221 196 181
153 173 164 147 159 175 196 230 250 258 249 242 231 215 185 149 107 75 81 114 123 115 104 94 89 81 84 93 84 147 132 125 134 143 145 137 169 170 188 169 163 165 164
146 158 152 163 181 207 227 243 265 254 255 252 231 199 144 102 78 85 102 112 108 100 89 87 78 87 101 102 160 138 136 133 126 112 105 140 137 100 97 161 169 145 162
149 133 136 179 204 216 226 258 253 267 257 244 207 145 99 76 82 98 115 115 104 83 82 83 91 106 123 101 98 132 139 119 103 85 114 141 123 126 107 110 72 90 130
118 126 158 189 209 210 218 227 267 274 260 219 165 108 76 85 109 123 116 93 81 83 92 99 113 129 132 86 102 103 134 95 86 103 139 149 162 136 144 94 77 100 74
147 160 196 200 213 224 229 286 280 262 228 184 122 69 83 113 128 108 93 93 101 101 111 118 130 131 126 87 99 87 94 103 100 118 135 145 148 129 108 122 131 119 108
204 193 183 193 207 218 259 260 251 230 195 167 87 88 117 124 112 99 101 95 109 112 119 129 119 113 128 91 78 92 101 115 113 133 145 125 124 95 83 114 124 105 105
188 171 169 178 193 234 224 232 237 210 203 116 93 112 119 111 100 98 94 104 110 125 132 113 110 94 123 88 77 77 122 123 145 151 136 90 106 80 67 101 107 109 106
145 142 149 174 215 200 217 232 216 202 126 99 119 124 100 103 97 94 101 117 121 118 112 111 118 115 103 110 84 66 113 135 153 164 151 147 82 59 62 46 104 99 74
128 136 175 182 182 197 208 223 190 138 113 132 129 114 97 96 99 109 116 114 110 115 117 121 127 126 122 120 86 70 83 89 146 156 152 148 70 74 51 73 36 13 20
126 123 145 172 185 184 178 175 178 139 134 127 111 99 96 100 110 115 112 117 113 121 136 140 142 151 163 134 80 93 76 82 117 138 106 82 58 56 80 36 10 -21 -26
104 120 146 169 186 166 163 182 158 127 123 111 108 109 109 105 95 119 121 126 140 153 148 150 158 155 148 134 134 130 123 98 113 110 115 74 63 59 44 54 25 -4 24
117 132 165 174 181 177 177 147 128 120 113 117 117 108 107 101 96 111 127 135 125 155 154 145 149 152 157 140 72 79 119 123 103 85 97 102 90 85 47 16 23 71 88
134 163 188 198 189 156 143 125 115 115 127 124 116 108 108 104 119 132 141 109 100 102 104 81 99 137 83 47 44 57 57 47 40 87 98 105 38 -1 10 37 87 103 18

GFSMW_con_3kmhel_024.txt.gz
Helicity
193 91 89 111 146 155 117 106 116 115 129 137 227 242 222 208 218 202 205 204 210 186 195 175 147 126 123 102 98 69 66 59 64 46 41 67 66 81 108 98 63 58 97
185 97 92 126 157 188 224 256 258 225 223 213 195 167 152 162 165 175 173 160 168 159 125 110 96 88 86 96 86 74 33 35 53 29 30 3 11 73 55 73 86 85 76
231 150 189 200 219 246 243 241 232 216 207 198 175 131 111 117 121 118 117 105 92 93 80 69 65 70 72 59 54 60 70 48 57 80 62 45 42 47 23 71 30 58 70
299 215 208 230 249 258 254 231 183 134 98 74 61 93 102 111 92 82 58 55 59 66 61 41 38 35 41 65 60 77 76 93 87 80 107 113 121 92 60 49 122 67 115
342 289 241 247 261 269 260 234 220 206 174 159 137 120 114 110 101 90 89 70 52 42 40 33 22 27 41 66 82 90 96 89 98 98 101 103 117 112 138 121 131 138 109
376 347 305 280 274 259 236 202 200 197 189 182 167 152 147 141 130 106 78 65 54 50 55 43 42 55 70 72 75 83 94 90 98 106 117 121 143 128 139 138 135 125 132
407 350 276 251 238 232 202 171 171 177 165 165 165 161 157 158 141 115 94 82 60 48 51 54 59 70 82 90 92 92 88 89 106 108 121 142 139 134 153 160 164 163 157
333 228 209 218 218 197 173 167 168 168 161 160 164 171 174 160 140 126 100 82 69 57 71 74 86 95 95 93 96 93 97 98 111 116 129 134 139 142 149 162 175 171 178
222 158 171 194 200 190 171 170 174 175 170 167 172 187 193 189 158 142 115 90 78 73 81 85 96 94 95 98 96 98 100 114 123 132 132 142 147 156 160 176 182 193 191
165 148 179 197 192 188 181 175 173 180 186 196 199 208 202 187 161 138 116 96 80 78 78 94 97 95 98 100 108 114 118 130 141 132 135 135 145 150 162 178 191 225 245
167 200 200 195 217 209 192 209 201 201 212 220 228 228 212 183 155 139 115 96 76 77 86 94 96 97 100 105 119 126 127 132 139 129 136 139 136 154 172 178 200 217 238
188 218 224 250 231 197 205 189 190 221 229 233 236 232 209 186 166 143 111 90 86 87 96 99 100 102 110 120 131 135 131 154 160 139 138 136 149 143 149 184 183 216 218
220 211 246 238 198 193 197 205 230 237 244 252 239 233 212 189 161 129 106 97 96 94 95 104 108 115 120 126 132 130 164 161 142 139 137 127 121 123 151 165 189 193 194
222 223 266 227 198 206 221 240 266 256 266 267 260 238 205 173 138 120 101 95 88 91 98 98 108 119 122 123 116 146 158 154 156 130 120 105 109 127 130 145 153 174 205
198 245 271 210 226 237 248 282 281 258 256 262 251 225 193 155 121 92 91 84 88 87 89 105 116 116 114 119 128 142 164 159 146 125 106 109 101 62 83 149 169 178 179
231 263 236 198 241 251 278 318 290 270 266 255 242 209 162 120 85 82 75 77 78 89 102 109 112 123 132 99 78 107 153 155 135 122 112 117 100 108 108 116 77 84 133
210 227 211 220 246 278 330 310 274 254 265 258 215 169 134 75 74 72 77 81 87 95 102 108 123 137 140 69 69 81 135 148 136 116 126 133 144 125 134 95 73 121 70
224 235 238 274 325 356 316 317 265 266 251 210 182 162 76 72 74 83 81 83 97 106 115 123 128 139 128 52 62 64 132 145 137 137 135 132 137 115 89 100 127 138 130
327 287 325 360 387 367 353 308 275 241 200 189 174 116 74 79 84 77 82 93 108 111 130 135 129 130 115 73 58 74 130 141 141 144 140 133 118 74 46 78 103 128 141
354 347 344 348 341 292 267 256 213 189 185 184 135 75 74 79 72 87 99 104 106 121 130 124 121 97 112 75 58 107 160 161 163 151 148 88 92 48 24 79 103 108 101
271 261 248 238 220 208 216 212 187 190 177 138 86 78 71 73 85 96 93 102 111 125 128 123 116 116 118 125 112 114 146 161 155 160 148 132 55 33 38 33 87 85 54
179 172 212 200 197 190 200 179 194 165 135 98 81 71 85 92 88 81 101 103 116 125 124 120 128 141 147 126 108 89 100 87 147 129 140 140 40 36 29 44 18 -2 -40
134 154 167 180 174 168 159 182 160 144 110 84 97 112 107 81 77 95 102 117 116 123 126 131 147 157 155 149 71 57 61 83 93 125 95 48 49 34 56 23 -2 -15 53
111 132 153 153 161 164 188 165 137 106 107 121 128 103 81 82 97 103 107 122 120 126 125 133 152 169 171 150 137 116 108 82 106 100 110 84 60 41 46 30 40 101 89
98 112 124 133 129 130 139 125 116 125 142 133 98 81 95 101 99 102 111 111 110 107 116 142 161 170 168 141 65 78 110 104 91 68 111 91 90 71 42 69 116 89 100
96 120 124 167 149 133 125 132 134 137 128 101 89 96 103 101 105 118 125 91 72 63 71 61 95 136 84 53 53 61 50 42 35 89 63 64 18 34 64 84 94 161 145

GFSMW_con_3kmhel_027.txt.gz
Helicity
216 170 135 133 138 119 110 130 172 226 362 423 434 433 339 322 292 238 225 217 188 184 155 123 116 112 99 85 86 58 55 49 66 33 40 31 46 84 82 68 84 64 99
249 190 155 185 193 145 136 164 218 276 294 284 260 243 236 229 211 181 180 159 154 131 112 92 73 67 62 80 76 55 35 28 44 6 -12 -29 2 84 50 68 74 83 79
313 245 225 236 229 221 217 219 228 268 254 218 220 216 220 188 163 143 131 119 114 100 76 60 47 53 50 47 43 55 60 37 41 67 41 40 63 46 43 45 49 60 66
362 366 312 297 251 239 236 248 266 261 211 170 162 125 99 107 97 101 92 98 90 79 67 57 46 43 29 51 50 68 63 66 71 53 97 96 116 79 70 146 83 63 94
415 419 359 328 301 286 300 299 290 246 185 159 139 136 132 114 119 130 123 98 88 79 55 40 35 40 40 48 67 78 90 76 75 83 85 92 97 107 140 110 139 113 117
435 431 397 396 377 331 335 321 316 273 238 204 165 150 146 150 171 155 137 98 63 47 47 48 53 54 59 66 71 73 82 79 80 93 101 118 122 120 117 114 111 127 144
456 464 432 411 369 316 309 297 296 277 253 241 204 180 178 185 171 152 119 97 68 47 44 43 53 54 66 79 79 80 84 82 91 96 110 131 148 146 168 182 166 163 169
464 391 340 364 320 282 283 285 270 252 235 227 215 197 194 182 166 150 124 100 81 59 52 60 69 75 84 88 90 83 86 92 99 105 127 142 133 140 174 193 202 185 193
389 327 285 276 263 249 249 245 238 220 209 206 213 210 197 183 166 158 132 107 90 71 71 74 76 87 96 96 92 87 89 98 106 118 133 140 129 150 163 188 197 228 230
314 245 225 238 231 217 237 235 209 198 194 208 208 200 187 182 178 163 141 119 96 82 81 81 91 93 91 89 91 95 100 108 121 134 143 144 142 163 163 181 197 203 220
264 223 195 197 217 232 239 221 211 221 225 220 211 209 209 199 183 154 128 111 96 87 83 86 89 87 84 85 96 104 102 125 139 127 157 146 143 161 170 171 182 197 215
244 221 208 235 240 243 236 222 232 238 219 211 222 226 217 205 182 149 123 103 88 84 90 90 84 83 88 97 108 121 127 140 147 139 153 155 157 159 157 174 175 192 192
242 237 240 243 243 241 235 240 246 238 221 230 232 231 224 198 160 127 103 96 91 92 86 85 84 89 95 106 114 123 128 140 144 146 154 152 149 147 158 166 171 168 160
253 260 255 246 231 231 237 258 259 245 238 237 238 236 205 163 134 104 92 92 93 86 85 86 87 89 99 108 110 117 145 160 158 147 152 141 139 142 144 150 151 160 163
259 282 290 250 235 251 277 284 261 249 242 253 239 210 168 147 115 95 91 90 86 86 81 81 86 94 107 108 105 131 161 167 156 152 153 142 107 92 105 134 141 132 148
258 291 293 246 239 271 295 279 249 236 249 235 215 183 165 142 93 74 86 93 90 77 76 85 100 110 104 67 98 125 154 159 158 164 156 160 99 87 61 72 60 67 130
284 294 275 248 261 286 297 275 247 242 229 219 197 178 155 109 79 91 98 89 75 76 82 96 114 113 128 103 101 103 140 159 175 168 164 154 130 94 123 78 46 79 64
269 287 277 277 304 321 308 295 258 230 222 196 177 156 126 104 98 96 85 74 78 84 98 109 107 135 135 96 98 98 148 164 170 170 163 129 126 111 80 94 104 142 103
274 318 306 347 355 345 317 280 244 222 198 181 162 139 118 106 90 89 82 75 81 100 112 113 123 138 126 97 97 128 168 175 185 169 153 120 111 71 32 74 101 88 101
383 388 375 397 399 317 281 255 212 195 181 155 139 124 104 91 89 77 64 77 97 101 117 116 114 104 122 98 105 150 176 177 172 154 114 73 81 30 31 68 92 94 61
396 380 359 325 268 247 236 231 199 174 151 143 128 105 94 79 61 64 77 93 99 110 114 116 121 115 104 108 96 119 157 142 145 143 144 137 48 41 37 11 57 44 -38
276 258 269 239 203 210 230 186 170 138 142 127 109 99 80 63 70 84 90 95 102 109 116 129 129 114 103 64 83 83 84 59 121 133 144 135 54 20 -9 24 5 -8 -12
197 196 216 216 185 161 154 169 130 134 131 125 117 92 74 76 87 93 89 97 99 112 115 124 114 107 116 140 71 61 43 83 104 127 87 73 47 38 45 9 -2 -13 31
131 146 176 176 163 138 146 144 130 131 126 115 95 85 95 102 94 85 89 97 108 116 110 103 113 127 138 134 134 119 110 91 104 81 106 64 55 29 14 44 46 54 90
112 112 105 114 133 147 156 136 128 116 116 104 98 107 100 89 82 89 86 96 90 103 104 110 133 148 148 130 87 102 105 100 84 68 94 92 61 31 73 66 81 103 99
78 92 97 111 113 138 138 119 109 111 112 123 116 97 88 86 92 94 93 84 85 64 62 85 121 138 85 64 75 64 61 49 41 87 100 7 20 63 39 78 121 124 115

GFSMW_con_3kmhel_030.txt.gz
Helicity
161 158 156 152 164 164 166 167 235 319 420 486 526 514 462 319 293 263 227 217 189 169 146 131 122 99 90 86 93 74 84 78 73 55 62 70 94 100 153 98 167 75 113
189 174 182 170 158 150 170 206 253 271 334 412 420 397 387 321 259 243 254 214 184 160 136 110 90 86 75 88 85 78 62 53 54 19 1 3 37 81 52 96 60 96 73
205 220 238 201 192 176 175 191 198 232 286 331 381 369 331 278 269 250 224 185 159 134 109 91 71 63 61 72 68 66 67 56 48 49 46 32 66 54 36 47 73 57 76
246 297 306 265 238 216 214 211 219 235 243 234 237 232 226 218 161 156 144 162 142 120 97 74 62 63 55 71 61 70 67 69 72 51 90 60 84 68 60 90 59 53 68
343 340 327 306 274 268 289 271 276 246 207 201 207 206 202 172 155 151 160 151 130 111 92 74 63 64 65 70 85 91 100 80 71 69 64 59 83 87 127 114 104 79 81
351 450 449 416 373 335 357 304 292 258 225 209 191 190 181 162 161 136 141 126 115 104 88 73 68 72 86 91 92 91 94 83 76 77 89 96 94 106 109 120 122 140 148
467 482 454 411 386 363 392 335 320 285 248 234 216 187 165 157 153 132 127 133 111 87 80 75 86 90 99 107 104 97 92 82 88 88 97 119 137 160 174 170 155 175 198
516 468 449 437 414 394 417 362 345 307 273 253 238 209 191 180 171 160 154 140 110 90 80 87 102 117 122 115 108 92 88 88 96 103 118 134 151 166 181 208 217 175 210
490 463 434 405 396 388 371 347 337 297 274 254 243 227 209 206 190 185 162 139 123 105 113 115 125 127 122 118 105 93 92 96 98 109 129 141 144 162 178 213 235 269 260
458 436 377 371 356 344 331 310 280 259 242 249 245 231 220 204 190 179 162 142 125 121 130 131 134 134 120 103 99 100 103 105 116 114 130 143 164 178 181 197 218 240 272
390 351 322 316 318 307 279 282 284 279 260 256 252 240 212 203 191 177 151 136 128 134 137 135 136 122 107 100 103 107 102 119 108 123 139 155 156 166 179 190 208 225 224
319 288 269 270 260 243 250 250 263 257 231 241 247 226 212 199 187 174 147 128 139 139 131 132 123 113 106 103 109 113 107 105 134 148 157 160 158 163 161 185 192 205 200
255 235 238 224 218 219 232 251 250 242 237 248 238 228 208 191 185 157 142 144 140 125 133 131 123 112 103 101 105 99 110 139 151 149 161 156 170 171 171 184 185 178 175
224 213 202 197 198 215 252 261 256 243 237 240 237 212 197 187 169 155 139 128 120 134 138 129 111 103 103 98 93 111 134 143 148 158 172 181 180 164 156 156 155 172 170
188 188 194 205 235 254 261 263 254 244 234 234 213 203 190 183 165 141 124 122 138 135 125 114 108 108 100 91 104 125 132 145 163 182 187 172 140 112 131 156 167 148 151
172 192 207 219 218 246 271 273 257 227 208 200 202 190 192 168 153 130 132 141 140 128 112 113 105 97 100 99 106 126 157 166 170 166 162 171 128 121 106 99 72 77 125
196 214 214 209 242 264 266 239 215 196 194 197 194 189 171 160 146 142 143 137 129 111 103 100 105 101 111 98 117 145 174 172 161 165 176 178 168 126 123 81 55 82 68
158 200 230 254 262 269 268 262 215 189 190 196 189 178 168 162 148 140 135 126 106 105 106 101 96 100 97 120 153 150 165 160 160 169 176 173 130 110 88 103 137 152 98
218 246 261 303 301 291 272 240 196 189 197 186 185 173 161 149 139 145 147 103 103 105 100 96 98 103 112 120 136 144 153 138 140 157 172 114 103 68 39 96 105 96 98
304 328 311 315 317 261 249 230 204 198 186 178 171 156 146 149 151 134 113 95 100 87 101 104 111 108 129 94 113 121 133 134 157 157 110 64 73 41 51 78 89 82 31
318 319 304 303 277 259 252 232 192 183 178 177 163 156 155 147 122 108 100 97 92 96 106 117 121 114 106 115 79 94 144 148 161 139 135 116 48 42 28 27 76 53 43
337 316 332 287 241 227 230 204 205 176 170 164 167 166 148 125 126 122 104 100 102 112 119 124 117 109 108 70 83 104 115 107 146 143 131 116 46 28 27 30 9 -2 -28
307 261 272 248 202 195 202 206 153 160 167 171 179 158 145 141 123 106 96 103 115 124 122 112 123 116 110 130 83 87 95 101 120 135 87 63 50 34 33 18 -2 -21 29
221 205 220 203 185 168 167 167 156 161 170 181 168 158 147 125 106 101 101 115 122 122 117 127 129 123 126 137 138 133 127 113 116 89 106 74 52 -20 37 52 24 55 48
132 142 157 164 152 158 177 166 160 156 175 171 156 135 114 107 104 110 106 115 106 113 131 131 132 138 137 132 111 112 117 116 87 69 99 85 39 83 63 53 59 74 60
125 146 139 150 141 161 169 150 141 147 159 153 128 109 111 108 112 122 125 105 106 102 102 110 135 160 114 85 86 77 87 53 53 92 90 41 88 41 69 81 107 99 79

GFSMW_con_3kmhel_033.txt.gz
Helicity
27 47 110 125 133 141 177 254 302 326 415 449 499 517 441 421 382 307 240 203 188 188 163 138 124 104 96 85 88 77 102 86 73 47 71 98 122 121 129 81 106 118 78
28 87 134 160 139 140 156 230 289 341 383 450 491 502 431 418 371 275 245 220 211 181 157 122 108 102 82 94 92 91 73 76 66 39 27 40 62 104 67 101 117 109 70
84 150 171 152 160 161 170 223 264 306 358 438 509 559 482 420 338 282 275 242 201 171 141 124 99 87 70 70 70 77 80 69 59 62 59 45 70 70 55 108 118 83 71
116 157 232 207 177 161 187 225 237 247 278 315 376 349 329 314 254 241 224 216 186 159 136 116 96 77 64 84 75 81 70 67 71 72 101 78 92 96 101 103 102 59 61
118 166 213 214 206 207 221 243 231 227 225 256 280 308 333 312 269 235 228 200 176 154 133 107 93 90 80 80 97 100 108 93 91 86 82 79 96 89 146 125 101 66 56
129 195 325 335 302 281 279 278 254 256 237 240 245 267 291 249 237 196 189 161 148 138 128 121 109 105 103 102 104 110 120 112 105 93 86 86 96 110 109 131 118 107 93
244 308 357 354 325 274 303 305 284 275 251 250 248 243 232 197 179 156 146 138 128 129 140 125 125 112 111 119 123 125 123 109 100 88 96 110 124 138 144 138 126 138 142
228 294 378 386 353 323 339 343 330 326 291 276 268 250 233 198 179 159 152 148 146 139 136 137 133 138 138 133 131 120 109 102 100 101 112 119 130 143 158 162 157 129 158
213 284 433 432 389 374 354 359 388 358 321 297 283 258 228 204 183 179 172 157 149 140 144 144 147 145 140 138 132 120 112 104 101 100 101 127 127 136 154 175 189 210 202
275 369 485 480 429 399 394 377 369 326 313 302 273 251 231 214 198 187 178 170 162 156 157 157 161 155 144 139 132 118 107 105 108 107 123 130 140 143 153 170 171 187 218
325 454 495 429 412 405 375 381 374 337 317 291 276 271 242 218 208 202 181 168 164 165 167 166 167 158 149 138 126 113 97 112 108 118 129 125 136 168 166 164 173 191 201
291 377 367 357 355 367 358 358 342 314 285 280 273 254 231 224 220 197 177 160 170 163 163 170 170 158 143 124 118 112 106 105 111 110 126 139 153 162 170 191 181 202 216
272 305 315 303 327 334 336 311 284 286 277 276 268 253 238 226 203 184 168 171 174 167 177 175 162 142 124 116 109 100 103 108 112 121 145 151 163 181 191 196 207 188 161
202 252 271 270 278 278 268 267 281 263 263 260 253 245 222 200 185 173 177 182 164 180 174 152 141 130 113 104 97 107 109 111 118 137 145 154 178 195 194 178 176 181 184
171 209 235 238 246 255 252 249 251 253 248 252 242 222 206 196 184 185 189 172 177 161 148 147 134 123 109 97 96 103 108 118 130 133 145 169 182 173 174 186 174 151 167
157 185 206 228 221 219 234 251 250 233 225 228 222 207 200 189 188 193 181 181 168 154 147 143 122 109 106 90 103 118 133 133 132 154 176 203 161 147 110 97 74 87 111
154 181 191 193 202 222 252 236 215 214 222 217 202 193 184 191 194 186 190 170 153 146 143 122 112 112 107 82 97 107 134 143 163 179 196 190 152 113 131 90 56 76 123
134 153 185 209 221 233 235 244 221 208 209 206 194 183 190 199 191 190 170 156 149 134 122 116 112 109 108 97 96 93 156 177 182 190 168 150 124 108 82 104 129 96 98
171 192 206 230 239 237 231 246 222 208 200 182 180 189 193 190 179 176 174 147 128 120 117 106 105 115 109 82 105 143 166 169 176 151 131 97 100 67 39 104 106 94 101
224 260 245 246 257 226 257 256 209 190 177 169 193 196 184 180 190 175 158 110 113 105 105 109 114 92 111 104 125 135 165 168 156 142 108 90 85 41 48 85 84 91 95
240 242 234 248 246 262 263 233 194 172 174 198 196 196 204 193 171 145 122 121 111 109 115 106 103 110 127 135 108 124 161 152 150 139 136 120 51 39 32 29 82 89 24
255 254 303 283 247 237 247 215 189 177 197 208 218 213 193 171 149 147 122 113 116 107 102 112 122 133 128 92 113 121 111 107 142 132 129 114 41 28 26 32 35 -12 6
257 246 293 281 226 207 197 212 184 207 218 219 211 195 176 164 143 134 124 112 104 102 109 120 135 137 124 138 90 88 84 93 111 137 80 56 46 39 49 33 -13 -20 104
234 232 279 268 235 206 218 223 197 197 209 219 202 177 158 149 136 122 105 97 98 108 117 127 137 140 128 129 139 135 129 104 117 96 105 74 59 46 55 62 70 90 93
223 219 224 219 215 220 222 189 188 193 212 191 166 159 147 139 123 106 90 98 95 107 126 134 142 138 132 125 121 124 121 117 96 80 104 90 77 81 84 79 91 104 97
169 204 208 210 184 203 205 191 175 164 173 176 159 142 135 121 110 107 108 101 104 99 103 111 123 141 117 114 109 76 86 58 66 94 88 90 87 88 81 97 113 130 105

GFSMW_con_3kmhel_036.txt.gz
Helicity
80 76 61 79 123 128 128 137 172 253 388 450 459 417 415 409 429 385 318 300 200 178 176 167 138 106 88 71 81 50 73 63 56 34 66 86 109 119 135 112 89 127 82
78 79 69 96 123 119 130 155 186 270 354 412 449 463 481 453 426 386 337 241 190 182 189 152 125 102 79 84 73 67 35 30 26 12 -3 38 64 132 111 73 114 102 59
59 44 82 85 110 119 142 171 204 274 354 445 531 601 558 500 447 377 284 232 221 208 174 144 114 99 69 55 49 43 52 50 43 48 35 22 39 60 57 117 81 111 61
129 63 91 138 115 133 147 178 224 284 317 371 434 474 470 383 319 296 236 270 226 200 164 138 116 100 74 70 52 55 41 31 47 51 82 77 88 66 70 75 103 71 69
144 117 110 139 182 175 167 183 230 261 287 312 363 445 470 367 348 297 287 268 235 193 155 130 118 105 85 80 84 84 80 58 59 63 73 90 105 108 142 138 102 65 58
149 144 160 235 259 223 208 197 222 237 264 281 313 331 375 321 293 257 258 233 201 169 148 135 120 109 103 105 102 97 98 89 93 91 90 82 91 102 100 121 103 83 47
150 204 214 236 264 221 209 207 220 249 246 258 265 260 286 272 265 231 199 183 165 147 140 128 126 117 124 125 116 108 101 100 105 99 97 101 107 122 130 130 102 98 85
127 177 213 237 256 241 233 239 250 285 267 254 269 284 289 270 243 204 196 183 160 138 120 130 140 146 138 133 125 107 106 107 99 98 101 113 118 133 144 146 117 80 108
136 150 193 249 295 296 299 291 322 324 310 287 300 317 301 271 242 235 213 185 151 133 138 149 159 154 147 141 125 115 106 103 101 104 109 131 123 137 145 165 179 164 127
112 178 199 279 343 346 387 359 325 330 340 333 316 316 299 271 245 230 205 179 158 146 152 158 156 145 144 137 124 111 107 117 114 115 117 121 143 154 178 202 206 214 207
155 220 262 331 408 405 366 387 373 389 390 354 336 338 313 279 250 223 185 165 155 149 151 150 150 149 141 130 124 114 105 118 113 116 118 123 147 185 202 213 212 205 202
229 291 335 386 377 361 355 372 375 398 381 343 335 325 296 258 238 211 181 158 156 149 148 152 157 143 131 126 125 116 110 110 117 113 129 137 158 173 183 191 184 201 204
217 234 278 344 368 366 360 356 361 396 378 347 321 297 272 246 223 195 170 159 149 155 155 161 147 136 130 123 113 103 102 104 111 117 129 142 163 162 158 170 194 198 189
146 178 246 279 280 289 331 344 372 362 332 309 292 269 245 223 193 174 169 163 156 148 159 139 134 131 118 103 96 101 98 106 118 134 149 154 145 134 146 165 180 203 205
114 119 169 240 276 310 321 324 330 312 281 281 266 246 223 204 190 181 171 172 140 154 135 134 132 124 104 94 89 92 101 118 137 136 134 131 121 112 151 190 199 175 170
77 84 142 221 243 253 270 285 272 251 245 246 233 216 215 201 191 178 172 152 157 143 132 137 124 104 93 73 78 97 126 139 138 128 128 169 128 150 118 115 98 101 97
58 75 121 172 186 205 229 227 222 222 230 229 217 214 205 199 182 171 159 154 147 133 137 117 95 94 90 70 82 98 145 146 129 133 165 177 176 137 160 105 65 64 79
76 103 151 172 189 215 228 233 206 211 223 223 213 200 196 188 176 172 155 146 135 132 102 91 95 90 86 86 97 100 138 126 142 167 167 166 152 132 84 102 128 106 95
92 115 133 174 194 205 213 242 232 233 229 203 193 178 175 182 166 161 150 137 124 103 99 88 81 92 86 98 104 93 118 148 157 163 145 135 120 64 25 103 104 93 102
141 168 172 195 224 198 233 255 227 210 191 174 182 193 188 168 154 145 141 107 92 101 88 85 83 77 108 87 72 84 143 149 161 150 146 98 84 27 42 85 86 92 96
187 190 181 182 196 223 247 248 205 178 182 213 215 200 174 163 151 129 107 115 101 92 90 86 96 99 95 95 77 106 140 149 160 154 139 128 40 35 39 34 82 89 65
187 208 245 225 203 217 249 229 207 196 220 218 209 187 171 150 133 140 115 98 95 94 94 96 99 107 103 76 97 104 120 111 149 130 128 111 38 34 31 44 29 16 23
194 185 235 258 235 218 214 240 199 224 222 210 189 170 162 152 135 115 102 94 92 92 89 94 106 111 101 119 81 96 84 74 101 126 72 52 48 39 50 24 16 18 88
187 198 257 261 253 235 255 238 201 199 204 200 181 167 154 132 114 104 93 93 90 92 94 100 106 115 115 118 128 121 120 88 102 91 107 77 62 41 34 54 61 91 83
206 205 247 266 258 254 255 203 179 186 197 184 168 146 128 125 109 96 84 88 85 84 94 101 109 120 130 120 96 120 116 120 94 86 115 95 75 76 74 73 91 102 103
185 249 253 263 244 245 212 177 157 165 169 154 138 131 121 109 107 103 101 100 82 76 82 89 113 134 106 99 107 83 94 74 66 100 99 92 88 84 78 97 119 133 113

GFSMW_con_3kmhel_039.txt.gz
Helicity
127 168 191 184 135 109 100 95 124 137 201 262 351 366 375 356 351 359 328 311 283 183 172 129 146 135 120 101 82 62 76 67 49 34 51 68 88 100 118 98 112 126 119
68 119 148 168 162 124 129 126 115 127 176 252 358 412 450 423 436 401 400 281 239 223 176 153 146 121 101 104 105 70 31 28 32 10 -14 38 55 108 71 83 139 98 118
96 81 88 139 158 137 130 145 130 147 220 331 482 505 514 478 445 408 408 279 224 205 180 156 133 121 97 93 78 61 46 38 30 49 27 19 47 80 90 112 113 134 93
93 94 91 130 135 133 161 137 139 183 216 274 355 412 438 396 351 397 387 329 236 217 179 153 134 120 97 82 64 58 52 33 55 34 58 64 73 45 32 59 99 83 71
102 99 111 126 126 174 170 157 165 169 195 238 294 393 439 406 435 425 400 315 244 213 182 149 133 118 98 89 81 69 63 58 45 47 58 78 88 100 99 93 90 65 37
83 98 77 133 155 191 192 177 171 179 200 247 302 373 466 435 440 363 305 268 235 206 179 153 133 114 98 90 85 76 78 77 68 60 66 70 75 90 96 109 88 75 35
87 97 145 144 163 201 208 208 180 190 211 234 271 314 375 382 350 298 292 236 211 182 155 136 113 98 95 98 86 94 96 92 84 84 89 82 81 90 96 99 94 110 88
46 76 85 163 163 222 235 231 202 212 218 244 292 333 350 349 307 261 231 201 180 158 132 123 108 99 104 102 105 107 103 98 97 94 88 87 96 110 107 110 103 85 102
83 67 74 139 179 220 224 248 262 244 233 263 333 323 312 313 275 248 220 197 171 147 127 114 109 106 107 118 117 112 114 109 108 100 93 95 104 114 117 130 143 145 150
50 65 104 144 172 226 267 284 268 287 285 296 313 333 331 305 270 241 210 187 167 141 123 115 113 111 117 123 124 123 111 107 105 96 99 108 119 122 139 157 170 189 192
80 95 103 168 217 287 316 322 356 345 339 335 367 395 358 313 273 231 198 178 154 131 120 114 113 114 122 129 127 112 100 98 96 106 116 117 129 146 157 170 186 199 190
92 125 169 198 246 310 328 342 355 353 362 381 406 397 360 303 260 216 185 156 150 129 115 109 114 119 130 124 108 98 92 94 102 112 131 132 147 134 138 166 166 167 163
103 124 144 185 255 294 310 347 362 374 398 400 410 363 309 273 235 198 174 154 135 123 114 112 121 124 122 97 82 81 87 100 112 127 126 123 121 126 144 145 145 145 158
122 107 128 183 250 306 335 350 375 380 375 367 347 306 256 234 206 184 162 141 127 126 105 112 111 112 91 80 85 83 96 112 118 118 112 108 125 138 122 111 104 152 172
100 105 140 194 264 317 320 333 349 349 334 335 306 264 241 222 196 173 154 143 141 123 98 96 107 93 81 86 87 93 107 114 114 104 107 126 124 82 98 154 179 170 165
111 98 114 156 222 249 268 297 304 307 298 301 275 229 214 194 178 164 154 151 139 89 92 109 100 93 88 79 85 101 111 118 112 108 114 121 92 87 82 121 106 118 124
81 54 60 100 143 181 226 245 259 277 286 263 217 201 188 186 175 158 150 139 91 90 107 96 88 95 83 73 89 90 117 119 110 111 109 104 113 103 131 100 71 78 55
31 23 62 112 155 185 218 249 240 237 237 219 202 183 187 184 163 152 135 97 94 108 90 92 89 78 78 84 86 89 112 112 112 102 85 98 105 111 96 115 131 86 67
15 30 55 115 141 158 194 242 229 223 209 191 185 180 169 159 141 132 102 108 102 92 91 73 77 86 86 81 84 97 111 117 94 80 74 94 102 85 58 111 99 79 72
54 80 95 125 160 171 212 227 195 187 191 183 178 163 150 136 126 105 116 100 89 97 83 81 81 74 77 80 83 93 112 90 102 97 103 93 103 55 50 84 86 87 56
72 72 101 142 168 168 186 197 179 192 195 198 174 151 139 141 118 116 98 96 99 88 88 87 87 84 90 88 88 93 105 105 121 130 126 115 56 36 36 34 76 74 55
105 124 167 165 138 149 206 216 220 178 169 164 169 163 144 125 115 116 107 97 95 99 90 85 94 101 92 91 96 80 88 99 142 123 112 95 36 32 33 50 36 18 23
118 139 197 206 167 161 195 240 162 171 182 184 167 145 134 128 110 110 103 98 95 82 83 89 94 98 101 103 72 68 79 88 109 118 66 44 46 36 54 35 15 17 55
145 169 235 235 232 200 211 213 165 167 181 164 137 128 130 121 109 101 97 85 75 83 93 94 92 94 91 86 78 86 107 89 100 79 102 76 61 54 43 39 43 59 58
163 183 234 247 228 222 226 173 156 165 165 144 132 132 124 115 108 95 71 72 70 70 79 83 92 82 84 85 84 118 111 125 105 87 105 80 61 52 46 52 65 68 69
185 252 257 264 232 232 203 157 131 134 140 142 128 118 112 103 94 84 87 85 96 96 98 94 102 106 81 90 111 88 97 85 74 99 83 61 57 54 56 69 88 97 90

GFSMW_con_3kmhel_045.txt.gz
Helicity
74 81 91 153 217 205 181 138 166 143 133 131 130 112 190 254 362 274 333 219 234 203 188 189 153 132 105 105 87 68 55 53 44 21 46 56 75 77 93 89 99 110 90
74 63 74 105 130 201 261 245 186 167 166 159 143 137 306 510 509 503 418 360 294 270 237 215 185 155 118 115 96 70 49 49 49 33 9 42 80 74 80 115 121 110 128
65 56 62 83 119 149 203 236 240 202 189 181 176 238 534 540 487 440 471 415 344 302 275 231 198 174 135 122 102 82 78 51 39 64 52 41 79 117 117 122 110 109 137
82 80 84 88 94 112 175 234 230 225 217 210 216 302 421 412 402 439 454 441 370 328 271 223 209 158 140 119 94 85 75 58 66 37 82 102 129 117 116 148 92 132 123
124 141 118 111 120 124 135 190 247 266 271 219 267 323 279 259 401 491 476 465 434 361 291 277 231 179 144 119 96 85 84 77 76 81 83 89 93 96 126 108 114 137 132
35 59 80 109 137 147 205 191 232 262 294 337 235 196 243 361 420 522 522 482 389 351 260 234 198 156 138 114 100 90 85 88 90 90 102 111 119 136 144 135 116 114 98
88 62 57 64 93 129 186 201 201 237 256 236 197 149 269 251 299 435 464 403 383 338 291 250 174 149 134 114 98 92 75 88 92 93 110 120 113 126 133 138 132 139 130
51 125 102 85 87 106 125 199 165 214 210 191 190 211 274 241 288 370 376 392 349 293 228 226 158 150 121 106 89 78 82 94 80 103 118 123 122 136 142 150 148 133 143
119 128 96 86 77 101 100 169 168 198 192 196 244 272 208 246 336 361 414 421 364 280 269 196 177 139 115 97 85 97 83 85 108 112 108 112 125 140 139 146 151 156 159
86 63 45 71 98 69 89 109 138 186 193 208 243 259 223 246 362 397 440 375 288 207 190 183 149 125 105 99 94 88 104 114 117 111 109 128 144 147 149 149 154 169 179
90 96 77 70 104 69 87 104 162 198 206 230 277 247 232 278 401 428 357 340 251 209 182 169 133 113 106 97 92 114 119 106 99 106 122 134 132 135 140 150 161 178 185
14 -23 24 7 132 91 167 138 188 245 245 266 256 238 254 348 427 405 334 227 205 195 196 145 129 118 106 101 112 113 109 100 98 122 134 122 126 135 135 151 160 184 190
34 4 7 -38 130 141 183 195 195 235 267 247 241 265 329 405 410 342 235 206 223 219 166 142 123 108 108 111 113 116 101 95 112 121 119 121 128 134 150 167 184 199 219
28 -0 -7 7 122 141 197 179 186 186 234 252 269 332 369 367 323 289 246 245 210 182 154 133 120 113 110 109 115 94 90 103 107 106 111 116 127 135 164 204 211 218 227
54 -35 -57 90 134 153 181 173 186 203 237 283 332 391 371 333 284 276 263 233 200 171 149 124 108 106 111 123 107 101 106 101 99 104 108 123 151 152 146 185 191 193 210
-58 -5 79 121 116 167 172 158 189 254 291 354 405 366 315 273 264 254 218 200 178 152 126 112 107 112 108 121 104 100 97 88 96 117 130 145 144 160 175 153 151 139 163
110 21 48 62 91 142 133 165 251 328 384 408 363 275 247 262 240 215 200 172 152 122 111 102 119 99 99 119 96 86 82 92 100 120 135 150 166 178 183 172 130 140 70
12 3 19 89 125 151 166 216 304 349 358 355 342 208 228 225 204 200 177 150 125 110 107 112 92 93 95 108 85 86 76 94 109 123 128 144 155 160 158 177 162 136 106
-39 -16 67 147 143 168 165 250 369 407 363 276 223 157 191 200 179 170 153 133 121 111 99 100 90 83 80 124 95 90 100 110 108 115 141 149 144 117 110 137 146 114 109
92 114 113 124 146 157 199 278 276 228 145 124 160 158 169 163 160 147 136 121 111 107 95 84 71 85 78 100 114 107 93 110 146 158 136 107 122 113 98 111 115 104 90
6 10 32 61 51 38 48 93 106 130 134 151 159 164 163 161 144 117 109 110 101 83 74 69 65 78 96 103 98 95 115 138 151 138 139 144 91 78 47 59 86 86 71
6 11 39 40 37 53 103 131 143 129 151 165 180 178 148 110 103 114 98 91 83 73 74 88 89 100 105 113 111 102 88 78 128 135 136 116 44 39 38 52 47 37 37
53 103 87 108 115 117 114 160 130 147 176 181 155 124 116 113 93 84 88 82 81 86 89 93 86 95 121 118 111 108 93 104 130 129 86 34 35 36 55 45 33 45 88
26 32 59 79 90 88 117 129 118 132 149 134 116 113 103 92 92 88 85 86 85 84 82 88 102 107 105 120 163 149 136 107 115 94 93 67 37 44 52 59 70 84 86
58 63 89 121 150 153 159 131 120 117 131 127 109 104 93 99 95 92 86 84 105 101 97 106 102 101 117 137 128 113 114 107 96 77 98 81 70 73 73 76 76 82 91
135 142 140 191 175 158 150 132 119 114 116 117 101 99 96 95 87 79 81 85 94 93 85 85 101 115 104 115 107 85 57 67 55 102 84 71 73 75 74 78 85 99 92

GFSMW_con_3kmhel_048.txt.gz
Helicity
82 115 138 156 178 130 162 187 225 256 240 226 285 264 153 194 280 269 289 345 333 326 284 256 264 211 162 131 130 133 112 100 68 48 46 40 54 59 60 81 76 108 90
109 81 108 127 122 196 227 221 235 293 305 249 262 281 323 431 452 419 441 493 492 371 308 327 301 271 237 197 155 108 102 71 73 48 29 44 44 44 48 96 133 120 135
133 129 117 121 135 149 158 260 281 283 292 324 325 501 509 566 575 625 650 661 623 489 403 372 322 278 242 225 214 155 127 71 53 61 34 51 40 52 102 120 139 119 137
112 135 132 132 145 160 166 138 239 298 319 332 394 437 464 535 553 641 736 706 545 423 386 359 343 322 278 251 188 145 108 80 62 53 63 77 85 81 96 145 161 179 171
100 87 101 128 103 161 156 167 166 208 269 345 391 542 574 582 628 626 689 572 454 410 368 359 353 335 281 229 187 155 123 99 80 74 71 86 88 99 133 112 126 114 99
65 85 76 79 91 126 158 218 167 235 265 333 436 548 604 580 549 553 600 554 503 472 441 374 386 351 271 239 200 138 133 111 102 93 93 94 105 128 157 166 148 123 105
184 155 138 119 95 85 95 170 238 260 321 401 473 474 527 504 454 514 566 526 493 492 453 397 359 310 278 214 174 136 116 107 101 102 107 121 116 134 157 170 152 165 145
170 186 196 163 137 124 93 119 216 354 379 469 452 420 440 446 425 430 437 444 451 417 386 354 299 279 227 197 144 112 96 99 90 97 115 121 124 151 167 165 159 139 166
119 197 220 178 125 117 125 121 144 349 443 448 359 378 437 411 379 402 414 457 435 405 382 314 284 240 209 177 125 98 88 84 88 96 110 119 131 158 155 161 176 188 184
195 215 152 89 122 76 129 136 191 290 416 374 414 486 445 372 331 357 393 400 391 385 351 323 258 264 188 163 116 93 93 97 102 114 127 139 154 155 151 157 164 181 201
225 222 193 80 128 77 124 140 229 304 359 422 549 562 494 381 333 377 386 403 381 328 286 267 207 189 176 135 113 104 98 101 109 124 134 138 145 131 146 160 164 177 197
157 185 151 107 56 28 70 187 233 302 505 588 545 474 399 366 379 401 423 386 333 289 282 242 209 193 174 131 119 110 115 109 115 132 142 129 134 147 151 159 161 191 201
107 208 147 39 52 37 145 232 327 545 610 522 415 353 318 315 329 365 355 357 288 334 311 249 218 194 142 126 124 124 122 117 127 121 117 113 134 143 153 171 195 207 198
158 174 196 24 66 164 293 393 486 560 490 398 301 282 290 330 371 389 370 343 356 299 229 203 197 146 121 115 118 123 120 131 121 103 109 120 127 137 160 174 178 182 199
273 211 99 16 72 180 338 391 484 437 313 272 263 295 323 365 393 375 378 323 259 243 199 211 144 113 98 118 126 124 140 125 108 102 111 130 135 126 134 165 193 200 211
190 86 23 73 209 301 356 385 383 275 230 261 295 324 372 380 373 371 273 310 228 226 170 128 103 105 108 118 132 130 116 96 101 112 110 121 120 132 146 156 158 165 178
-6 -64 28 213 289 293 329 326 275 245 266 294 330 358 356 379 349 298 226 187 181 152 135 114 109 102 111 123 122 100 94 95 94 99 110 125 139 145 175 154 134 136 105
73 61 124 150 125 170 214 245 263 285 319 345 355 377 361 376 242 231 213 183 136 122 124 108 101 101 100 111 105 100 98 89 91 98 108 131 149 161 159 176 184 165 139
60 77 71 58 98 148 169 239 279 366 391 409 454 403 279 177 163 160 147 138 136 111 109 103 99 106 117 91 105 103 94 101 101 113 132 148 163 146 117 166 156 125 106
7 43 103 129 181 194 197 270 299 332 289 325 299 252 162 121 135 135 136 124 123 111 93 96 82 80 84 78 84 86 99 108 116 132 142 104 132 113 91 120 115 103 81
18 33 124 183 175 209 209 241 233 242 180 132 113 79 86 107 118 129 103 101 96 89 81 80 81 68 66 75 78 87 110 110 120 139 135 135 85 74 58 47 79 72 65
-9 11 1 -41 -33 39 80 84 98 22 14 84 110 109 107 103 89 94 95 90 85 92 91 93 84 84 106 112 100 84 93 98 141 129 132 126 67 49 32 42 35 28 46
-23 -24 3 21 10 31 46 91 46 58 77 120 148 124 91 81 77 76 69 76 79 77 82 85 87 99 109 113 140 163 131 118 124 132 91 60 48 35 41 40 35 50 91
79 74 108 106 89 69 56 62 51 62 109 103 80 76 89 79 74 78 70 67 81 86 90 98 100 95 103 125 134 125 122 103 116 92 100 76 43 34 47 53 73 92 94
32 44 52 56 47 34 37 33 65 83 108 100 84 77 59 57 70 67 67 81 83 90 88 88 98 104 106 113 103 102 108 107 88 75 88 79 61 52 64 75 86 98 102
122 106 102 114 91 108 114 91 86 104 102 85 57 51 62 72 74 79 81 76 79 81 84 88 101 115 98 88 89 75 62 75 68 98 85 60 52 59 67 74 87 109 102

GFSMW_con_3kmhel_051.txt.gz
Helicity
55 84 94 103 132 120 88 132 199 189 403 420 412 327 271 249 233 190 271 288 366 356 314 283 292 270 267 209 174 161 154 159 122 97 90 78 60 42 39 52 82 84 87
27 27 69 98 124 120 119 148 171 221 299 405 376 376 336 283 282 233 326 396 449 463 349 311 311 298 304 246 195 185 182 182 149 98 75 91 74 46 36 59 76 97 116
109 89 88 80 91 123 113 131 169 158 306 453 588 629 589 475 401 394 487 510 504 530 424 348 363 343 315 262 212 192 197 172 146 116 87 90 61 67 72 82 99 139 147
140 127 127 129 124 103 114 96 121 145 195 335 483 525 518 493 422 544 566 590 566 598 460 417 394 372 330 296 253 220 200 166 124 123 116 106 96 78 84 107 142 173 177
61 51 88 116 121 120 129 130 102 148 151 229 312 436 555 562 576 648 653 646 659 644 533 448 408 399 349 287 268 259 225 183 132 106 93 100 104 118 123 102 126 149 129
55 59 78 96 120 134 110 119 134 132 171 181 332 455 591 617 616 624 656 675 650 625 534 488 438 409 373 283 265 281 248 205 157 112 100 96 99 108 132 120 118 107 91
166 148 179 193 183 174 136 101 100 108 146 230 365 474 539 585 586 597 618 665 658 599 565 537 485 411 352 284 281 249 264 189 143 108 107 111 118 131 139 149 132 140 121
127 100 122 140 177 186 168 115 86 128 163 282 446 517 554 630 583 581 560 586 583 569 562 511 436 357 336 265 274 270 220 165 131 113 110 114 119 131 146 153 155 139 151
100 89 168 183 177 143 111 70 80 120 200 354 550 582 593 575 486 500 508 513 523 551 524 477 419 352 295 231 244 218 182 147 106 101 114 117 127 153 167 182 178 167 154
184 144 205 230 193 114 46 54 63 142 231 417 509 565 537 478 445 424 422 412 443 478 468 428 386 338 232 259 208 217 164 135 119 102 108 119 131 153 170 165 170 182 186
182 194 164 156 149 81 55 43 78 196 329 460 538 560 485 410 405 349 348 397 422 412 393 357 319 219 279 228 255 156 104 106 105 108 108 122 142 162 165 168 166 166 189
101 160 166 160 104 52 73 92 131 370 453 461 454 447 408 396 344 315 324 377 403 376 359 340 336 210 249 202 237 123 125 108 103 103 119 121 154 148 145 155 148 174 183
109 183 170 149 132 73 84 153 312 405 435 407 432 422 424 351 301 304 363 381 388 367 318 283 322 261 247 191 117 131 129 109 105 113 112 126 130 136 144 147 159 175 181
157 220 200 148 126 103 133 232 338 397 409 462 460 394 347 290 293 324 333 363 390 386 253 320 319 326 201 118 129 146 131 130 137 136 134 122 125 123 129 144 152 164 178
153 158 140 147 66 103 185 283 392 418 429 430 341 310 290 276 317 373 361 406 359 294 249 290 301 141 116 118 136 126 134 133 141 140 133 130 116 114 139 175 184 190 191
192 87 64 120 115 159 195 270 322 344 342 343 307 259 277 339 378 383 404 371 318 301 313 176 139 112 112 132 140 134 137 136 129 121 121 119 122 133 130 142 143 153 176
140 99 66 80 208 257 297 294 280 323 305 289 272 292 365 451 470 420 296 272 354 258 186 158 117 125 114 119 134 142 126 119 113 106 122 137 145 162 159 148 134 132 123
175 223 184 239 283 306 282 234 257 273 280 287 355 435 501 398 266 239 300 224 158 116 69 111 119 99 100 118 128 134 119 110 106 118 130 133 125 147 163 182 186 173 133
88 150 157 153 175 195 223 246 299 324 341 318 317 331 246 262 278 270 228 133 118 124 92 81 105 103 88 88 100 106 97 113 111 110 109 125 149 136 126 179 184 153 121
57 91 121 173 217 197 239 281 243 285 332 273 273 240 189 180 238 195 100 53 42 83 92 95 88 68 76 61 74 79 95 97 104 110 125 115 140 132 116 141 138 114 79
125 120 129 154 163 134 162 104 5 97 107 88 129 105 113 104 61 26 24 63 76 89 87 97 98 100 81 73 74 73 86 81 93 102 126 142 117 98 91 90 111 85 64
63 110 136 119 93 61 50 80 46 14 25 43 36 61 13 -8 1 31 51 68 72 93 96 105 113 115 109 116 112 133 135 132 142 131 131 134 80 91 70 83 54 43 61
-45 -36 -18 -37 -63 -58 -43 -36 -47 3 -3 -16 -4 45 29 29 35 54 62 77 85 94 98 99 98 93 100 107 125 130 140 134 135 135 95 102 97 83 84 46 42 53 74
-8 -16 -26 -28 -42 -49 -54 -9 -33 -23 50 93 32 8 42 51 61 71 69 80 83 86 79 86 92 88 92 95 109 116 128 127 127 92 105 104 93 69 44 53 68 93 90
0 -11 -17 -37 -41 -21 12 8 18 57 50 17 23 52 68 69 70 71 70 72 53 64 71 67 70 76 95 112 127 123 114 108 102 112 104 91 80 62 67 67 78 92 100
53 51 19 19 0 24 19 9 21 43 60 64 54 48 53 60 65 66 69 80 79 77 72 74 86 94 106 119 118 92 88 126 113 112 87 75 53 55 52 63 76 105 92

GFSMW_con_3kmhel_054.txt.gz
Helicity
-10 65 105 101 103 55 65 166 186 242 296 350 351 351 271 251 232 243 235 239 276 271 269 302 329 291 276 246 230 222 177 156 133 153 147 117 105 89 70 58 65 71 82
20 41 55 91 111 115 123 105 175 205 316 324 372 447 346 316 266 284 258 243 319 349 322 352 349 315 312 284 244 217 190 166 169 171 175 149 118 113 99 90 88 98 120
-6 -10 36 46 73 103 110 112 125 173 195 271 374 561 581 461 434 322 290 276 336 465 396 377 414 389 356 290 247 220 189 191 199 205 169 152 104 97 111 126 141 145 159
88 85 75 48 63 78 95 111 126 127 149 230 357 379 395 458 388 364 393 401 358 469 418 433 450 406 374 317 277 237 208 204 197 205 197 175 139 112 111 118 140 173 172
57 73 139 154 128 137 145 156 129 132 149 196 260 332 380 433 544 526 471 470 469 430 474 462 504 456 420 382 326 279 241 209 205 204 192 173 165 153 149 129 135 154 157
30 29 31 36 55 87 113 153 183 162 124 177 227 266 407 495 526 531 532 532 536 498 467 498 515 491 454 424 326 285 265 231 252 194 214 178 141 125 133 137 137 138 138
84 65 65 73 94 120 131 128 123 132 122 127 192 273 375 431 442 485 551 567 558 531 484 520 513 508 437 404 372 352 311 241 251 201 231 147 141 131 139 145 136 149 132
167 127 78 96 116 134 157 157 138 118 91 98 137 238 345 463 496 517 526 532 568 600 571 538 495 483 456 441 393 365 328 214 267 227 210 150 137 133 132 138 154 142 158
162 134 104 116 112 121 123 115 110 84 65 85 167 300 379 437 503 543 576 614 635 612 550 475 464 456 460 422 397 323 305 282 207 248 160 139 125 131 134 151 152 157 146
57 75 109 146 145 108 108 88 78 45 42 120 262 310 399 489 519 535 530 490 512 502 460 435 404 430 421 419 354 338 269 212 221 214 171 98 115 124 138 143 171 202 190
36 83 67 97 204 191 155 105 81 41 84 224 293 338 397 481 497 453 462 412 434 418 389 384 408 387 392 343 366 373 246 231 269 179 128 119 115 122 132 159 199 180 200
75 70 57 78 150 161 145 107 61 49 164 262 327 367 386 389 413 361 371 378 384 366 390 401 421 403 323 384 261 299 275 161 92 99 85 95 115 122 140 182 156 182 188
75 83 70 104 169 122 114 75 69 123 209 298 329 336 298 300 296 340 335 325 339 380 409 433 408 331 357 287 282 223 208 231 181 123 103 129 142 155 177 163 165 177 182
108 98 132 150 227 205 57 67 115 195 244 301 331 319 265 253 259 235 266 290 363 419 455 466 444 410 299 311 343 309 206 139 107 150 152 157 161 142 140 145 145 153 162
5 68 127 91 95 172 86 81 124 204 261 293 337 303 292 305 302 334 346 395 456 488 482 393 364 309 262 244 210 146 149 141 159 167 168 159 146 119 126 152 145 169 193
17 99 108 95 98 91 77 114 148 191 246 292 315 336 348 368 344 393 414 488 521 544 375 388 193 212 118 105 120 151 168 163 146 145 160 156 155 172 169 162 165 170 202
11 147 155 122 105 107 144 191 233 309 359 297 317 342 355 301 411 398 462 452 424 303 305 193 152 135 129 111 121 139 152 134 136 143 146 150 145 150 162 167 177 184 164
48 90 135 185 162 154 193 214 190 192 256 250 355 262 251 325 359 367 355 372 329 298 170 109 84 84 70 75 97 115 112 129 122 114 114 121 131 145 154 177 201 202 174
58 79 110 143 174 165 137 154 157 210 215 183 189 219 215 334 295 325 325 307 171 128 92 73 72 47 66 74 74 105 110 109 104 100 123 124 131 142 135 175 193 177 149
66 69 89 117 126 121 135 103 108 125 119 111 117 168 229 246 220 173 129 114 77 58 35 18 29 75 80 59 75 87 85 89 107 121 119 132 149 128 112 167 177 154 117
76 50 74 97 60 49 78 150 138 18 82 123 154 151 154 101 72 47 63 46 8 19 46 82 101 130 115 99 100 116 118 110 99 99 115 135 120 120 141 135 146 112 79
71 40 72 84 60 47 88 58 65 44 44 16 12 18 10 9 14 16 -13 -2 20 41 77 94 112 117 114 132 141 147 143 138 121 108 125 138 109 131 117 120 75 48 71
-12 -32 -23 -6 5 -2 -5 13 -39 -31 -25 -8 3 -4 -5 -16 -1 25 44 60 67 81 91 96 101 104 117 122 134 135 129 120 130 133 115 142 125 109 98 59 52 60 76
-22 -24 -39 -48 -44 -62 -47 -23 -35 -36 -23 -9 -3 0 13 26 33 42 50 64 76 79 79 92 105 105 108 110 114 120 135 135 135 118 142 121 95 74 52 53 66 81 78
-25 -38 -28 -29 -34 -28 -27 -47 -56 -28 6 -5 -8 5 22 38 55 65 57 61 61 75 85 87 88 94 108 125 158 161 152 138 131 134 95 85 85 72 60 65 69 81 87
-15 -25 -23 -31 -34 -20 -27 -40 -35 -2 31 26 23 29 40 44 49 61 82 94 88 88 84 93 93 114 121 174 172 163 155 155 110 102 74 75 65 48 46 47 67 90 71

GFSMW_con_3kmhel_057.txt.gz
Helicity
-20 -11 30 66 93 173 170 200 216 192 276 356 310 255 226 255 226 188 171 197 195 202 205 214 222 265 275 224 237 221 178 165 146 151 138 137 135 130 113 100 98 106 107
30 24 43 67 83 127 188 163 158 141 240 292 307 354 295 258 253 230 217 225 236 246 253 264 257 281 321 299 282 251 234 197 164 148 157 139 143 160 147 129 117 117 128
31 13 28 49 74 98 143 195 156 137 160 209 298 430 461 434 361 303 211 222 299 291 295 265 320 323 325 342 301 286 257 246 206 166 173 174 139 148 158 160 154 150 171
88 100 101 66 53 74 102 116 145 163 175 176 312 329 368 369 367 309 239 268 341 372 363 330 340 382 416 406 338 300 304 287 243 225 205 214 191 170 155 162 161 176 184
91 85 83 93 102 100 121 112 123 137 128 129 201 281 319 329 405 439 358 409 415 371 392 401 394 409 439 408 376 333 299 301 268 250 219 225 233 201 222 163 158 158 147
212 130 100 102 114 99 94 127 164 163 151 152 179 207 234 363 407 425 423 429 448 447 425 429 412 381 396 412 400 331 282 309 283 263 242 216 212 206 228 212 177 159 164
226 235 186 133 110 89 75 84 89 107 162 165 149 155 204 252 294 354 383 453 501 480 427 489 461 425 403 439 415 344 345 324 314 291 275 265 229 217 231 202 176 156 154
89 106 135 112 85 81 86 104 102 98 85 81 77 94 155 211 276 307 363 379 408 466 481 497 511 465 418 444 398 358 379 378 380 322 292 248 221 211 203 157 153 174 171
71 45 35 67 86 96 84 84 101 97 84 78 60 69 148 220 244 305 384 444 458 494 531 508 493 468 450 404 385 404 409 434 395 335 295 245 193 184 175 156 137 130 162
-6 32 27 18 77 116 116 135 135 131 129 105 80 105 160 229 287 345 408 442 463 469 497 505 465 459 398 354 398 431 441 417 417 283 333 262 187 223 225 176 139 151 148
-53 -4 49 22 34 113 137 133 158 148 145 109 103 135 215 273 305 344 396 391 416 403 430 432 403 400 390 390 423 416 415 445 340 379 310 197 216 153 127 147 166 147 186
43 45 63 91 117 132 180 188 152 188 163 104 119 185 249 260 289 322 338 377 363 353 373 349 394 441 437 413 421 378 364 314 309 386 255 273 140 195 163 140 151 151 159
22 32 45 61 90 136 172 178 167 136 129 116 116 136 181 209 221 257 259 282 307 326 367 414 489 525 467 432 374 356 346 304 269 265 238 152 177 139 133 130 141 153 164
14 28 45 47 76 68 130 132 203 141 37 69 90 130 168 171 220 255 251 255 287 357 409 451 467 431 426 399 376 384 286 294 177 142 173 145 130 125 143 148 135 152 172
-19 -0 23 61 69 77 74 50 55 7 51 88 116 147 176 187 219 237 268 319 374 417 449 505 521 490 451 337 411 322 287 126 84 88 122 122 141 134 128 147 150 159 175
-26 30 53 71 84 60 81 85 79 61 92 137 193 205 260 300 335 378 363 406 401 452 480 487 428 392 365 337 268 221 92 99 97 87 112 124 154 163 163 150 147 165 190
15 28 50 55 72 73 45 69 105 151 180 246 285 293 275 324 366 342 366 382 457 437 422 400 329 322 242 135 117 84 87 84 93 118 131 130 143 154 145 136 138 155 143
44 30 39 51 50 61 74 79 80 125 179 181 204 199 201 245 233 297 366 355 277 285 270 232 204 142 74 32 47 60 80 108 114 109 116 115 110 113 113 138 168 184 163
65 40 39 52 56 55 58 80 86 70 112 66 58 38 104 159 159 265 197 192 203 175 199 157 78 9 10 43 62 84 85 87 108 101 105 102 107 95 112 157 171 156 144
99 19 41 48 47 54 56 63 47 64 108 76 91 141 146 114 90 68 112 92 75 95 95 26 3 37 65 62 85 73 86 98 108 119 111 103 125 116 109 161 162 143 117
104 53 46 62 68 55 56 78 85 109 77 81 106 115 86 57 105 78 36 43 42 21 -5 33 73 98 106 100 118 145 113 103 104 109 123 136 121 104 120 112 139 107 81
43 35 33 47 13 18 69 12 14 9 68 51 64 20 -11 20 8 23 10 2 1 35 46 59 85 95 103 116 129 136 147 145 134 126 137 132 92 101 98 108 76 65 68
8 -5 -10 6 -10 8 -9 -29 -56 -37 -31 -27 -11 -6 -12 -10 -17 -3 6 18 30 42 53 61 68 77 88 105 143 165 165 157 161 134 118 123 110 107 107 85 71 58 59
-27 -45 -35 -36 -28 -25 -26 -36 -36 -28 -17 -17 -19 -13 5 4 3 11 12 30 36 44 50 64 78 94 124 141 145 151 162 150 147 135 127 120 109 91 77 63 52 62 71
-18 -40 -32 -24 -21 -17 -19 -27 -21 -21 -13 -10 -8 -0 5 15 28 36 32 41 43 54 66 81 101 115 136 158 171 171 169 163 138 147 108 102 94 86 62 61 69 76 78
-11 -12 -25 -29 -33 -16 -18 -22 -24 -4 17 11 2 7 20 28 34 45 61 73 74 77 101 121 140 148 134 158 175 183 185 176 136 120 82 71 63 41 40 50 68 83 69

GFSMW_con_3kmhel_060.txt.gz
Helicity
49 73 100 104 136 150 201 205 243 229 279 283 244 210 187 192 187 192 169 193 167 185 143 150 160 200 216 200 217 248 217 200 185 192 154 133 123 121 120 127 132 126 128
49 61 90 102 117 148 155 194 208 224 274 288 272 271 206 193 196 214 216 227 225 226 202 187 189 217 242 248 276 291 267 223 183 178 179 136 135 153 165 161 143 140 150
24 32 40 68 90 124 131 137 115 157 244 273 312 404 352 312 234 212 221 230 253 271 231 260 256 231 259 267 293 309 294 278 214 188 180 162 133 153 166 171 166 170 176
112 109 130 149 143 130 124 142 135 118 156 215 297 302 292 279 275 265 242 266 328 293 288 284 277 287 293 299 355 366 339 270 232 205 193 240 204 177 167 184 186 182 191
199 217 177 154 165 167 145 146 142 151 136 174 196 222 230 258 298 261 244 273 336 328 325 300 336 345 344 353 369 383 345 294 276 279 232 249 258 251 257 218 179 181 171
236 226 187 175 173 169 170 164 157 145 155 163 174 190 182 257 311 312 309 334 366 392 362 338 332 369 384 389 381 369 334 313 280 291 277 267 272 261 273 296 259 234 200
184 182 194 184 172 177 159 135 142 152 123 107 126 145 165 234 231 255 263 299 322 362 341 372 410 406 412 389 406 372 358 323 295 299 305 300 317 272 301 325 251 251 251
61 78 102 128 130 118 120 127 140 135 112 105 89 88 105 164 186 211 230 252 265 269 367 406 408 447 448 432 415 398 362 333 308 328 323 355 290 339 260 297 260 285 243
12 -0 13 22 54 87 95 71 90 106 108 98 87 86 86 113 129 156 215 268 286 315 320 388 477 428 402 399 387 393 371 365 400 403 382 353 366 357 334 304 268 221 194
-0 1 10 12 19 25 44 76 89 97 120 134 127 129 116 118 146 194 220 286 318 314 328 383 422 437 416 382 382 375 388 417 436 440 392 480 355 422 397 363 335 237 213
-24 -3 5 1 -2 27 65 90 128 174 210 193 171 160 148 138 148 185 235 271 296 294 303 324 357 372 392 381 393 403 426 437 445 451 428 326 361 273 242 259 194 181 160
-16 -21 -8 24 43 67 61 105 181 206 219 227 213 196 155 119 159 196 235 239 246 246 279 316 352 386 404 408 418 454 457 419 395 403 339 337 304 239 170 141 95 121 144
-4 3 31 51 61 76 86 131 178 213 220 198 161 133 116 133 153 187 180 189 204 222 254 317 359 384 424 466 477 485 474 404 398 306 318 283 218 153 102 81 115 114 129
-5 -4 23 52 54 44 36 68 100 117 109 84 62 42 86 141 145 163 169 212 258 316 318 365 406 454 510 547 586 536 441 401 279 263 235 203 119 73 89 104 107 134 131
-29 -28 35 28 44 54 60 49 46 47 34 -17 -9 56 148 172 209 235 261 277 284 306 348 431 471 493 467 439 412 417 253 256 255 206 126 76 27 56 104 133 123 113 133
-39 14 32 48 64 68 29 12 21 29 41 65 121 156 195 226 245 257 257 257 346 337 383 410 441 431 415 378 239 265 265 196 113 88 70 91 117 134 106 111 121 116 136
24 26 55 45 74 38 11 26 45 53 58 78 105 127 144 198 197 224 255 230 239 250 312 311 308 323 225 144 182 135 118 59 43 65 92 111 97 109 105 106 128 144 120
37 41 60 61 59 32 23 11 -6 -1 40 112 52 82 108 133 124 171 149 241 245 262 232 218 225 185 152 139 118 66 38 73 90 91 75 80 99 102 103 119 132 126 114
83 61 44 50 35 39 36 24 29 34 59 44 18 67 96 77 138 199 153 147 191 203 155 180 136 91 53 66 45 32 65 66 83 89 102 90 99 102 110 126 117 112 128
103 38 28 44 35 22 15 27 25 48 48 10 -12 6 90 145 119 110 120 131 119 143 122 75 29 29 33 13 48 77 68 78 99 107 107 101 100 88 95 147 150 138 113
60 51 30 33 34 22 47 44 16 38 22 31 39 54 116 111 46 52 21 16 15 23 38 31 31 57 73 97 99 83 70 78 99 100 110 122 133 140 143 124 130 88 60
30 39 21 32 30 30 26 28 24 26 31 23 23 17 -4 -14 -16 1 3 6 3 8 14 36 55 62 70 81 95 110 121 119 120 141 149 150 150 135 114 96 52 38 51
17 8 -4 2 -11 -12 -20 -25 -35 -36 -28 -28 -20 -22 -18 -18 -19 -8 -8 4 11 21 22 31 37 47 60 85 123 140 154 158 174 167 186 156 120 93 79 54 49 42 47
-19 -16 -19 -17 -0 -3 -33 -30 -46 -32 -16 -9 -12 -17 -7 -4 -0 8 11 18 20 27 34 47 57 62 79 104 126 147 159 186 194 168 136 97 75 52 40 43 38 50 57
-6 -13 -2 -8 2 -1 -11 -30 -26 -28 -5 -0 -4 -4 3 16 28 25 16 22 14 27 42 54 74 94 108 127 167 183 177 165 123 128 78 48 37 37 36 48 62 67 65
-3 7 7 -6 -3 4 1 -18 -24 3 10 10 5 9 17 17 18 22 31 53 65 80 84 84 96 115 133 137 165 165 137 105 65 54 17 17 13 16 42 56 69 80 69

GFSMW_con_3kmhel_066.txt.gz
Helicity
103 124 130 134 127 152 161 142 125 91 107 150 185 186 185 166 173 155 93 93 101 95 98 99 87 95 115 120 120 119 135 155 163 169 159 132 113 108 112 113 104 114 120
83 107 113 128 141 147 155 172 175 155 150 172 166 161 153 175 153 147 123 106 91 92 125 113 120 112 117 124 139 159 191 167 188 190 177 169 138 123 121 127 122 119 136
107 115 142 153 163 167 190 211 210 202 199 184 197 217 224 221 197 206 168 136 118 106 117 124 151 154 159 183 177 196 201 239 203 208 224 237 187 184 156 138 139 141 155
146 151 172 192 204 199 199 199 218 222 227 223 243 242 253 263 253 209 167 149 118 141 122 123 144 177 235 235 254 275 249 253 266 276 235 282 295 201 181 165 139 154 153
174 184 193 194 198 217 225 198 177 176 171 173 176 174 159 162 157 156 159 137 131 139 155 153 152 177 220 208 257 320 297 314 282 323 356 259 247 249 274 219 212 203 207
178 166 163 163 164 151 145 147 156 168 196 193 180 149 121 116 135 131 131 133 145 166 158 187 196 215 239 206 248 266 291 335 323 298 314 346 336 314 292 272 296 211 202
170 155 156 146 147 149 141 123 124 122 125 134 155 164 140 123 122 110 116 111 134 172 163 155 173 215 239 264 256 260 272 324 338 340 347 332 304 290 282 316 345 301 296
117 127 134 123 106 102 103 116 132 131 123 123 129 128 136 153 158 155 169 170 161 147 128 139 145 155 177 229 251 269 262 273 318 291 326 385 344 310 324 327 337 321 331
66 66 71 77 77 98 107 107 113 128 149 154 155 160 156 144 139 138 149 163 166 176 157 151 144 173 195 218 231 270 263 250 323 404 404 355 388 396 409 389 409 331 354
47 35 33 47 65 80 98 123 150 161 169 191 189 192 195 184 170 161 159 153 154 149 136 141 139 158 187 210 233 280 301 305 340 379 478 442 409 390 372 407 447 465 440
34 23 34 47 62 80 107 137 164 168 175 196 218 236 250 266 261 260 246 222 190 158 133 123 122 110 123 168 248 321 355 360 394 384 465 459 404 347 393 392 373 363 375
3 -1 27 42 66 97 113 117 123 134 140 145 177 208 225 226 223 214 204 189 172 143 123 109 124 141 155 174 219 280 318 356 387 390 387 388 353 366 349 329 305 317 261
-18 -9 15 36 75 87 82 88 101 103 114 131 132 148 174 190 201 187 158 160 169 174 167 158 148 170 190 216 279 333 402 421 410 371 364 326 286 283 248 224 234 219 208
-8 12 -1 28 64 65 65 66 75 76 76 99 127 138 144 134 121 98 105 139 162 172 195 208 223 229 244 282 335 382 425 425 383 330 310 279 266 235 237 198 191 141 116
10 30 19 36 61 61 55 59 78 74 64 91 111 87 87 103 123 124 128 155 168 184 218 246 257 283 304 315 354 344 345 339 327 326 295 245 246 203 165 135 116 127 131
24 37 38 45 70 63 55 59 46 33 34 61 47 75 89 82 101 122 125 150 170 177 206 266 322 343 376 326 336 244 243 260 242 229 235 212 138 105 111 103 85 100 111
18 31 37 62 66 61 52 37 37 24 13 44 72 75 79 71 92 92 95 137 174 211 287 343 313 302 253 197 182 189 191 208 166 165 147 92 82 70 80 77 88 95 99
5 19 39 68 66 45 49 39 41 27 29 59 76 75 86 45 51 60 103 125 116 131 143 162 184 167 114 171 147 118 117 110 86 73 82 89 92 82 90 87 95 111 123
20 42 94 59 48 42 43 48 44 45 48 55 51 54 36 43 48 79 72 87 122 115 94 78 51 52 32 28 31 28 46 37 41 73 80 101 98 92 84 123 140 135 137
11 49 57 45 36 37 32 53 55 42 59 49 44 46 62 44 53 38 55 60 53 62 35 45 10 19 22 24 40 41 23 35 54 78 96 104 115 140 153 137 124 109 89
39 59 45 36 39 38 53 63 63 84 47 50 61 45 36 39 34 16 7 7 12 16 18 23 23 25 20 33 44 55 69 89 100 110 125 137 134 131 120 90 54 18 1
60 43 30 44 48 53 51 59 77 62 55 57 56 41 14 -4 0 12 -5 2 8 15 16 20 21 26 40 60 69 82 94 103 109 123 128 123 106 79 34 -2 -6 -8 3
16 7 15 29 34 32 22 35 27 24 28 23 12 8 6 1 -5 6 11 10 6 6 9 14 24 35 47 68 91 95 104 124 119 114 101 75 46 4 -10 -11 -4 5 24
15 20 17 17 19 10 9 -3 -10 -2 4 17 16 7 14 15 10 5 3 5 4 11 20 31 40 50 59 73 89 94 101 106 94 88 69 53 11 -12 -12 -6 8 21 27
16 11 15 21 25 18 14 -5 4 3 13 21 16 20 21 25 26 18 12 17 20 23 37 45 51 56 68 87 100 96 93 99 89 70 53 23 2 8 5 5 12 18 24
23 24 37 48 41 42 37 21 11 9 19 36 29 28 31 27 28 30 36 56 59 61 63 55 52 59 64 90 107 97 97 89 81 70 57 39 33 23 12 13 17 22 26

GFSMW_con_3kmhel_069.txt.gz
Helicity
79 76 83 142 123 126 134 131 133 122 125 129 146 171 172 154 135 139 113 115 118 104 104 120 114 132 138 196 150 152 149 153 165 192 204 193 155 150 153 145 153 151 147
97 112 84 101 115 91 104 141 144 118 118 134 158 127 133 168 171 187 173 156 138 148 151 133 138 135 159 165 182 143 196 181 213 276 222 203 179 161 171 178 177 169 176
114 95 106 94 114 129 130 140 129 147 142 156 174 152 97 128 153 203 184 153 151 179 182 184 184 161 161 176 204 192 210 239 247 250 322 263 238 208 173 198 203 187 208
86 101 124 127 132 174 205 212 239 233 217 221 239 251 232 221 240 207 185 165 157 144 179 179 182 181 189 188 197 232 267 281 286 279 229 333 344 239 218 189 181 200 221
137 130 139 152 158 162 166 163 155 156 164 197 222 251 262 266 217 191 148 152 121 108 140 162 176 173 207 190 212 222 271 312 307 346 385 306 303 316 338 291 239 233 232
143 139 146 159 168 172 174 170 157 140 134 144 152 168 188 181 178 156 147 134 146 157 121 127 131 169 216 228 242 261 280 315 300 337 346 385 398 376 397 356 342 294 258
149 144 138 131 136 145 145 132 133 123 113 105 92 108 139 145 147 144 138 133 151 163 160 132 121 141 183 237 259 248 307 316 331 342 366 383 386 429 348 366 390 414 396
137 128 120 113 101 103 110 116 115 110 114 112 111 107 113 135 159 144 155 170 164 161 134 138 130 132 144 183 235 268 284 297 269 270 326 409 455 457 450 393 425 553 446
98 93 87 86 84 82 83 96 115 120 131 142 145 147 141 137 136 144 147 152 162 192 228 172 147 149 154 162 186 236 264 285 267 301 464 521 440 429 486 608 597 331 244
74 70 62 60 68 85 97 105 121 131 142 171 196 214 225 229 227 206 206 212 199 203 194 172 178 156 142 149 171 222 252 313 384 407 424 407 383 388 400 366 424 416 247
72 56 37 33 55 76 101 116 134 148 160 166 166 184 210 224 235 251 260 250 223 220 192 166 145 135 131 140 202 236 277 329 350 358 351 360 343 332 318 304 259 262 203
44 20 14 22 40 70 99 123 140 143 136 136 140 163 180 214 243 253 262 264 271 274 269 231 189 173 150 147 140 156 180 203 243 271 313 319 310 261 260 191 210 215 247
-3 -10 -13 -1 17 66 92 103 105 105 109 122 138 153 163 160 189 209 204 187 181 189 207 214 204 196 203 194 168 164 194 212 227 250 298 288 262 242 211 219 158 171 199
-25 -22 -24 4 18 60 73 72 77 85 90 91 99 115 132 142 146 150 142 129 106 123 136 158 156 170 179 210 228 225 243 275 308 371 364 291 267 222 237 183 195 174 146
-9 4 9 33 13 58 71 77 83 87 79 73 78 80 88 88 114 139 148 129 137 154 169 155 171 163 177 191 232 248 287 300 334 341 296 211 178 172 168 182 126 171 137
20 21 23 54 60 58 65 68 69 72 57 49 70 82 81 92 104 94 106 108 95 118 142 158 202 180 191 240 260 269 278 285 272 224 164 134 176 164 188 155 135 101 64
26 27 20 52 80 62 69 70 79 64 60 64 75 66 56 90 102 96 81 87 99 150 155 200 227 245 236 225 212 231 238 243 131 173 94 118 87 85 65 67 89 94 95
44 43 34 58 91 61 75 68 71 64 59 61 64 51 53 74 57 70 85 118 112 108 104 98 107 106 90 134 147 133 114 71 68 53 40 17 21 69 84 86 91 110 117
45 63 56 83 94 56 60 66 56 67 65 57 57 53 55 53 79 112 116 105 107 83 61 48 45 40 41 51 52 40 20 19 23 24 29 49 73 99 103 108 131 148 149
62 60 56 73 51 55 53 53 61 72 67 54 52 45 55 56 63 50 54 26 21 16 16 8 14 29 29 30 35 27 24 28 46 75 93 120 126 133 145 141 133 129 82
71 63 47 53 57 48 44 65 69 97 60 50 46 48 43 43 34 27 15 8 6 1 1 5 7 21 34 45 62 78 87 96 100 103 119 129 140 132 123 110 79 47 9
51 62 65 55 50 53 63 61 79 80 64 42 45 36 21 15 17 20 2 4 2 7 11 17 24 35 55 66 80 84 90 97 109 125 131 131 117 95 75 46 15 7 16
40 21 29 46 48 44 37 54 50 37 35 26 14 14 24 25 16 16 14 13 9 14 23 25 34 45 50 62 68 81 87 103 107 118 111 85 75 61 34 20 17 18 30
36 24 35 30 33 8 7 18 17 11 5 9 17 28 35 34 29 17 11 18 20 23 24 30 36 49 53 59 67 78 89 94 95 107 89 86 69 51 32 31 33 36 35
42 24 16 7 11 5 3 4 -0 13 21 30 35 37 33 39 39 39 35 30 34 37 43 54 55 55 71 92 91 89 90 98 93 85 86 90 91 80 60 53 42 40 39
43 25 12 20 23 17 18 19 16 27 42 46 44 36 34 34 37 46 59 80 66 68 75 72 72 69 77 88 81 69 71 74 87 90 100 107 102 88 74 61 50 43 39

GFSMW_con_3kmhel_072.txt.gz
Helicity
83 73 78 91 92 129 123 138 172 167 184 162 221 203 151 118 123 157 133 141 167 194 185 189 164 170 188 234 215 215 203 220 238 256 264 253 187 177 192 190 196 218 222
90 87 127 137 154 188 183 167 173 168 171 199 221 231 201 161 137 137 161 188 206 210 245 231 213 188 207 271 242 238 254 233 262 294 307 246 232 190 192 210 217 227 258
165 216 242 189 165 170 183 168 148 152 179 162 190 237 197 167 171 160 152 118 167 216 225 241 243 227 230 229 286 266 259 248 273 309 319 223 228 222 203 200 227 257 306
95 133 146 119 129 163 186 189 210 233 256 245 226 257 234 227 200 164 135 139 142 155 165 243 237 248 245 235 246 290 295 351 316 336 253 272 268 233 227 216 207 233 280
115 137 124 91 85 117 146 161 154 162 195 245 282 271 291 272 209 200 139 115 114 109 117 147 198 223 231 223 209 242 277 312 396 409 408 254 274 313 323 288 294 291 290
129 112 112 103 115 150 167 184 162 162 162 159 161 163 161 193 250 262 235 161 122 140 157 123 108 150 201 226 188 194 231 278 347 432 424 427 387 333 391 379 376 335 362
131 127 145 132 143 151 175 168 188 165 171 161 130 125 127 150 177 223 199 165 153 153 148 146 125 144 141 174 207 208 241 267 325 354 404 396 363 370 351 383 404 435 513
149 149 141 133 111 114 122 133 139 133 138 146 146 142 122 118 140 179 202 181 170 173 155 170 177 151 144 148 154 186 218 238 267 307 353 379 371 400 417 368 391 410 513
139 139 125 120 115 114 103 104 121 108 106 125 129 158 168 172 166 177 190 213 224 235 252 262 210 161 141 131 131 162 186 230 267 293 357 422 463 437 400 391 372 376 331
119 107 100 92 102 94 98 99 110 108 110 117 116 137 157 166 180 211 238 261 263 261 240 222 212 215 202 184 173 165 178 219 270 301 346 378 379 385 362 340 326 330 322
127 104 89 75 65 65 82 93 110 114 131 150 157 206 231 231 246 246 251 262 290 269 294 251 248 233 221 196 159 164 183 203 227 250 271 292 277 279 266 252 247 237 235
106 84 77 55 52 57 84 93 114 120 139 161 167 205 220 243 241 243 242 247 244 248 260 266 241 226 205 193 199 212 220 222 235 237 242 236 232 249 232 211 206 169 185
60 43 39 40 40 48 61 86 106 111 116 125 136 176 201 200 196 175 167 183 171 173 185 174 169 163 168 163 166 185 218 237 224 221 215 211 214 243 222 191 188 184 140
34 30 42 30 36 52 53 92 95 90 84 101 123 136 138 134 135 140 134 127 110 102 119 136 157 164 187 184 177 183 218 240 251 262 268 259 216 195 194 217 126 96 140
37 30 50 43 41 49 51 70 72 80 89 99 99 90 92 105 114 120 130 134 137 152 143 135 168 151 155 158 157 171 173 189 218 215 214 190 201 216 165 153 91 77 98
62 74 79 63 58 63 50 59 73 83 91 94 81 80 86 88 110 119 118 111 130 125 129 172 165 159 140 123 155 156 138 180 199 209 212 185 221 208 241 114 87 75 45
81 73 64 65 84 75 68 68 80 92 92 87 92 86 98 119 142 121 86 91 90 96 99 125 106 110 88 109 119 149 129 142 168 159 130 109 112 77 61 14 27 82 82
79 100 123 110 92 88 103 108 105 95 112 112 91 92 106 100 96 89 67 76 91 89 92 75 58 50 35 55 65 72 48 50 53 57 42 21 32 36 21 75 74 74 91
85 112 119 105 106 123 138 105 92 94 97 94 95 88 75 70 69 67 55 66 72 65 58 35 14 17 6 29 39 39 38 50 58 62 68 72 72 109 126 130 132 126 134
131 154 136 90 92 109 78 93 103 113 112 76 80 73 56 50 34 11 14 19 23 20 8 -16 -8 14 5 35 37 54 55 69 82 89 112 138 142 140 136 143 139 123 100
142 128 94 68 88 67 82 97 97 95 77 68 68 54 23 18 8 -3 -3 4 -9 -18 -13 4 6 10 27 36 60 73 81 93 99 111 116 115 128 125 120 114 106 81 46
95 92 112 100 77 74 88 90 94 82 73 53 46 32 5 -13 -10 -2 -2 3 4 9 11 19 21 26 41 62 60 72 85 102 106 113 127 129 99 93 89 91 71 41 33
59 71 54 63 57 66 68 77 75 67 60 44 26 6 -7 -16 -25 2 5 1 6 20 28 28 31 32 42 46 56 61 70 78 84 91 85 89 89 93 95 81 58 46 54
88 62 64 70 45 41 37 41 33 30 20 0 -4 -9 4 20 27 20 16 24 31 40 33 34 43 39 40 57 74 80 90 95 102 90 78 77 83 84 86 79 61 59 60
85 63 87 54 33 31 27 19 0 -19 -12 -7 12 26 24 33 54 68 50 55 44 39 53 52 56 65 76 67 73 66 65 68 59 59 76 89 100 108 116 105 82 71 68
93 65 63 52 33 33 15 -2 -27 -26 13 29 35 35 39 45 53 66 83 68 59 71 79 74 66 51 66 76 69 56 53 50 50 72 77 91 104 117 118 112 100 88 78

GFSMW_con_3kmhel_078.txt.gz
Helicity
125 103 98 69 101 102 83 108 121 122 154 175 184 199 186 184 148 114 119 108 128 142 151 155 163 191 189 186 195 213 183 172 202 241 220 200 180 174 207 228 241 230 222
72 103 136 172 178 174 162 132 133 147 154 175 179 191 190 173 173 165 153 140 134 146 153 168 172 191 208 181 194 231 224 206 263 280 286 225 207 221 226 254 261 249 277
90 136 253 249 248 235 222 218 192 154 136 146 173 200 207 208 187 181 185 169 172 170 167 170 200 199 212 206 216 233 253 213 270 315 307 265 224 177 147 167 230 247 262
166 151 179 231 245 245 245 233 203 204 213 199 154 160 157 163 167 172 172 163 161 179 194 189 201 196 226 221 224 264 300 338 270 295 235 340 327 259 212 183 140 142 195
181 177 174 169 165 181 188 184 184 196 179 176 225 203 195 191 178 165 170 162 173 173 174 171 162 163 192 197 210 248 267 256 248 309 283 289 361 384 320 217 236 207 235
184 149 116 125 187 211 216 217 221 243 266 241 227 212 223 222 221 210 193 155 144 150 143 164 177 155 162 177 162 154 171 186 182 196 236 257 282 281 356 342 321 313 304
210 148 93 92 139 188 213 202 207 237 241 240 248 227 194 183 181 191 181 167 166 170 132 142 100 108 112 152 165 151 127 122 153 144 168 196 198 263 277 232 324 329 311
175 115 77 133 163 189 196 186 193 199 203 199 203 199 201 188 188 188 188 214 224 224 240 222 174 143 140 166 189 161 139 136 138 149 164 189 202 255 262 276 315 308 283
184 152 147 164 174 170 172 155 147 148 156 154 145 162 167 172 171 181 185 199 224 236 249 250 255 258 227 205 167 160 166 177 177 183 192 189 208 226 237 268 289 298 269
183 167 167 163 149 127 126 123 110 112 118 128 133 142 162 171 171 179 193 202 212 213 210 217 214 204 212 204 212 199 194 190 168 179 199 218 213 208 231 236 233 223 222
135 127 132 132 118 105 98 98 101 99 109 118 128 148 164 171 178 190 206 219 237 249 244 233 228 213 207 201 193 188 173 172 190 216 207 199 191 207 220 230 238 222 171
114 111 108 104 100 89 84 80 79 88 95 103 119 136 148 159 173 188 199 203 219 241 227 213 207 203 196 193 185 157 162 170 187 191 194 168 162 199 190 181 193 175 157
130 117 107 90 80 77 69 61 55 62 86 104 118 134 143 151 165 177 188 198 194 199 201 190 170 164 164 167 158 153 191 204 199 171 161 143 160 185 159 161 161 158 155
107 108 102 87 77 66 58 56 61 66 83 110 124 133 133 131 140 157 178 187 179 169 162 160 151 153 152 137 139 176 186 197 169 153 151 139 163 160 157 158 160 161 149
94 99 101 84 82 80 81 76 77 76 83 105 115 115 106 123 143 166 165 160 166 154 139 144 142 134 123 101 151 153 165 157 154 150 134 126 127 141 127 100 114 139 153
81 81 96 96 88 84 82 85 81 82 84 96 89 79 89 105 120 129 131 147 154 164 150 148 119 117 130 141 122 93 93 86 84 75 70 87 89 90 110 111 109 110 103
101 107 113 109 110 107 101 90 92 85 89 90 79 73 80 102 109 114 129 146 151 140 138 135 138 153 115 87 84 80 41 31 35 45 52 69 80 96 105 113 126 124 128
110 130 162 163 151 144 153 139 114 92 90 93 77 70 83 101 117 130 130 131 115 111 114 149 155 129 72 62 47 42 32 46 53 54 64 81 94 99 128 144 147 148 148
118 160 183 196 198 182 176 169 138 113 108 108 88 73 81 107 101 113 104 93 90 106 120 97 81 69 41 45 39 36 35 43 54 62 70 94 107 123 130 139 150 153 156
146 170 201 213 181 167 175 159 134 102 106 98 79 76 91 92 93 96 83 82 68 61 48 51 40 36 34 29 35 34 30 43 48 54 67 83 98 104 100 115 116 120 121
143 180 190 163 162 180 160 134 120 97 97 95 86 95 89 77 83 78 59 44 36 35 35 38 33 36 37 38 43 44 41 42 50 57 60 63 74 70 75 91 96 93 102
149 147 141 142 161 179 141 121 99 96 100 93 92 99 80 64 47 33 14 18 25 39 35 35 34 28 30 34 36 37 43 45 49 51 48 46 45 58 62 82 76 84 110
108 110 106 129 127 118 110 97 92 106 109 96 87 69 56 39 18 3 11 21 23 29 33 37 37 29 27 25 29 33 35 38 49 47 36 37 44 56 70 83 84 114 113
87 83 106 116 113 91 81 79 106 112 97 78 48 43 44 19 -2 0 9 18 22 33 37 43 43 42 37 34 39 44 45 46 49 44 43 44 58 75 86 99 107 114 118
105 90 96 99 98 101 93 108 116 111 78 54 49 31 12 13 9 6 9 21 20 36 47 40 53 65 51 42 43 44 41 41 35 59 56 66 79 89 101 109 112 120 130
117 88 76 90 88 87 75 79 75 60 40 47 27 14 17 19 25 39 60 38 34 32 35 46 60 45 41 46 50 43 39 35 37 66 66 68 76 86 100 111 118 128 138

GFSMW_con_3kmhel_081.txt.gz
Helicity
80 82 73 62 63 63 56 76 114 134 209 208 192 180 160 154 135 129 108 99 120 135 156 156 159 159 160 158 172 194 170 156 188 186 167 149 145 162 177 187 205 224 238
56 80 118 103 86 99 62 64 90 153 172 195 195 197 168 148 163 161 150 115 130 162 165 160 155 178 188 176 188 233 225 209 235 228 245 195 174 173 164 206 209 208 223
102 111 114 144 170 168 136 120 102 101 123 139 190 193 201 202 197 187 175 138 136 135 144 144 165 180 203 191 212 241 243 199 204 261 268 216 180 177 134 116 116 128 159
135 160 125 140 203 241 227 187 176 165 148 135 155 168 182 176 159 158 169 158 157 150 157 162 180 192 223 214 212 215 215 241 207 267 208 259 268 196 182 169 141 125 138
129 127 124 139 198 228 227 208 193 203 202 182 155 144 154 164 174 161 147 144 149 150 160 166 163 163 183 181 188 198 204 218 208 244 224 232 274 287 267 188 211 221 210
152 156 174 194 222 225 201 179 184 187 182 177 183 160 146 145 153 155 161 166 169 164 155 158 165 162 167 165 155 156 156 164 161 180 182 174 185 199 198 195 176 197 195
193 193 195 218 211 214 185 160 169 193 198 196 210 216 191 162 139 140 152 156 154 152 141 159 165 152 162 141 138 147 153 130 142 144 159 159 161 191 206 194 196 197 200
233 194 182 184 167 159 137 154 203 224 224 198 183 179 192 191 196 186 172 171 167 161 176 188 203 180 157 135 159 190 182 169 160 165 169 153 183 176 180 210 203 212 196
208 193 178 145 126 129 147 169 180 190 191 173 153 162 161 163 164 176 175 174 186 183 201 230 251 271 255 223 211 208 197 200 196 197 195 185 198 207 207 223 209 219 205
240 218 194 155 154 163 166 163 155 150 137 138 135 133 140 148 151 158 172 177 183 190 205 226 244 262 248 230 225 234 221 213 204 194 207 201 180 212 222 209 203 223 245
174 161 148 150 159 168 149 135 122 107 111 113 116 126 141 152 167 172 181 194 202 214 217 217 226 234 229 218 225 231 219 189 180 193 174 172 182 199 195 201 199 213 196
121 124 123 133 118 121 111 100 91 92 88 91 103 115 130 143 155 174 190 200 212 227 225 231 240 242 234 228 221 219 203 173 167 144 146 175 170 198 189 181 192 176 160
119 117 123 110 96 100 89 81 69 61 62 73 83 106 126 139 149 162 177 194 201 217 231 224 218 213 214 214 208 194 192 190 165 170 192 182 173 182 170 175 165 123 136
98 120 114 98 85 79 78 72 61 51 54 65 83 103 127 138 148 161 179 189 189 191 195 198 186 178 170 178 187 186 192 188 207 202 165 141 123 114 114 119 119 107 136
88 96 104 97 92 89 82 77 63 57 56 74 92 100 118 131 143 156 158 169 174 169 160 154 155 146 157 136 141 160 153 182 200 169 128 94 81 84 72 66 79 90 108
68 82 94 95 94 88 90 85 69 56 63 89 88 84 94 97 98 106 125 142 157 153 142 141 140 143 136 147 132 111 138 142 109 74 62 81 82 88 98 105 121 122 124
68 81 80 86 105 101 111 102 101 91 91 90 77 82 81 83 88 97 111 126 133 136 158 152 141 156 139 129 137 126 87 56 41 44 55 63 65 82 92 106 124 148 165
67 76 104 125 131 139 140 151 136 118 110 83 70 77 75 83 93 107 118 132 138 148 146 151 164 140 115 112 92 84 57 56 59 54 56 66 66 67 90 101 116 130 140
74 85 136 156 177 181 174 169 142 131 111 73 65 80 83 85 100 122 126 129 140 142 139 140 128 106 90 75 65 55 43 54 59 56 59 64 78 81 92 99 110 120 130
95 118 165 199 205 194 195 173 148 126 108 86 85 103 106 94 101 110 123 118 117 122 121 107 81 64 40 50 51 44 40 53 50 56 69 68 69 74 71 89 91 98 99
107 147 177 180 173 189 202 172 139 101 119 112 112 104 86 94 107 116 103 90 101 88 75 65 61 57 50 44 53 50 46 48 54 58 56 58 59 52 56 73 73 74 82
116 130 170 163 154 177 185 163 118 123 127 117 101 98 99 99 88 92 92 78 56 50 41 38 44 46 51 56 55 50 52 51 53 54 53 47 40 47 48 65 52 65 99
98 117 114 138 126 145 146 130 112 123 112 105 101 97 100 89 70 57 44 46 34 36 29 34 44 40 46 48 52 43 46 52 53 48 38 30 34 50 59 62 69 106 101
80 95 111 88 93 110 110 95 118 115 112 110 100 98 89 65 44 30 32 38 35 30 33 42 44 47 42 37 42 54 60 54 52 41 44 39 45 57 61 74 94 103 109
81 101 91 80 77 98 101 105 116 124 117 110 99 96 62 40 35 18 26 25 16 39 48 44 54 66 53 44 48 56 51 46 37 60 57 63 72 76 82 93 104 117 126
87 94 100 85 76 95 99 83 104 122 124 106 95 82 66 47 38 42 43 22 26 22 28 37 58 50 45 51 52 44 40 42 43 74 67 68 73 77 88 97 110 126 123

GFSMW_con_3kmhel_084.txt.gz
Helicity
236 207 97 40 49 60 55 63 91 99 130 140 127 112 87 114 88 79 59 84 103 115 134 135 123 125 130 127 145 158 140 136 165 161 138 125 127 121 137 144 146 138 143
66 56 26 88 42 56 46 45 47 95 134 161 155 145 147 123 137 124 106 102 101 124 132 124 132 146 151 146 165 199 185 173 204 212 199 156 129 136 113 118 121 115 139
17 31 27 44 85 84 73 71 63 75 116 139 176 168 160 160 156 143 130 137 141 140 143 139 157 169 177 172 190 211 218 195 188 204 225 192 155 160 128 107 102 113 110
32 -53 -23 44 99 125 140 147 133 123 119 108 125 136 155 150 139 136 147 150 146 135 132 140 162 168 191 182 187 208 221 237 204 238 195 249 277 183 159 162 139 121 112
86 55 74 98 151 174 204 224 220 209 191 159 131 120 112 122 124 119 118 120 116 122 136 151 157 161 178 166 178 201 203 221 226 225 231 182 196 183 185 152 167 186 143
85 103 166 183 196 198 199 233 239 234 214 188 173 144 116 113 122 125 125 130 134 134 131 138 153 161 170 168 165 165 167 163 161 148 166 191 170 153 164 173 159 178 187
175 227 237 215 210 193 183 198 192 212 209 187 169 158 144 136 122 127 135 146 158 161 163 156 155 168 170 173 164 162 162 154 140 143 160 158 151 166 180 179 158 168 180
173 235 277 252 218 184 180 201 176 171 182 176 180 185 190 170 175 175 162 161 158 161 172 169 161 160 183 199 184 211 229 244 230 215 192 172 182 175 178 175 174 168 185
154 236 315 308 269 235 208 178 176 176 181 172 195 205 197 187 170 171 172 171 182 176 182 191 210 242 263 251 249 264 253 238 205 181 179 189 190 193 192 187 197 196 209
187 266 302 311 286 240 210 188 166 168 186 197 189 180 172 168 159 160 173 173 179 177 181 187 199 217 234 229 222 234 216 204 181 170 183 186 193 215 207 192 189 185 181
175 203 239 243 226 195 146 140 155 166 182 159 149 144 143 140 138 141 149 153 158 174 181 188 193 204 207 215 230 232 208 224 211 201 198 207 208 208 204 197 176 184 183
132 151 154 170 157 149 145 145 148 147 130 109 104 112 116 124 134 148 160 169 174 190 188 195 206 219 228 238 231 246 244 235 225 198 194 187 191 195 181 163 165 148 138
131 133 117 103 113 120 133 129 106 102 91 83 85 98 111 120 134 141 153 161 175 195 211 220 226 233 238 239 239 236 240 226 207 187 166 164 155 146 148 138 142 132 120
130 110 101 83 83 91 84 106 91 83 78 73 69 74 83 97 117 135 153 166 174 190 204 204 200 198 207 214 214 212 215 219 209 186 189 149 129 127 116 90 75 69 83
104 84 89 79 74 79 86 90 80 65 59 59 53 55 75 97 119 142 158 163 165 163 160 170 173 165 158 143 160 179 185 183 194 209 155 121 92 95 87 70 78 84 87
75 78 79 81 75 72 81 84 85 74 69 58 48 58 76 84 95 113 131 145 154 158 158 161 153 153 141 147 141 144 154 164 153 130 105 102 123 110 101 96 101 96 96
79 78 74 80 80 74 87 85 92 106 94 73 56 58 70 81 90 92 101 117 139 151 167 163 154 162 145 136 127 129 128 104 69 59 71 85 81 86 87 100 126 129 130
41 63 88 88 90 107 114 130 131 129 121 102 91 81 75 74 86 97 101 121 132 140 148 161 154 146 117 124 111 92 62 60 64 64 69 70 64 63 87 95 105 110 116
18 52 101 131 150 145 151 164 154 133 124 103 89 90 72 83 91 104 112 125 141 156 168 152 137 130 122 95 65 57 57 63 66 61 57 69 74 79 87 86 90 94 94
44 68 117 156 184 189 208 193 159 141 106 96 98 105 80 92 100 114 127 137 149 146 131 132 124 108 79 52 47 47 41 57 56 64 66 63 62 74 71 72 72 85 74
80 108 130 143 154 183 195 182 167 128 126 134 141 115 102 102 106 124 130 138 142 133 120 124 118 85 50 38 42 46 44 47 54 54 54 55 57 56 55 65 61 59 65
86 90 111 127 144 174 182 149 133 152 175 143 129 121 106 96 101 112 128 112 111 105 102 89 74 57 53 44 46 51 52 51 50 49 49 45 44 50 50 63 46 65 86
60 77 102 116 116 112 132 134 127 164 150 136 119 102 92 93 104 115 110 95 80 85 68 57 49 35 38 49 48 48 58 49 52 50 45 45 35 53 58 51 58 91 85
50 67 83 97 92 83 95 105 137 147 140 114 103 101 110 110 106 101 75 76 60 53 48 45 46 42 40 37 49 62 63 62 66 61 56 42 47 51 53 62 77 79 87
50 66 69 79 66 86 87 102 131 143 127 117 115 117 100 107 97 61 36 32 29 42 52 44 51 57 48 44 45 57 57 58 50 64 57 56 59 59 61 66 73 84 99
57 73 74 73 80 87 93 100 119 134 138 131 128 128 106 113 79 58 47 16 25 22 19 27 47 50 45 46 48 50 51 50 51 77 66 64 64 64 66 67 77 100 109

GFSMW_con_3kmhel_087.txt.gz
Helicity
158 209 287 126 90 94 100 77 69 82 96 102 87 61 53 55 46 39 39 46 42 51 62 64 58 75 80 77 87 103 100 107 125 126 110 113 104 103 76 84 84 101 99
218 295 350 152 140 121 88 86 99 49 94 119 101 97 98 72 83 85 68 77 75 59 60 57 67 77 96 94 102 127 146 144 152 158 163 131 112 112 105 72 78 53 69
155 274 300 262 130 173 114 46 40 41 55 90 126 130 117 97 94 97 98 92 93 94 98 97 104 106 112 110 115 145 142 142 159 152 204 207 180 179 149 137 117 89 65
101 173 178 190 190 129 60 58 73 77 69 81 89 96 110 110 107 107 110 107 96 108 113 123 125 118 129 123 125 136 147 173 173 204 181 211 245 206 170 141 132 123 109
69 124 167 85 -31 28 69 92 128 140 126 102 95 96 89 106 108 98 94 92 89 83 93 105 113 113 143 126 128 156 162 184 202 215 241 201 194 185 189 180 137 117 122
36 22 45 -58 -29 47 78 132 164 178 174 160 144 105 89 92 95 94 94 104 110 113 104 102 104 114 128 128 139 155 161 164 173 180 191 175 169 166 177 158 139 139 153
80 77 115 133 63 88 130 156 195 229 212 195 181 151 127 115 110 113 115 120 129 145 162 159 137 138 140 153 173 184 179 179 180 177 164 131 124 168 166 162 146 146 151
105 121 179 192 205 153 151 194 198 223 213 186 170 157 147 134 138 142 145 167 182 190 189 181 173 154 150 164 188 215 215 205 223 237 216 188 184 179 179 171 177 150 151
88 125 201 262 277 278 256 218 230 213 206 191 186 193 195 190 176 191 176 173 183 185 188 187 186 198 209 197 222 254 301 302 261 229 200 175 176 188 187 189 173 182 155
38 111 197 304 333 296 258 220 213 194 172 184 195 205 209 212 203 189 185 171 166 171 162 164 179 191 209 218 251 289 271 261 229 193 171 171 188 192 194 181 180 187 183
51 127 233 304 287 282 247 206 191 170 173 175 190 207 214 209 192 180 170 160 156 167 172 180 181 192 201 212 232 239 237 228 233 199 192 200 194 184 168 160 180 192 172
111 166 220 221 216 215 206 197 182 167 165 172 177 176 168 160 153 154 155 153 156 165 170 186 200 211 221 227 225 241 243 242 243 244 220 191 160 161 152 163 163 158 139
122 155 161 149 140 129 132 133 141 144 151 158 149 131 126 120 116 118 127 142 148 162 175 185 203 212 219 238 250 252 259 253 239 210 177 160 143 149 151 149 122 101 91
102 108 108 98 104 112 107 109 102 93 79 87 105 113 104 104 105 109 120 131 145 158 172 177 186 203 211 221 222 226 229 227 214 197 182 159 147 131 123 89 72 77 89
103 92 89 73 75 80 89 82 79 76 71 83 77 79 75 82 95 111 123 138 147 160 169 170 176 176 178 177 185 190 189 186 205 195 174 149 122 105 73 61 78 86 92
79 87 74 65 66 64 66 77 73 74 68 77 73 69 63 72 89 106 116 131 144 145 149 158 156 157 149 142 143 153 167 166 155 153 146 130 119 83 84 99 111 104 92
65 78 62 64 72 72 79 73 72 87 88 88 88 76 66 60 65 84 98 107 125 130 140 145 145 147 132 115 116 139 146 142 131 101 78 79 72 79 89 110 124 120 114
56 54 68 63 59 87 96 106 110 99 98 94 94 83 74 76 72 68 83 104 116 119 124 154 153 152 134 122 113 123 129 110 77 57 62 61 66 76 81 83 91 94 99
69 41 48 61 109 119 133 141 131 118 112 95 90 88 86 75 69 79 87 103 125 135 139 139 147 155 136 109 103 93 86 67 60 62 57 62 65 78 83 76 79 77 77
43 42 59 87 117 152 186 186 153 133 94 94 94 96 101 87 70 77 97 129 122 136 139 160 147 127 114 90 68 51 50 58 59 57 58 65 65 71 73 72 64 68 61
86 68 76 100 122 178 202 183 171 126 135 142 135 133 111 109 99 102 118 136 144 142 135 141 127 107 83 52 34 37 45 47 51 50 53 58 59 62 63 66 54 58 56
86 88 97 119 129 151 167 158 138 138 156 168 162 160 132 111 110 105 122 131 134 127 126 118 105 96 74 37 38 42 46 44 48 48 49 47 51 57 52 48 38 58 60
82 81 79 97 108 122 127 135 110 153 169 163 151 140 116 110 102 107 130 127 116 104 96 85 79 71 52 49 27 37 44 48 49 46 45 42 35 54 47 42 45 67 56
48 57 68 72 74 94 100 86 113 139 152 142 145 126 121 114 107 106 109 105 85 75 63 62 54 52 40 37 51 61 57 48 54 50 52 49 53 47 52 62 65 56 56
111 81 49 51 52 81 78 88 117 136 137 127 142 134 118 113 116 103 91 64 50 65 65 43 46 48 40 29 35 50 54 55 50 71 67 66 61 63 65 64 61 59 64
51 54 54 59 69 76 80 79 103 121 139 139 151 154 136 145 110 101 78 15 20 6 12 24 39 42 36 31 30 37 44 50 55 77 74 68 65 66 71 68 64 62 61

GFSMW_con_3kmhel_090.txt.gz
Helicity
174 142 127 147 126 133 115 85 69 49 70 89 101 122 116 84 68 49 36 39 44 46 47 53 55 57 56 60 72 81 92 98 99 115 101 100 85 92 86 81 84 87 72
170 184 173 163 172 122 134 104 82 78 64 67 86 104 87 75 71 59 48 46 46 46 42 42 49 61 73 72 84 104 111 109 119 132 143 136 139 106 102 105 116 107 106
98 133 182 186 213 183 153 131 107 110 107 120 105 92 75 63 51 49 63 64 58 64 59 56 71 82 87 94 96 107 114 112 137 123 177 190 166 192 172 149 136 107 123
133 152 143 203 256 271 108 136 120 96 91 55 135 113 107 83 60 43 41 63 72 79 86 92 96 99 120 120 125 123 116 136 131 169 160 164 244 219 205 181 140 126 132
150 149 149 168 254 242 296 136 113 105 56 69 87 65 56 57 79 95 67 89 99 85 89 95 104 112 134 125 116 125 125 144 148 161 209 202 207 201 207 182 132 156 149
104 92 120 120 190 229 237 187 145 77 88 92 104 79 89 74 82 86 94 98 97 108 102 95 98 105 117 113 117 118 136 147 162 175 189 202 211 172 169 158 146 139 157
49 56 103 158 156 185 135 161 127 138 136 89 115 134 112 97 80 84 92 93 94 105 114 126 124 138 136 130 136 151 158 168 177 166 189 176 173 162 134 134 124 135 163
33 54 55 57 74 152 -29 58 64 92 121 129 142 172 172 158 131 110 106 107 111 122 138 144 157 164 159 159 172 197 201 202 210 209 214 231 231 196 172 178 159 164 150
49 34 61 58 54 136 113 90 102 134 146 162 178 191 183 156 139 131 133 138 153 164 162 162 165 174 175 170 179 220 254 269 290 300 286 242 213 202 180 189 196 173 124
55 53 63 64 93 135 145 177 192 184 182 170 173 177 175 171 179 195 193 191 178 175 172 163 157 155 165 173 188 235 265 293 309 292 271 235 208 191 195 199 187 176 158
45 54 60 76 163 259 266 249 246 234 197 188 170 161 162 164 171 186 192 189 181 174 166 167 158 160 167 179 194 234 246 259 282 270 236 217 187 190 186 171 164 151 153
67 63 71 108 161 232 255 235 205 216 179 166 162 170 171 178 174 177 175 165 156 160 164 167 161 161 169 180 192 207 207 210 226 238 221 189 190 190 170 156 145 144 141
78 105 110 140 178 177 172 163 147 134 134 133 130 130 138 155 171 153 150 145 140 148 155 165 176 184 188 194 202 212 229 236 233 213 207 198 173 164 145 127 121 107 91
51 65 92 106 130 142 138 132 135 133 138 142 145 140 134 99 101 113 116 129 142 144 149 163 175 192 195 196 206 214 228 240 240 233 203 187 156 133 122 107 97 69 80
41 48 75 90 109 104 102 102 111 115 122 119 110 97 92 80 85 86 95 107 117 133 146 151 157 173 189 187 185 197 203 205 216 203 193 176 161 150 119 80 74 77 74
66 63 72 82 86 82 82 88 87 89 87 92 88 82 71 71 74 74 89 102 112 119 130 140 152 154 156 150 162 165 170 166 160 175 183 174 156 125 99 110 116 93 80
66 60 47 59 65 62 71 72 77 91 77 76 82 77 72 64 66 66 74 89 104 115 131 140 131 132 129 122 148 159 175 175 168 154 144 129 96 82 81 95 102 119 134
41 44 60 64 62 74 69 68 73 76 84 76 80 81 74 70 73 70 64 78 94 105 107 141 142 138 134 121 133 172 175 155 140 123 96 65 59 63 54 57 83 91 97
27 39 47 55 62 54 66 89 91 95 94 82 77 81 79 80 78 71 52 76 95 124 125 131 134 143 135 110 118 136 133 127 111 77 59 52 56 66 54 66 74 82 91
49 49 48 50 50 62 97 114 114 111 95 83 87 92 100 95 81 76 83 95 104 117 123 137 123 113 109 93 97 103 101 83 64 58 55 57 61 57 62 60 61 61 69
106 88 74 68 70 98 132 133 134 119 118 127 123 123 120 118 125 128 134 106 109 118 124 118 114 117 99 89 87 78 66 48 52 51 50 49 54 54 58 60 62 68 68
119 114 96 90 98 113 138 133 119 138 160 160 153 148 144 156 153 147 138 110 116 124 116 110 111 115 97 79 61 43 34 39 49 48 50 51 48 53 53 57 67 63 70
100 98 91 89 102 102 105 112 125 150 154 143 132 138 145 148 134 131 128 134 128 131 115 108 100 103 90 61 45 37 35 39 53 55 60 66 51 54 55 49 46 61 65
79 83 89 82 75 75 75 94 118 134 127 116 121 131 152 138 113 124 130 126 121 110 91 82 80 83 72 54 46 41 39 41 57 60 62 62 60 51 48 50 59 58 55
44 47 59 58 54 54 63 85 93 104 108 105 111 123 138 137 122 117 125 109 90 86 70 63 58 62 59 41 32 40 51 50 53 65 68 67 65 58 59 60 60 61 60
40 49 50 80 51 57 62 73 87 85 81 92 105 118 141 165 142 126 106 50 49 36 29 40 29 40 40 32 22 27 34 42 55 72 72 66 63 62 65 68 71 72 70

GFSMW_con_3kmhel_093.txt.gz
Helicity
84 83 97 93 66 88 94 83 109 105 159 147 147 155 133 129 156 135 120 110 81 75 72 65 70 68 67 62 70 81 88 101 97 115 95 94 90 97 100 109 103 118 149
85 74 112 133 121 114 113 113 99 92 106 134 139 140 112 108 110 119 95 73 74 65 59 60 71 64 75 72 81 92 118 117 113 126 132 132 112 126 95 130 161 155 183
99 73 178 152 163 174 168 136 127 135 94 78 123 127 160 178 144 98 75 65 72 73 73 72 65 71 93 108 108 115 131 143 141 149 168 181 131 180 219 217 198 180 180
99 126 142 142 203 213 222 192 210 161 175 104 115 124 229 238 156 134 80 36 47 59 77 75 73 94 125 133 139 143 154 182 186 222 147 152 218 198 207 231 185 171 162
89 104 128 126 191 239 247 205 231 188 144 144 145 133 145 232 187 245 160 51 20 28 43 67 63 94 136 150 142 163 184 182 178 197 235 182 188 211 237 219 188 173 149
82 94 207 160 188 225 223 255 254 296 137 110 135 306 191 79 93 183 246 158 82 66 29 52 89 107 123 135 147 146 160 174 187 189 212 279 246 214 243 215 175 144 177
77 100 164 152 158 160 186 202 214 249 194 170 144 127 78 118 136 85 122 66 58 60 89 83 103 134 141 142 146 154 167 182 189 195 211 232 199 228 226 161 138 127 171
65 67 72 123 135 159 176 181 174 133 143 163 154 135 101 122 138 156 150 152 154 172 156 128 112 126 148 169 171 184 194 195 201 192 224 256 292 253 251 218 153 140 166
125 90 108 100 108 134 214 202 204 181 126 133 148 175 190 180 153 175 184 152 174 188 151 132 139 174 178 173 189 204 202 211 239 269 288 297 289 251 225 188 171 176 183
60 74 59 112 186 90 144 206 220 314 62 91 117 153 202 230 200 168 153 142 130 127 134 138 144 146 156 160 174 211 243 260 277 295 317 314 277 256 208 191 184 185 197
55 65 88 112 141 136 141 154 255 365 203 179 135 148 180 182 175 165 152 155 151 160 157 158 159 151 150 147 166 178 189 229 240 254 258 262 242 219 188 180 192 185 183
52 75 80 101 99 102 138 186 239 235 253 230 201 176 159 153 140 150 159 168 179 181 186 175 169 162 155 154 166 181 208 221 239 264 270 272 232 193 152 170 174 175 156
64 83 84 85 76 84 111 171 203 203 192 208 192 146 126 132 131 129 129 130 131 139 147 155 160 163 171 173 184 185 200 226 225 229 226 199 186 187 182 175 155 149 135
63 76 80 85 93 112 142 165 185 183 186 177 159 149 149 145 134 136 138 130 117 104 111 128 132 141 152 174 187 203 221 241 258 269 255 228 207 172 157 145 136 122 116
55 64 69 69 77 98 116 132 142 140 135 147 149 155 155 155 139 125 115 97 96 99 109 111 123 138 152 173 168 187 201 211 220 220 222 216 213 208 162 129 122 103 61
60 57 67 71 71 83 103 121 122 120 117 128 141 138 125 111 103 88 83 74 69 79 98 115 135 145 144 142 165 170 181 186 201 218 200 189 185 186 183 172 159 132 83
80 83 84 78 86 85 90 98 107 114 106 105 102 93 86 82 78 72 62 57 63 75 102 127 129 140 138 126 148 185 217 227 224 210 187 171 175 148 138 114 115 135 146
63 70 81 88 90 93 91 94 103 95 92 88 81 78 81 85 87 82 74 62 61 67 80 97 124 138 132 122 141 154 166 158 151 148 138 126 120 99 62 77 85 91 124
53 53 68 80 93 89 89 88 88 91 90 81 83 84 87 96 87 84 63 58 52 62 77 78 106 126 147 116 117 154 160 147 138 131 105 104 78 58 55 71 74 91 97
109 89 89 83 70 64 69 74 83 91 98 98 101 101 106 100 97 92 100 119 78 84 68 103 112 110 126 111 94 115 129 129 117 100 99 80 58 51 57 63 69 76 76
119 131 119 81 62 65 78 86 105 107 132 128 145 132 130 124 119 137 148 143 143 123 98 113 104 101 92 95 94 104 112 123 91 72 59 51 52 49 72 91 80 69 99
152 143 116 106 98 103 89 101 126 183 168 161 151 150 148 149 145 138 138 140 151 134 97 106 107 99 97 90 81 93 97 83 69 57 56 59 47 54 71 79 85 88 90
147 135 117 97 92 89 91 105 124 137 138 144 141 149 135 126 123 132 144 159 141 132 110 107 105 106 105 99 82 69 60 49 69 62 55 58 53 60 64 63 61 77 66
85 91 95 96 95 96 104 98 100 99 121 117 112 127 122 114 126 149 151 149 150 144 125 99 97 108 104 95 86 68 60 51 70 61 59 65 59 50 53 68 58 62 60
69 76 88 94 91 84 80 95 91 91 91 93 99 119 110 110 126 139 146 139 138 147 140 104 86 92 92 74 52 57 56 61 58 58 79 78 69 67 67 63 69 72 72
42 41 50 69 68 70 91 86 88 95 93 95 102 103 103 110 135 144 142 92 95 87 67 51 47 68 46 28 17 24 31 37 41 69 76 69 70 71 71 78 81 78 72

GFSMW_con_3kmhel_096.txt.gz
Helicity
108 110 52 69 53 72 108 110 121 128 151 206 213 189 172 163 145 185 211 165 127 121 125 104 94 104 103 71 75 90 97 99 98 120 99 91 80 84 100 97 98 100 202
89 154 157 97 98 85 117 119 130 149 154 140 169 198 209 163 150 185 184 159 143 130 105 103 81 82 92 69 75 104 123 111 116 126 134 128 113 91 95 108 138 240 273
121 106 203 141 120 111 109 143 115 133 171 158 159 214 236 218 192 162 161 114 146 152 127 109 85 82 81 91 85 100 131 141 108 139 174 161 111 154 169 207 237 274 279
104 88 245 242 178 169 156 147 168 162 167 198 201 196 185 194 167 140 120 116 101 93 97 102 101 93 82 91 89 106 139 169 147 186 202 184 218 197 198 236 246 276 268
160 135 228 273 258 235 246 254 240 277 252 219 263 276 265 191 131 118 101 114 115 121 100 73 57 62 78 91 85 67 100 150 195 224 233 188 199 225 235 219 246 259 230
129 109 213 299 280 269 239 330 285 262 255 217 206 244 226 291 213 244 132 106 122 136 135 107 86 76 79 103 124 89 111 156 188 196 222 266 239 236 235 223 185 210 225
88 130 249 324 294 220 231 286 308 317 293 239 192 163 228 174 93 151 106 207 213 127 148 132 93 72 93 112 112 72 77 156 177 180 203 240 250 251 216 220 182 180 209
121 127 213 249 175 160 185 206 220 259 267 270 243 232 246 289 224 198 142 118 122 189 202 227 238 104 106 123 144 143 143 162 176 184 203 203 223 238 241 212 197 191 174
127 127 177 200 209 200 190 185 205 219 237 199 234 194 143 155 181 214 230 209 220 203 245 133 119 144 164 177 165 170 162 172 186 194 214 244 253 245 226 232 237 202 181
209 209 143 170 240 234 201 221 217 204 189 216 237 239 185 191 177 229 236 206 209 172 145 151 150 165 164 167 171 152 170 187 210 227 274 280 289 268 266 236 229 201 191
112 150 208 221 217 278 264 268 284 312 280 277 291 305 245 166 147 168 179 175 167 161 146 130 138 147 162 151 155 150 143 166 196 214 232 261 235 266 256 213 191 183 185
129 148 142 237 354 334 281 263 294 283 265 275 323 317 311 184 135 132 137 154 143 133 135 146 155 156 165 167 148 152 157 167 199 239 245 235 229 209 209 144 175 169 208
81 99 137 179 225 208 205 228 217 232 240 276 295 297 281 242 222 170 149 139 134 134 139 150 160 157 152 168 181 141 150 168 188 203 220 224 230 233 199 176 197 193 181
46 92 146 129 101 106 114 138 180 190 230 276 290 271 249 235 226 185 178 174 163 153 160 158 155 162 162 168 178 202 213 242 252 248 210 200 199 193 190 193 165 156 155
49 69 87 95 102 109 103 132 145 160 184 205 216 219 232 219 188 171 159 158 158 147 135 120 112 128 150 159 176 193 224 231 234 246 250 241 226 204 167 164 154 145 144
28 48 78 101 108 104 99 128 122 121 137 159 174 165 163 155 150 148 147 138 122 105 92 101 118 118 112 143 162 173 184 193 209 228 225 214 207 191 214 211 190 137 115
45 73 72 73 74 72 101 118 115 124 124 135 145 139 141 138 123 115 111 105 102 104 108 97 75 89 107 102 142 197 212 216 219 219 214 204 189 191 184 184 177 167 146
45 68 88 92 96 102 123 121 126 112 108 117 116 106 113 118 117 113 114 127 119 108 81 49 43 55 93 107 152 173 191 192 176 164 163 164 177 155 147 135 125 121 143
70 70 80 93 119 126 121 134 130 114 108 103 109 103 102 110 112 124 128 113 107 96 87 67 40 36 85 117 115 147 194 188 167 142 130 139 146 115 110 94 68 95 113
118 127 84 113 126 111 130 131 111 103 84 93 105 118 125 129 119 121 116 113 111 92 106 84 37 14 91 108 94 110 151 160 144 147 158 99 98 90 65 59 62 81 73
137 203 223 164 116 109 129 113 106 89 93 115 143 150 144 148 143 157 148 123 115 115 111 99 82 45 86 104 89 87 118 123 113 111 116 99 69 60 56 70 55 63 74
137 161 153 166 177 169 134 113 112 121 151 172 179 166 159 168 184 169 145 127 129 132 123 114 89 53 64 67 63 66 88 96 95 88 71 57 48 44 57 79 83 76 80
108 132 118 115 112 103 101 101 110 142 158 166 150 150 149 149 156 147 130 143 147 149 141 129 107 92 89 87 53 59 64 70 67 67 55 49 37 39 54 65 66 71 93
75 86 95 87 86 83 93 88 100 114 120 114 111 133 134 135 134 130 136 139 150 156 142 135 119 97 98 86 82 86 71 50 72 62 72 63 56 59 62 67 61 81 72
63 72 79 96 83 90 96 117 104 89 87 86 101 122 129 115 118 127 133 135 136 152 163 150 143 110 105 74 80 83 84 84 66 77 88 92 90 82 83 77 64 70 73
52 55 52 57 57 75 79 73 78 94 86 106 119 142 124 107 120 124 114 82 88 84 79 90 116 99 56 60 47 32 30 25 22 82 86 79 78 81 77 71 75 86 73

GFSMW_con_3kmhel_099.txt.gz
Helicity
68 73 81 91 97 97 111 104 119 146 173 211 229 199 174 193 225 184 171 146 115 122 135 134 123 141 149 126 107 88 78 71 91 98 75 65 59 64 65 85 91 98 137
123 97 91 91 84 97 88 108 84 116 146 184 220 231 195 174 176 186 180 204 170 142 116 91 100 108 132 113 90 88 98 82 83 97 102 77 85 77 53 89 108 155 224
117 110 114 92 107 116 116 87 91 101 116 165 238 218 215 197 180 194 191 170 139 152 139 103 85 84 97 104 95 95 124 129 97 102 109 92 55 85 118 166 218 262 283
102 171 132 129 116 120 127 120 118 130 144 174 193 203 168 181 180 188 184 122 97 97 90 134 201 236 206 190 97 100 114 151 133 106 84 120 133 130 130 204 250 264 289
99 147 154 140 144 163 173 162 154 155 176 187 176 187 218 228 226 213 207 214 104 110 126 128 127 120 134 201 174 72 86 110 150 129 125 121 174 167 190 174 229 277 262
136 123 148 223 245 241 251 249 227 215 212 221 206 252 291 327 325 332 293 283 239 146 106 180 134 168 133 162 155 141 114 120 112 193 138 125 124 198 234 210 199 207 241
137 142 191 278 276 218 206 220 240 262 243 257 198 212 226 223 217 209 165 172 200 229 122 159 99 148 100 112 92 141 175 106 107 92 107 129 201 196 192 219 178 239 249
82 107 173 233 197 184 177 201 207 256 276 256 260 209 166 166 155 149 146 144 112 128 182 155 127 102 196 163 179 109 71 95 165 147 156 162 182 202 228 230 239 221 261
84 132 167 179 189 180 138 151 188 224 263 297 287 254 228 200 169 177 191 225 208 191 191 160 91 122 130 143 100 95 93 117 128 171 171 201 194 214 222 241 241 225 245
84 146 174 157 162 141 153 151 181 205 200 228 246 247 229 221 224 238 239 206 187 200 172 188 169 161 161 165 156 155 137 144 149 165 157 191 201 217 219 216 232 236 205
163 189 164 175 180 188 175 191 219 235 247 247 263 269 244 250 262 271 243 244 197 179 184 187 161 143 140 147 148 144 136 130 142 149 164 180 204 211 212 232 217 228 236
176 199 196 219 242 229 239 238 241 259 278 305 291 291 292 250 269 180 263 286 121 133 140 151 151 160 167 162 132 117 127 124 131 144 164 192 190 216 208 202 205 215 222
148 199 217 230 265 261 245 248 245 253 267 265 262 263 250 244 299 323 241 178 153 146 155 150 129 137 151 156 163 131 117 127 145 151 159 182 194 193 193 209 195 183 194
80 113 150 188 198 212 219 228 219 213 233 250 242 234 228 227 253 249 237 212 170 158 133 134 139 134 139 157 158 159 148 164 177 178 168 165 173 175 174 191 178 168 183
64 64 103 120 120 142 147 138 130 150 170 194 209 209 211 206 234 251 215 176 160 154 148 147 143 136 123 126 140 147 158 163 183 205 213 207 187 176 155 174 173 192 187
20 21 46 72 95 104 123 121 115 118 140 149 148 147 157 175 186 179 177 179 174 163 146 128 101 89 84 105 123 129 135 152 164 179 201 206 199 176 162 152 144 142 172
0 14 47 72 82 85 98 91 85 93 98 110 109 114 127 140 141 143 141 134 129 126 126 121 101 79 57 58 88 142 141 150 162 169 176 192 193 191 181 182 217 219 171
11 24 55 80 78 82 89 104 96 94 100 99 100 107 112 112 109 115 120 126 120 112 112 106 99 89 62 43 87 126 143 160 160 164 172 181 176 172 178 178 189 178 161
74 25 65 85 85 87 98 112 93 88 95 92 87 88 96 107 109 109 110 117 124 116 94 90 88 98 94 48 44 109 135 151 154 154 150 153 142 112 129 150 144 147 141
91 93 45 95 102 94 130 122 95 88 76 78 70 81 94 102 99 100 103 120 111 99 100 94 95 91 102 58 44 113 133 148 154 149 120 102 105 82 94 113 112 84 72
143 150 155 127 92 117 138 118 105 76 56 74 90 105 108 119 121 135 137 123 113 114 100 96 101 99 101 78 46 91 118 124 128 119 128 97 76 67 72 58 69 48 63
134 167 195 208 181 130 116 100 84 65 79 104 122 128 141 158 161 159 156 128 120 110 99 103 101 101 108 61 29 52 67 72 104 90 87 71 66 54 47 49 32 36 63
101 125 124 123 136 133 107 94 73 96 118 124 127 133 137 140 145 152 130 119 115 118 112 116 119 110 91 103 54 36 49 70 91 86 62 46 47 31 39 48 48 62 86
77 79 95 113 120 112 107 81 76 92 113 115 115 122 122 114 123 132 124 113 122 121 117 117 120 127 119 121 93 67 57 55 82 64 60 51 52 53 52 57 55 84 85
61 67 72 77 81 90 102 98 92 101 100 98 96 99 107 105 114 109 108 103 104 119 128 125 135 145 130 130 77 70 98 96 82 96 101 101 92 82 73 63 63 79 75
61 67 66 68 86 79 79 86 96 95 90 85 94 107 123 127 122 108 86 48 49 52 53 65 100 107 83 89 45 46 69 68 41 94 93 77 68 71 70 69 70 75 58

GFSMW_con_3kmhel_102.txt.gz
Helicity
88 91 97 98 121 150 191 162 152 127 160 157 157 186 186 183 228 205 106 109 116 145 149 163 165 167 156 127 128 142 129 99 88 103 79 56 47 46 59 64 74 83 84
86 117 100 107 108 114 128 168 155 142 140 186 195 227 196 215 190 214 168 165 141 136 135 140 127 145 129 108 106 123 136 112 102 121 125 110 91 75 66 76 99 110 173
123 113 117 100 112 102 90 111 100 134 159 162 252 266 238 207 190 237 208 237 223 178 181 146 129 131 99 107 117 107 89 82 111 101 102 107 87 85 79 111 174 202 266
73 119 119 136 107 66 79 74 86 102 131 190 197 178 199 209 178 204 239 227 195 199 170 146 109 131 150 224 229 177 179 214 211 151 105 114 109 196 90 85 155 224 279
46 68 129 104 77 99 105 109 105 122 130 141 149 170 177 153 145 225 222 195 194 217 176 193 196 132 142 112 126 177 180 190 229 294 297 234 128 147 219 91 149 219 226
42 52 148 138 158 149 149 142 136 134 139 161 146 155 170 198 236 273 310 300 241 187 141 180 152 229 187 235 223 136 211 194 225 212 181 178 116 152 125 146 135 161 200
93 110 130 144 176 176 153 181 190 169 156 160 162 189 232 262 251 182 189 185 208 151 115 203 253 272 265 207 152 78 61 104 123 145 125 211 183 187 197 172 159 228 248
103 117 135 170 167 160 158 177 169 192 161 177 180 189 217 220 180 169 163 140 127 138 177 174 183 209 192 195 159 135 170 155 181 92 95 98 119 183 190 208 225 194 247
104 104 135 158 157 154 132 130 153 174 166 183 210 189 197 192 176 187 181 159 153 147 148 118 118 129 119 106 125 85 95 115 129 103 123 128 125 188 190 210 233 202 241
136 114 111 127 157 144 148 144 152 153 174 194 192 195 179 179 194 211 195 178 180 170 159 134 133 138 122 114 99 102 99 109 114 122 121 146 166 169 202 193 179 188 218
67 116 121 161 172 188 176 164 147 146 164 181 197 191 205 213 203 196 199 208 208 199 196 196 185 162 137 134 119 112 108 94 96 106 121 125 145 164 177 197 204 196 197
122 120 143 192 170 164 172 151 140 132 145 180 202 211 218 221 215 223 245 240 261 273 229 188 152 144 131 122 112 107 111 104 108 111 126 142 158 160 178 183 164 181 235
153 153 132 171 164 167 177 163 156 161 176 203 228 240 246 246 245 241 252 225 178 200 167 155 138 127 118 109 105 108 108 119 121 118 117 146 168 169 188 195 200 207 231
131 142 155 157 203 212 209 209 195 192 200 206 210 219 218 214 214 207 191 178 170 191 174 155 134 120 120 122 118 108 109 116 139 142 125 128 137 136 158 175 178 180 183
57 63 88 143 198 217 213 205 192 170 174 188 192 189 194 194 181 178 174 170 172 184 182 167 156 145 133 124 117 111 107 112 122 151 158 144 153 140 151 172 182 165 158
53 29 44 73 85 85 101 130 127 121 127 138 144 161 179 180 170 167 160 155 160 169 164 153 130 121 111 107 101 101 89 107 119 118 142 163 168 145 136 144 149 157 175
24 17 16 36 57 79 95 90 93 115 121 128 130 133 141 137 123 121 126 134 138 144 147 137 118 102 96 84 75 93 96 107 120 130 134 145 163 177 167 183 199 157 139
18 18 34 53 68 82 96 123 108 96 99 96 93 98 110 114 116 121 117 123 128 125 116 106 101 102 99 94 71 80 83 93 126 135 129 129 138 150 170 177 192 185 181
66 53 31 72 88 90 102 107 88 83 88 83 84 85 94 99 101 101 107 113 117 116 118 115 106 99 100 96 109 120 88 66 118 148 143 129 126 116 124 137 154 166 163
85 95 34 49 76 85 110 113 92 87 72 68 68 76 82 83 85 88 98 116 121 114 116 116 110 98 105 111 103 123 88 55 125 144 130 104 107 91 97 125 103 129 109
94 102 111 87 71 107 119 98 89 64 66 71 69 68 70 76 82 103 124 116 121 114 98 100 103 107 104 104 77 110 110 83 116 123 114 110 82 76 72 88 100 89 83
111 126 157 153 126 100 107 98 74 73 69 73 77 80 85 99 122 132 133 134 117 108 96 87 96 97 92 81 74 64 84 80 100 100 91 92 71 71 66 74 68 58 58
90 113 118 137 159 143 104 88 68 70 81 90 86 98 113 119 133 154 137 115 106 108 99 103 98 89 95 103 67 77 89 71 78 70 69 58 57 57 54 54 43 28 87
77 76 99 126 133 125 117 91 79 86 94 97 101 113 123 122 126 127 116 111 108 106 106 105 96 96 101 110 118 126 107 64 78 73 73 58 57 69 62 57 54 82 76
75 78 91 102 109 114 122 117 99 91 94 102 105 108 115 119 131 121 114 105 104 103 103 101 108 107 98 115 112 130 124 86 95 109 111 107 96 90 80 67 60 69 69
63 65 69 71 93 98 101 109 113 106 103 103 110 116 131 130 131 139 120 77 61 40 15 23 81 106 63 50 62 73 60 50 74 123 129 137 127 86 76 64 48 73 61

GFSMW_con_3kmhel_105.txt.gz
Helicity
270 191 123 199 137 152 131 137 136 146 176 153 113 108 92 107 110 93 88 90 94 120 132 120 121 133 131 116 122 133 120 107 112 120 106 94 71 75 58 56 58 63 68
307 236 106 143 142 101 106 150 147 165 167 161 130 137 150 152 156 111 70 121 103 158 168 161 158 147 161 139 128 138 133 105 101 131 112 129 134 124 120 90 105 117 125
386 293 172 86 138 103 132 139 126 125 157 222 254 248 256 249 171 150 163 135 121 145 155 160 149 153 163 176 200 151 123 235 186 164 131 120 134 140 103 117 104 142 161
413 345 221 119 93 87 128 121 139 137 162 169 200 198 163 153 180 181 177 183 194 177 177 163 177 162 156 125 185 141 167 261 196 140 137 193 210 194 244 146 154 125 127
468 415 183 101 75 79 78 95 127 148 172 161 160 150 179 171 163 189 218 201 234 219 201 181 162 152 169 168 164 116 233 205 171 158 185 177 198 216 250 200 125 131 155
477 302 148 98 100 93 92 104 98 115 115 121 108 112 117 127 157 168 211 233 247 240 188 152 158 133 162 197 253 196 227 210 255 164 158 153 164 231 234 190 253 240 100
220 157 74 92 105 97 93 105 109 113 112 108 113 109 99 109 137 165 159 186 203 170 145 144 117 124 134 156 177 172 171 151 101 90 114 116 170 168 113 209 146 131 146
94 84 32 74 113 101 104 109 116 117 121 111 107 119 124 160 180 141 112 99 108 120 137 141 133 127 133 146 148 131 110 106 100 85 126 131 134 119 125 138 163 157 187
55 38 44 53 111 130 94 87 105 108 115 114 131 130 165 167 152 137 139 123 126 123 126 121 110 107 103 104 112 102 90 73 82 74 72 93 111 119 131 167 210 207 191
75 63 68 84 104 132 132 113 104 107 112 128 151 176 174 156 159 152 127 120 124 120 124 133 146 160 145 148 132 116 114 101 90 78 82 84 100 108 122 143 163 186 182
56 87 107 99 108 151 158 124 100 103 108 130 178 182 177 161 153 146 151 147 151 150 150 158 190 175 161 173 151 125 102 88 81 83 77 75 86 103 117 123 145 155 183
84 107 118 132 144 165 157 128 124 130 126 134 154 164 166 172 185 189 183 167 172 177 165 148 132 127 123 130 130 108 87 74 71 75 84 81 95 97 121 139 139 153 181
86 111 136 122 132 174 155 145 150 139 134 139 149 158 166 178 181 179 180 177 186 187 160 172 144 138 131 126 116 102 97 85 78 82 82 96 97 101 126 143 154 161 181
102 103 113 91 111 150 157 145 151 147 145 153 152 149 149 153 163 174 184 183 169 165 172 161 153 151 148 142 129 115 103 95 102 116 114 113 117 108 114 122 139 164 169
93 104 93 99 120 154 162 167 165 161 157 160 157 145 162 175 178 178 171 163 163 162 160 163 161 145 143 140 141 131 113 103 98 105 113 116 123 122 118 131 134 163 171
64 60 60 88 117 133 138 150 153 161 166 149 145 154 166 171 169 153 146 158 175 174 160 151 139 142 140 143 136 117 103 97 84 77 92 110 133 144 130 128 131 128 157
33 15 21 39 60 80 102 104 115 130 132 134 141 134 142 139 137 148 153 149 143 137 141 143 135 122 109 110 105 100 87 82 78 74 81 103 131 156 168 179 169 137 123
74 60 32 36 47 71 96 109 112 114 116 112 115 125 128 129 130 127 116 123 123 119 110 106 101 99 99 106 107 114 104 102 98 82 67 94 127 145 143 147 151 154 162
66 58 40 20 47 65 71 87 102 102 103 104 101 99 98 108 117 114 107 108 105 102 95 93 99 101 103 109 103 100 107 110 114 83 8 77 125 123 118 130 141 151 155
63 65 84 46 58 79 97 102 92 89 88 83 88 96 102 105 101 97 95 96 90 86 97 91 91 89 93 88 94 106 107 95 110 96 55 96 111 101 102 115 117 137 141
95 114 123 99 65 88 109 112 108 99 86 89 95 95 88 87 84 89 100 89 98 99 87 81 83 75 72 77 82 81 114 98 101 95 90 105 84 80 80 98 100 102 104
88 108 127 159 147 100 100 105 97 101 82 85 88 83 82 87 95 103 104 104 106 95 77 63 56 73 80 67 63 64 67 104 117 97 105 95 58 61 64 76 77 75 88
71 92 114 148 166 146 109 100 99 86 90 93 93 96 100 101 108 118 117 133 116 101 84 74 73 77 78 75 44 45 56 80 120 111 91 72 51 50 65 67 70 49 101
76 67 85 121 149 146 132 119 116 104 93 92 94 99 104 110 114 123 135 134 116 108 94 77 75 76 79 79 87 98 102 102 110 109 96 81 71 70 76 60 66 77 95
67 76 90 90 106 107 118 119 107 97 102 100 94 94 102 108 117 127 144 143 146 131 104 87 92 99 91 82 73 87 124 129 116 122 126 110 100 101 131 92 68 69 66
59 70 73 79 85 84 95 106 109 104 100 104 103 106 118 130 139 147 144 89 83 80 72 47 69 79 36 39 49 57 53 65 82 151 122 114 121 117 135 134 100 59 45

GFSMW_con_3kmhel_108.txt.gz
Helicity
348 270 221 145 118 145 170 135 144 177 163 141 77 110 63 72 58 51 57 63 54 68 72 60 78 106 108 99 128 142 133 112 115 115 80 73 93 117 90 87 84 79 73
375 384 313 198 106 124 136 125 143 203 173 148 139 159 118 88 92 81 80 72 62 67 83 102 106 130 134 127 141 168 180 175 169 169 95 154 147 120 150 128 121 125 117
323 309 279 218 208 143 156 121 124 116 165 237 253 214 168 119 105 82 108 80 58 59 107 98 123 125 139 128 118 148 165 179 129 152 146 136 114 184 169 180 186 145 152
302 268 221 174 133 174 168 133 109 72 125 169 190 113 78 135 99 97 91 120 73 78 125 128 133 122 138 133 115 113 120 77 152 196 135 162 160 75 81 174 197 209 111
245 278 263 196 112 72 164 212 125 89 145 133 135 138 82 150 157 133 132 104 112 96 164 167 184 153 79 69 76 148 172 207 121 124 184 171 196 117 125 123 131 159 199
273 292 272 236 164 126 130 152 73 67 127 161 174 111 139 185 82 55 108 103 142 207 203 159 120 134 134 136 102 128 150 129 123 148 123 119 145 106 84 108 131 146 125
308 331 333 268 190 115 70 85 105 77 114 150 92 77 83 86 91 113 131 138 158 157 137 152 141 108 98 88 103 114 123 129 111 74 85 94 112 121 122 142 120 152 161
295 420 441 263 176 120 99 78 61 70 63 68 76 100 52 72 87 101 83 96 121 99 74 87 92 83 93 102 118 117 96 90 83 83 90 77 67 79 109 128 130 95 128
191 431 412 225 134 85 69 73 83 87 85 66 91 90 96 103 107 98 111 111 106 95 97 96 102 112 100 102 105 99 101 100 87 77 76 77 77 78 91 97 120 124 110
177 487 283 155 82 79 90 100 99 87 93 96 107 125 133 141 149 156 156 153 148 132 128 125 121 123 129 134 122 127 120 115 106 103 102 84 74 71 83 90 109 127 117
15 106 103 50 62 86 119 133 119 95 98 101 131 162 185 189 187 189 173 167 156 140 129 122 139 128 120 117 110 111 115 111 117 112 80 65 67 67 76 88 104 117 127
105 97 80 63 74 89 101 121 137 110 102 112 136 157 174 183 194 187 172 153 148 133 118 134 142 129 129 122 112 102 104 107 104 94 91 82 87 86 88 100 93 109 133
118 80 88 108 94 125 138 137 132 122 119 136 156 169 168 176 175 166 154 148 139 139 146 151 144 134 134 130 126 117 115 117 114 113 111 105 102 100 100 100 112 125 142
109 115 118 122 133 125 148 173 179 166 173 158 147 148 147 148 150 146 155 162 151 155 159 155 150 141 136 140 143 137 132 130 129 129 127 123 117 104 103 105 107 124 132
110 98 121 101 107 129 163 175 174 159 139 138 142 141 145 161 169 178 180 174 171 163 150 136 140 142 151 147 146 135 130 132 133 129 124 117 116 119 111 117 126 130 144
111 91 81 90 88 72 89 119 133 128 120 129 136 147 162 165 167 158 161 172 172 163 156 162 162 169 146 143 134 122 120 117 113 107 106 108 116 131 142 144 141 138 146
83 93 89 76 87 91 92 97 106 132 156 170 161 154 157 164 162 158 161 159 146 149 170 176 161 141 123 128 124 120 103 106 108 106 111 109 101 99 123 161 184 184 161
73 80 77 65 59 72 97 121 130 142 151 148 135 142 149 158 156 150 147 161 167 151 140 132 124 122 108 98 85 86 82 90 104 112 126 119 91 37 73 144 157 157 149
57 52 50 31 38 49 70 104 112 117 119 118 123 119 124 128 127 138 142 144 137 131 121 108 106 96 69 68 73 85 78 91 109 113 120 125 107 30 83 145 153 155 152
56 61 85 60 48 51 73 101 107 107 107 110 111 120 112 107 109 118 118 131 132 121 103 90 71 57 50 58 66 69 84 84 93 95 99 112 101 63 89 127 128 135 129
80 80 89 125 98 74 93 99 103 116 127 105 98 99 101 105 104 120 123 128 125 108 88 74 57 44 39 39 47 60 87 82 87 86 93 104 103 103 103 109 99 101 95
68 96 109 145 137 83 92 115 125 119 109 99 96 93 93 111 129 128 125 108 97 91 86 60 64 50 43 35 42 41 43 58 94 87 87 94 88 108 105 92 70 59 86
59 63 82 131 172 150 110 105 111 95 97 97 91 92 113 106 98 105 99 110 100 99 90 82 70 74 61 51 36 37 29 38 98 103 85 68 75 72 80 71 78 67 101
47 45 67 111 137 146 152 130 120 104 99 100 99 99 97 97 101 105 108 117 118 113 106 96 93 94 73 56 69 78 84 67 91 101 102 91 85 73 76 93 102 106 95
35 42 59 76 100 99 117 126 122 111 91 102 97 104 88 88 94 95 107 115 124 138 125 114 109 95 92 83 62 53 77 85 89 119 131 124 118 103 106 103 108 105 103
54 61 63 70 71 75 87 106 108 101 95 100 103 97 96 95 102 112 123 104 110 111 79 67 96 98 55 53 25 20 39 48 51 121 140 119 115 108 109 100 106 102 105

GFSMW_con_3kmhel_111.txt.gz
Helicity
141 202 159 107 165 98 55 94 182 189 244 191 144 117 80 92 72 50 38 21 27 26 24 43 57 72 65 70 96 106 100 112 117 111 114 123 65 67 92 89 78 67 72
161 198 171 186 180 67 110 141 151 174 193 173 148 144 116 99 99 98 80 68 60 45 43 45 62 77 92 101 98 101 115 112 85 78 87 91 75 111 122 111 87 96 88
184 239 195 154 128 119 115 52 111 118 173 176 197 197 162 132 109 117 111 90 66 52 46 44 69 88 100 98 91 99 96 77 39 80 110 129 53 58 123 98 144 154 162
291 285 319 249 176 116 101 115 148 63 167 150 201 192 152 150 123 130 127 111 80 59 43 64 64 114 133 100 73 66 40 73 137 83 88 128 134 107 67 96 114 170 214
401 296 301 267 252 201 207 146 119 97 68 171 144 236 204 195 198 153 114 105 81 84 88 86 115 154 102 39 74 89 167 114 99 118 123 115 106 105 107 115 75 80 84
368 311 306 277 251 206 288 286 105 35 71 145 205 162 152 186 137 130 132 160 83 152 92 140 145 123 112 136 119 107 67 76 90 104 114 110 99 89 118 94 62 60 109
363 321 256 234 223 96 126 214 218 188 188 51 53 93 135 73 107 158 258 127 43 108 123 126 145 123 62 52 61 72 93 93 102 91 107 79 70 90 85 94 104 84 73
382 306 182 119 76 85 98 139 146 146 101 135 82 120 180 109 54 105 25 63 55 106 158 136 90 68 69 75 82 95 102 84 83 82 73 69 69 70 70 79 78 88 91
516 436 259 168 142 91 61 18 38 75 75 62 47 -5 32 6 5 34 46 78 85 74 119 145 150 101 100 105 103 107 105 106 107 109 108 100 106 103 98 94 89 107 124
602 481 380 223 140 99 82 75 58 40 52 53 53 82 71 70 103 101 101 153 166 177 185 173 138 148 145 121 114 124 130 129 112 110 113 111 104 100 93 90 97 102 101
645 428 510 321 138 99 93 98 83 85 80 77 89 114 126 144 154 158 157 170 169 162 162 142 156 149 134 118 121 119 104 106 106 99 96 96 91 94 98 105 110 120 145
289 328 523 271 168 124 80 92 104 109 92 96 118 135 146 161 194 197 175 164 178 159 142 138 150 142 134 130 122 125 118 117 120 115 102 93 94 97 102 106 112 122 136
58 90 255 270 190 115 75 103 137 138 129 125 132 131 136 161 182 184 173 177 174 158 141 142 156 162 143 140 138 131 127 133 134 131 126 118 106 101 105 107 105 115 127
125 96 99 117 68 79 107 134 160 152 134 148 150 140 139 145 159 169 185 182 170 175 172 176 177 169 142 140 123 124 131 127 127 126 120 118 115 108 102 105 113 120 128
156 134 112 136 141 137 139 156 187 173 166 174 167 157 142 141 154 172 179 182 183 178 169 175 189 177 156 138 142 145 137 129 128 121 111 109 112 116 119 115 121 134 146
169 156 123 130 131 114 113 121 149 155 158 198 189 157 159 163 168 173 176 184 197 204 198 199 173 161 148 153 154 135 120 119 122 126 119 121 131 140 134 130 139 143 161
110 115 102 118 93 93 98 94 111 132 148 146 127 126 144 170 175 180 191 198 199 197 207 181 148 140 139 137 139 142 119 115 106 101 105 117 125 137 136 110 84 173 225
87 93 82 71 82 68 83 92 114 143 153 160 163 160 164 170 166 170 176 186 175 163 140 140 152 143 130 122 115 110 88 77 75 81 93 101 114 117 113 100 40 102 168
67 74 83 78 42 30 36 66 98 117 125 121 130 139 162 184 193 195 170 162 159 161 147 136 124 119 110 88 66 54 42 47 75 92 93 91 99 100 104 114 78 67 138
61 99 97 59 46 42 40 58 60 71 85 94 104 117 126 136 137 136 143 145 132 125 121 119 111 93 85 50 32 24 33 52 66 76 82 80 82 85 90 108 101 61 110
69 81 81 114 119 67 61 80 85 89 84 90 105 115 118 117 127 138 134 137 140 137 124 110 99 81 34 14 -12 -3 33 43 44 50 71 83 83 82 90 94 110 90 105
75 88 98 138 151 108 87 93 95 89 90 96 101 94 90 100 108 120 123 122 122 116 113 113 96 63 29 -4 -2 -6 8 29 36 41 65 73 69 79 85 96 97 80 96
67 62 73 108 152 156 115 111 124 97 82 83 85 95 102 103 102 110 113 119 115 116 103 103 94 77 73 55 30 22 27 27 70 85 63 61 66 73 85 89 97 94 110
62 56 65 107 139 139 148 143 134 117 112 126 126 119 113 111 117 115 109 109 108 108 112 111 96 87 87 85 83 75 50 25 47 87 80 93 93 83 86 102 118 120 101
52 48 57 66 95 109 124 127 137 115 86 93 94 103 116 127 124 109 99 95 97 113 119 113 115 113 87 76 63 75 64 38 45 101 113 115 102 95 98 110 113 106 100
56 61 69 71 80 81 86 103 117 104 91 82 90 85 86 70 118 89 92 89 79 76 77 103 122 123 78 78 65 63 52 29 34 107 118 103 90 82 88 96 97 99 89

GFSMW_con_3kmhel_114.txt.gz
Helicity
6 -26 169 2 79 66 -17 130 169 126 127 143 189 159 103 112 79 78 74 62 64 53 58 63 59 62 60 65 77 90 84 75 56 44 47 47 52 56 83 92 97 88 69
20 3 181 -9 38 75 -38 40 120 188 164 177 175 174 143 103 90 90 80 64 59 62 65 74 66 59 73 75 77 80 88 60 31 44 49 79 58 89 89 85 79 53 112
10 -15 202 104 69 63 51 41 126 182 194 179 204 174 158 125 135 108 104 91 81 82 86 81 84 86 89 88 80 67 63 62 90 82 80 22 19 70 93 95 98 67 48
72 19 200 84 44 72 64 137 177 139 115 89 176 179 171 117 122 133 130 125 109 102 98 98 79 74 76 81 80 81 69 54 113 104 54 54 64 79 60 78 75 79 79
80 115 169 86 175 182 127 195 125 112 107 133 174 204 116 115 155 172 153 151 137 104 87 82 76 77 78 79 102 15 115 105 75 47 87 68 69 82 96 94 96 59 38
96 194 138 184 254 224 202 110 100 218 147 165 185 159 181 181 205 178 177 179 158 158 112 102 87 113 75 81 43 72 38 62 35 50 63 103 125 106 106 126 114 94 67
269 219 96 236 206 174 47 79 116 109 104 82 157 159 203 155 226 176 176 170 169 169 124 102 101 96 71 89 16 -6 42 50 52 74 79 99 88 77 73 67 76 86 83
437 262 130 185 242 192 126 126 146 41 117 140 46 132 26 121 177 288 198 175 218 112 128 99 123 93 122 25 10 45 68 73 87 82 90 89 77 75 80 90 85 86 73
558 210 316 221 175 163 217 131 116 117 105 120 146 117 124 40 92 247 159 150 78 165 126 153 121 117 79 79 93 117 109 107 111 104 111 113 118 103 97 91 97 110 107
459 408 369 276 195 165 131 45 -2 17 79 129 133 59 176 62 185 186 86 132 124 120 72 165 136 131 137 136 118 117 117 113 119 114 108 97 89 85 88 91 93 108 130
717 519 445 262 142 71 56 28 9 -8 25 34 -15 -54 -48 -69 -59 -55 -46 -4 69 106 184 163 130 152 149 128 121 122 111 98 93 86 97 97 97 100 98 96 97 106 117
555 391 321 282 158 117 102 87 47 38 36 58 58 17 35 46 59 52 69 117 142 170 183 166 158 157 154 138 118 113 98 96 97 96 91 89 90 93 96 104 98 104 116
420 452 347 269 219 122 114 115 106 73 52 55 91 109 112 118 139 163 169 183 179 192 182 169 184 177 155 142 121 114 115 110 115 117 119 124 107 104 101 103 96 107 126
130 417 439 304 206 122 64 71 107 102 97 90 105 111 114 134 161 178 192 195 194 209 199 183 182 169 160 150 146 136 136 139 148 146 143 140 119 107 106 102 104 96 111
65 72 155 187 96 81 99 69 89 112 112 124 136 148 147 162 174 176 184 205 215 205 197 184 181 182 180 180 173 162 153 145 135 135 127 122 122 112 116 114 111 110 114
94 102 96 109 120 125 108 102 110 120 130 134 160 178 185 173 168 170 181 183 193 200 196 195 199 212 220 203 180 148 147 138 118 118 111 108 88 84 111 131 145 128 91
96 110 116 109 111 94 100 105 115 124 150 167 170 166 158 163 159 154 157 170 189 202 211 212 205 196 176 161 165 171 150 128 122 102 90 94 106 107 120 120 121 118 108
59 74 89 88 81 80 96 108 106 121 136 145 161 159 157 160 169 178 189 198 202 198 204 210 195 177 157 137 147 129 108 99 96 90 91 99 105 111 115 115 116 114 108
62 62 57 48 51 63 68 77 93 105 115 134 141 139 141 145 156 171 180 189 201 208 201 181 168 151 138 106 83 71 76 70 56 57 76 90 88 95 86 95 101 110 117
65 98 83 71 54 50 50 66 83 92 98 105 122 136 148 152 159 173 186 204 191 192 186 176 150 125 96 64 55 43 45 16 15 34 58 57 64 88 81 84 95 110 127
76 65 86 110 102 76 58 64 67 74 81 88 97 104 111 119 124 134 136 133 143 144 141 124 112 98 93 79 46 17 7 4 34 56 54 47 59 76 77 78 97 104 128
82 87 84 103 131 124 89 83 102 93 82 78 91 89 98 111 111 114 124 114 110 113 123 129 134 126 112 85 64 28 -14 23 67 76 68 42 55 80 81 79 77 91 111
70 71 82 104 135 146 131 117 125 91 72 72 79 80 83 90 91 95 108 112 109 114 120 128 131 121 113 98 54 58 56 6 46 53 24 52 60 66 75 69 75 83 103
63 48 62 82 104 126 136 125 113 109 101 98 92 93 94 106 114 126 119 115 116 117 116 112 113 119 121 113 107 88 71 56 55 30 18 48 78 73 82 86 84 91 90
68 62 61 54 62 70 93 94 108 88 71 87 82 124 149 127 132 123 133 145 143 130 128 122 124 127 131 130 108 89 103 107 65 77 96 96 98 99 87 84 84 87 87
66 66 66 64 69 75 75 84 96 96 76 57 62 76 73 70 76 86 94 126 153 115 112 123 126 124 117 115 128 106 88 80 61 80 81 93 107 107 93 80 78 80 81

GFSMW_con_3kmhel_117.txt.gz
Helicity
28 71 -51 -139 4 -7 118 122 142 94 224 182 183 149 140 162 153 151 117 91 79 73 81 88 68 65 52 44 46 52 44 52 42 45 56 51 75 60 51 79 89 91 106
-9 20 -20 -73 25 6 41 225 193 68 213 191 164 141 147 144 160 159 127 107 88 90 108 83 80 75 73 65 52 60 66 59 59 79 99 102 71 79 85 98 83 88 103
9 51 54 -7 35 118 177 133 159 91 172 154 169 169 173 184 177 144 135 129 116 101 112 102 95 82 81 77 77 77 59 63 94 131 158 108 33 89 94 91 83 92 90
52 111 77 13 -5 7 142 -3 -9 59 173 157 161 157 206 192 179 191 172 160 131 130 144 130 113 120 136 105 80 63 56 61 111 105 118 83 70 79 86 63 86 81 61
76 105 115 51 58 90 78 41 67 34 230 165 171 166 158 167 169 164 145 155 160 144 161 160 142 133 124 99 77 104 81 12 84 36 99 37 53 46 71 79 79 87 69
98 84 115 90 83 46 155 144 73 20 154 142 118 127 146 150 169 146 152 175 211 211 182 172 163 160 138 119 107 98 97 23 25 37 27 28 50 64 89 88 67 72 88
75 59 76 156 139 54 51 -0 94 399 154 148 171 202 199 214 130 149 179 190 224 246 216 195 152 132 133 100 116 117 20 -42 -58 -43 36 50 73 101 97 86 80 91 86
208 164 120 222 139 110 56 79 61 172 385 168 210 247 200 187 223 243 176 198 197 210 208 176 142 143 104 113 45 67 25 -50 -27 40 77 94 125 131 111 103 115 76 58
310 279 239 256 138 135 49 63 19 27 62 97 149 22 124 74 150 165 245 268 297 236 174 151 156 74 24 37 88 49 -3 18 82 129 135 119 107 89 89 82 88 99 81
427 361 292 182 124 83 63 77 44 42 116 107 -102 72 -93 71 126 240 127 277 225 181 173 103 193 193 205 86 36 103 116 141 126 120 97 98 89 72 84 86 87 112 131
501 438 377 230 246 145 169 141 46 97 139 110 108 63 -1 -71 -82 95 132 253 339 300 162 106 145 131 197 131 165 149 144 139 141 123 103 88 82 86 89 102 101 102 116
490 395 333 235 257 223 214 205 63 55 62 87 73 -6 -11 -59 -4 -53 -20 30 -10 71 73 35 110 113 144 118 117 126 132 125 118 110 95 96 118 95 107 101 102 127 110
381 363 236 247 276 197 161 110 79 84 34 -1 -12 -15 -13 -5 -15 -21 -35 -11 45 1 48 148 167 165 142 127 129 124 133 135 135 133 125 130 114 116 124 99 95 105 112
333 370 330 186 135 140 71 80 101 95 43 54 51 49 41 55 53 55 72 86 126 196 200 187 153 160 167 173 178 183 185 182 170 169 157 132 118 126 120 112 109 135 101
126 230 398 291 170 96 70 74 95 90 48 21 46 61 72 103 134 163 195 206 197 181 219 230 200 203 212 209 212 213 199 181 169 162 147 145 159 144 146 124 123 96 96
43 52 105 135 165 142 124 78 75 85 74 96 101 112 117 127 149 189 193 203 214 244 234 224 221 239 247 235 229 218 206 182 151 144 147 127 112 105 120 136 150 167 136
68 78 79 69 57 46 31 46 72 89 110 122 134 146 144 154 167 161 175 187 183 195 217 211 209 207 209 206 217 208 188 189 187 168 138 123 119 105 105 106 113 111 128
52 67 71 58 66 69 66 74 94 110 118 123 134 134 128 130 134 145 151 181 189 205 223 240 235 237 225 208 198 199 198 180 155 126 113 104 97 113 121 119 143 113 109
45 41 34 37 46 68 73 79 89 92 104 111 126 135 141 156 147 158 156 165 192 205 202 206 206 208 206 182 176 178 162 137 100 82 71 72 77 117 105 110 125 114 123
48 59 66 72 73 72 65 68 92 104 112 111 117 126 134 136 150 160 170 179 180 198 208 212 205 197 183 162 143 144 155 124 94 67 53 34 44 84 86 100 106 120 146
41 40 65 87 108 101 84 90 99 104 95 98 113 122 132 144 155 177 180 200 213 223 213 200 179 163 158 142 117 101 132 103 67 40 41 62 50 44 51 77 104 116 135
43 43 43 69 107 134 104 119 135 100 85 88 91 93 113 139 138 140 147 156 161 162 157 159 160 147 130 135 100 98 78 120 95 69 79 81 61 56 60 90 99 103 112
47 40 37 55 88 103 104 108 114 114 87 80 81 82 81 82 83 98 116 129 128 133 144 157 151 146 142 138 114 92 75 58 85 97 92 79 59 50 55 63 81 88 109
68 57 59 66 57 53 71 85 104 107 103 103 98 109 92 90 93 98 96 100 117 124 131 147 146 151 168 160 159 136 122 93 107 114 125 97 52 52 78 94 82 97 98
38 59 75 78 79 80 84 81 76 62 56 96 69 78 97 103 136 145 138 147 175 174 159 146 144 167 170 144 134 152 160 171 151 180 188 132 97 95 99 95 89 99 111
27 66 71 81 85 86 92 93 100 108 101 82 66 58 63 66 87 85 77 82 90 108 113 119 137 149 175 176 146 151 182 165 154 212 174 117 86 88 102 103 103 110 95

GFSMW_con_3kmhel_120.txt.gz
Helicity
81 69 9 -4 40 -60 -138 -153 28 255 343 430 273 365 361 301 243 227 131 171 220 200 193 166 129 110 89 64 50 52 44 57 58 63 47 51 44 75 59 87 95 130 130
68 101 20 23 47 -68 -93 -103 47 138 156 376 358 352 329 289 243 240 195 258 236 196 178 158 135 112 81 63 63 68 61 51 52 64 79 86 93 96 102 92 84 79 99
85 68 32 45 52 -2 -45 19 83 99 250 236 313 296 242 235 237 216 207 218 186 182 176 158 133 101 102 100 75 83 78 70 116 108 96 100 72 55 62 86 65 72 80
42 27 1 44 56 73 6 35 45 58 236 211 229 200 222 213 199 209 197 199 193 170 175 152 140 138 144 115 122 112 95 109 107 114 104 121 76 38 48 73 45 74 76
30 40 35 61 115 117 27 1 107 136 330 224 165 177 224 198 196 220 196 203 204 158 193 193 202 205 200 166 151 173 169 144 100 81 53 85 81 63 77 57 51 62 61
42 53 87 74 77 105 78 31 158 65 45 55 149 197 212 234 292 260 301 277 268 260 254 252 232 207 201 190 167 141 107 109 107 56 48 43 37 54 76 63 -10 19 44
44 44 6 54 95 150 93 97 61 87 49 55 71 180 201 209 226 260 269 295 293 275 240 228 218 206 186 163 141 146 107 64 86 9 63 38 12 11 105 92 51 45 61
4 34 56 39 96 108 135 175 158 175 238 170 28 187 266 225 207 232 251 255 296 279 276 268 240 206 173 177 144 130 143 67 27 5 9 28 86 139 137 107 81 42 46
42 85 92 76 116 102 55 83 94 319 177 221 184 232 212 272 296 270 240 220 213 217 222 240 232 210 197 194 177 163 96 52 30 -2 58 131 146 132 110 116 93 70 42
169 172 119 75 106 62 47 34 105 91 58 144 79 183 82 57 139 179 287 248 239 209 229 245 254 255 236 189 132 81 112 2 73 126 130 125 123 120 106 97 92 105 109
336 302 128 127 109 100 87 -20 82 27 84 71 177 129 119 95 149 128 122 201 238 204 220 227 252 232 196 138 119 180 120 30 101 151 112 109 110 94 96 99 99 100 113
431 403 206 250 199 141 94 137 67 43 155 150 112 108 -4 -74 -12 118 120 143 169 192 289 291 232 225 194 233 232 243 188 153 136 116 121 119 127 125 119 118 127 127 138
532 585 509 407 345 270 228 143 95 87 44 119 42 50 79 5 -77 -105 -70 18 98 178 235 328 237 260 183 191 255 147 150 141 125 121 131 141 134 133 133 121 117 125 122
589 413 518 466 322 213 236 195 180 129 98 44 -12 -22 -46 -12 -5 35 46 51 28 23 7 21 198 152 76 70 138 182 163 187 205 204 187 187 169 166 145 125 118 133 127
404 425 321 286 213 208 162 133 117 87 72 61 44 23 37 60 47 37 36 85 99 78 84 92 120 153 183 214 209 193 206 225 223 208 198 197 185 186 171 147 154 125 103
198 268 301 258 296 196 93 67 88 97 35 29 39 36 52 66 79 80 99 115 124 142 163 186 202 218 187 176 200 229 222 196 190 189 195 184 163 137 126 131 148 134 123
117 111 91 75 30 43 77 76 49 61 61 52 45 50 66 87 96 123 139 150 171 194 197 177 181 196 196 189 193 213 233 231 212 199 187 169 144 120 103 95 106 117 135
65 92 67 71 86 56 9 -2 52 62 46 45 63 70 80 102 115 140 151 143 166 173 194 195 194 208 209 214 215 220 228 228 207 182 151 143 122 111 131 135 140 131 112
5 20 27 14 45 72 62 60 62 67 92 111 106 94 79 89 103 115 134 143 153 160 172 167 168 188 196 201 216 244 244 228 206 176 158 135 112 87 104 116 124 126 124
11 18 31 51 82 67 60 79 89 94 101 85 84 96 100 105 105 103 109 109 115 135 147 157 163 163 189 187 199 234 243 223 198 170 140 116 104 84 75 80 86 111 145
17 18 48 78 96 71 59 59 65 80 62 72 91 98 109 118 115 123 119 118 126 146 158 153 171 182 190 187 172 199 229 204 190 163 131 106 82 83 63 40 44 72 126
16 24 38 57 81 96 81 91 122 101 69 58 61 76 90 100 106 113 121 126 131 145 145 150 162 174 183 164 150 156 182 213 184 160 141 130 98 73 52 57 48 48 95
36 25 35 46 62 74 76 93 106 106 97 97 93 84 70 71 70 87 98 110 104 114 125 142 156 155 147 148 115 111 122 145 186 180 153 120 91 54 45 34 38 61 111
21 46 64 77 87 73 63 50 59 67 59 75 84 73 72 77 83 97 94 100 108 119 122 122 125 127 127 134 136 148 147 125 133 160 166 136 103 82 67 64 74 87 93
54 68 77 66 64 65 77 84 87 76 66 60 60 71 59 72 78 76 67 84 101 129 142 138 114 132 141 135 119 129 161 174 166 177 203 196 164 121 97 73 77 88 93
70 88 96 96 91 98 94 90 82 73 77 84 81 77 79 76 84 86 89 65 54 67 85 97 109 132 143 167 163 164 167 175 142 255 231 192 149 119 113 93 77 86 86

GFSMW_con_3kmhel_126.txt.gz
Helicity
82 99 153 152 155 182 194 242 255 174 132 231 170 153 175 155 162 265 286 284 274 243 217 214 212 165 126 67 70 121 98 100 82 107 89 80 74 65 73 69 74 74 60
79 96 110 141 179 198 229 218 202 155 120 168 185 194 115 180 173 281 170 224 265 239 220 200 201 173 147 119 126 145 146 119 77 105 120 87 84 82 93 86 81 80 64
90 100 91 120 179 182 195 227 199 188 133 84 184 137 216 137 209 235 334 233 217 253 223 207 209 191 154 146 136 146 144 150 101 97 114 120 78 118 102 92 84 74 73
58 59 75 118 144 176 192 210 197 201 164 141 163 113 180 124 167 261 201 395 280 294 263 236 226 222 191 186 150 152 147 171 143 159 130 124 105 123 117 82 86 88 61
65 89 83 88 138 149 219 190 155 164 143 159 127 145 163 176 171 317 425 338 304 254 298 271 255 237 234 186 181 154 135 160 168 182 191 167 159 156 131 120 82 86 56
-15 32 58 50 96 135 138 153 132 121 105 151 111 96 99 180 417 457 506 352 342 329 281 253 223 258 226 200 181 162 155 155 172 179 168 164 153 105 124 141 98 70 81
-67 -41 7 40 50 86 99 124 66 60 72 92 90 134 189 403 274 314 315 293 322 347 316 299 276 253 218 211 200 184 173 166 168 177 149 155 127 113 141 152 108 93 94
-38 -52 -49 -55 -52 9 62 88 52 15 62 112 96 115 83 391 448 364 344 344 318 331 339 323 270 238 230 223 217 227 213 202 193 184 178 161 119 114 116 105 102 100 92
-36 -43 -28 -53 -15 21 31 49 10 34 48 29 63 83 158 308 250 254 277 288 326 376 364 299 263 252 249 228 244 248 230 224 226 209 166 168 127 103 63 87 103 86 73
-61 -41 -28 -16 -42 -30 -13 24 61 -10 -15 -42 -32 105 55 180 215 253 276 285 323 322 294 286 268 263 259 256 262 261 255 242 231 221 213 154 164 136 117 143 129 121 78
-24 -36 -75 -104 -109 -78 -63 38 43 36 2 -4 -64 -22 71 20 86 174 177 252 284 255 270 281 261 259 276 272 272 254 264 246 244 250 205 185 158 177 144 153 124 136 112
-24 -0 -27 -56 -102 92 70 60 43 52 55 57 57 35 5 142 188 243 199 202 222 213 219 236 243 283 289 253 280 282 272 262 285 288 293 166 184 260 202 151 115 131 124
12 -70 -83 39 68 61 32 -4 -9 29 6 109 214 209 94 154 199 195 203 169 201 210 178 192 204 242 243 240 254 279 268 292 307 270 284 242 206 274 196 82 154 144 130
180 284 104 144 153 105 105 91 -25 3 39 72 130 128 52 16 137 168 216 152 189 201 136 136 161 204 259 273 318 300 269 286 272 276 220 186 172 243 292 224 134 145 139
407 419 423 297 251 213 158 177 269 82 93 98 78 65 99 86 123 87 46 37 93 162 192 227 202 235 254 276 261 261 320 398 369 254 256 212 235 324 324 173 159 161 160
471 485 481 406 287 244 189 204 151 181 139 93 71 28 59 69 52 49 61 80 108 109 95 98 100 116 213 130 153 219 308 367 389 303 197 347 285 209 188 176 151 146 141
491 572 398 383 269 279 155 96 69 84 83 97 78 40 52 61 35 59 49 69 -8 -10 61 42 37 33 126 -11 105 202 328 372 457 533 457 341 215 186 211 187 161 145 127
247 244 172 151 151 113 121 109 115 88 78 75 39 56 20 14 11 37 38 46 74 73 67 76 104 96 88 106 109 168 222 310 320 203 211 199 195 189 206 204 196 173 158
163 166 118 104 105 95 49 26 51 53 75 59 54 28 10 27 50 53 55 84 85 89 90 70 70 82 65 107 145 119 146 117 118 128 143 181 195 152 141 200 196 178 162
68 63 89 71 71 78 40 59 92 90 82 50 25 8 6 14 41 27 12 15 49 63 67 78 81 74 79 102 67 139 134 134 159 151 143 135 144 127 158 163 166 142 124
58 86 64 35 78 100 29 55 56 73 34 27 41 65 75 71 64 49 43 59 41 30 53 63 61 73 54 26 80 66 92 111 111 113 135 149 112 121 114 126 133 131 139
24 34 32 38 54 47 10 14 40 20 14 21 49 65 66 74 88 99 107 102 97 119 111 77 96 63 60 41 34 34 67 86 108 137 150 177 136 145 142 155 145 151 146
15 12 18 7 26 41 21 35 36 11 34 46 35 57 61 77 77 81 96 104 116 112 108 118 137 135 123 88 50 27 45 90 116 127 121 102 99 142 175 162 147 120 170
8 -4 -16 -15 -6 9 17 14 23 19 44 49 60 81 76 67 77 69 80 87 99 109 125 130 131 116 101 96 88 97 110 98 129 133 134 140 168 193 206 220 185 186 173
-4 -25 -53 -56 -52 -44 -35 -21 -7 -3 -9 9 35 69 86 103 107 107 113 112 107 106 106 109 116 128 135 113 88 71 87 100 120 156 206 237 264 267 256 253 238 233 209
12 31 28 31 20 13 -0 -2 -0 5 -10 -22 -37 -9 25 57 79 96 114 134 141 147 147 140 122 109 85 82 87 92 106 69 59 119 172 181 191 212 244 237 217 219 212

GFSMW_con_3kmhel_129.txt.gz
Helicity
72 77 104 126 162 185 167 141 212 265 247 282 220 201 77 86 183 187 267 260 215 216 237 272 210 216 229 177 145 163 139 126 121 152 125 102 84 72 71 72 68 72 70
86 65 69 89 154 175 191 200 186 229 280 247 245 260 192 140 118 139 199 255 242 205 239 294 240 236 236 223 190 193 203 158 129 155 168 101 89 92 97 99 87 92 88
38 52 88 89 116 192 169 174 191 195 256 236 241 240 204 250 219 246 218 248 277 213 256 257 264 231 203 236 202 176 181 203 151 142 141 120 85 126 111 108 98 85 93
47 56 65 78 81 161 169 147 152 164 193 235 216 161 170 203 184 213 237 296 264 233 279 250 264 262 204 220 205 180 176 231 173 185 154 126 100 122 124 126 103 90 89
86 106 95 88 94 74 148 157 124 87 117 198 226 187 167 193 195 190 214 263 354 352 376 356 243 265 221 211 200 204 208 198 214 210 200 161 151 144 142 123 112 110 100
54 85 55 51 91 127 121 148 147 97 112 174 182 199 164 181 206 205 239 316 296 294 334 247 241 181 166 239 218 199 204 219 209 222 201 203 192 158 149 146 141 145 145
36 34 24 46 77 127 152 141 143 135 165 162 163 165 172 197 208 206 272 334 368 371 329 313 258 180 195 254 216 212 218 210 199 171 177 188 171 155 164 145 144 159 164
37 -15 17 8 48 60 69 104 86 101 156 168 159 151 114 148 208 204 150 260 360 492 439 302 203 182 215 270 239 228 228 226 208 173 193 180 180 167 164 162 165 157 145
26 -52 -52 -65 -71 -42 -22 20 59 117 183 153 152 141 123 162 165 175 182 260 306 431 420 309 204 206 255 263 245 248 238 225 211 181 194 223 192 167 157 171 153 152 129
11 -49 -75 -80 -92 -82 -82 -67 -24 2 97 98 78 87 124 180 149 88 235 353 462 499 395 316 256 222 278 257 238 255 248 236 230 223 217 240 228 196 173 174 146 101 137
40 -40 -94 -79 -76 -70 -99 -116 -160 -159 -118 -53 17 78 63 90 81 46 410 444 327 306 216 226 230 255 290 270 256 259 252 227 244 256 238 218 249 220 225 268 178 161 138
-14 -19 -38 -65 -158 -250 -304 -169 -117 -75 -106 37 88 26 8 -12 76 47 185 345 251 228 183 204 249 281 253 246 247 266 260 260 259 262 269 248 284 281 293 214 202 212 218
-118 -133 -149 -146 -197 -174 -79 61 3 13 -34 -25 42 -2 -60 7 54 132 216 214 285 261 244 244 259 257 226 220 225 250 256 264 277 270 262 261 320 332 322 247 294 258 323
-17 -45 -115 83 77 147 84 89 72 139 193 226 230 128 30 65 69 129 211 242 253 347 188 158 173 194 193 172 196 248 247 253 285 258 190 277 268 275 264 263 232 353 324
229 261 321 320 218 207 162 149 206 171 115 146 198 206 124 316 300 290 272 305 143 159 157 187 173 199 174 177 186 189 216 241 285 304 224 245 291 332 309 302 321 358 346
375 329 382 253 261 301 216 273 187 154 119 101 120 170 137 138 195 241 182 240 259 166 273 153 150 106 138 121 79 137 177 226 241 338 311 344 376 395 351 361 282 268 373
505 400 386 271 322 249 230 238 175 85 100 82 70 70 42 88 70 93 98 95 149 106 142 228 224 181 139 171 187 212 228 253 307 297 378 423 430 316 357 503 282 256 355
290 235 192 212 176 136 146 134 147 152 102 62 52 15 -4 -11 2 9 53 36 32 52 70 96 110 148 120 126 65 86 142 201 184 294 405 455 422 462 562 689 490 318 194
143 105 102 89 83 106 99 72 128 158 173 155 128 91 76 86 97 98 68 62 58 56 59 80 83 72 98 104 104 81 105 134 169 173 197 183 255 275 173 198 226 177 179
114 118 99 95 131 148 75 51 86 85 102 75 60 66 71 63 63 69 94 97 110 123 113 112 107 119 105 89 82 78 66 101 102 141 179 126 125 123 126 230 225 178 162
68 89 55 57 84 79 52 26 43 54 43 15 -0 -0 25 38 38 52 60 63 79 89 84 78 104 108 120 157 162 138 67 31 41 70 75 69 57 78 103 129 196 161 174
71 51 27 42 54 51 -10 -12 8 27 -0 -4 -19 -9 -4 -15 -17 -1 14 54 76 100 126 122 110 99 82 69 59 54 114 159 147 113 69 64 83 120 167 169 125 133 170
34 26 15 12 62 55 33 -9 10 -8 -20 28 29 35 66 60 57 76 73 75 94 103 108 112 126 135 136 124 127 115 90 73 74 91 126 142 107 109 127 106 112 125 203
24 17 -2 -19 -10 5 -9 -18 -7 -4 9 10 10 18 38 60 73 89 96 88 110 120 121 124 123 120 113 128 144 141 135 138 108 109 115 107 107 113 171 217 224 272 269
24 18 -7 -11 -22 -57 -46 -32 -38 -48 -38 -24 -0 33 40 52 59 74 99 106 111 113 109 112 105 124 134 107 111 115 111 115 99 101 139 156 174 181 199 217 226 247 252
12 7 -0 -17 -43 -71 -71 -69 -51 -66 -62 -61 -58 -28 -24 -7 20 38 43 86 126 151 168 177 155 139 167 170 136 106 93 104 118 129 135 126 137 161 168 177 190 200 178

GFSMW_con_3kmhel_132.txt.gz
Helicity
182 149 163 175 207 221 242 241 208 177 231 265 270 276 273 254 246 235 201 260 287 316 259 211 206 215 216 220 206 241 200 176 154 180 142 106 88 72 62 61 66 72 65
76 45 68 89 140 166 199 216 260 207 214 282 298 331 290 258 212 233 210 340 262 249 265 263 192 227 206 246 233 270 260 203 161 177 202 131 111 93 81 85 94 97 89
-18 -10 11 44 105 145 167 155 196 242 205 244 321 358 305 331 264 231 208 189 219 250 222 246 204 230 214 232 241 232 243 238 188 160 175 156 99 130 115 100 106 102 91
68 28 20 49 87 136 150 152 164 196 208 187 253 276 331 341 321 241 226 180 169 173 242 266 256 244 272 248 224 231 235 265 208 208 204 159 103 121 110 125 117 113 96
79 82 70 67 102 147 142 116 138 169 184 194 193 247 286 309 276 231 205 172 184 145 182 236 312 290 269 279 250 215 231 232 226 247 254 224 173 148 128 109 136 130 111
38 97 92 88 102 138 143 133 93 120 147 167 148 189 212 255 294 287 230 199 239 215 220 270 329 404 380 362 305 237 201 217 210 209 241 237 245 182 155 143 144 141 141
30 58 91 74 62 71 110 153 135 93 126 129 122 142 176 219 180 195 225 189 201 236 210 316 376 412 404 330 235 209 192 194 198 204 209 235 219 180 175 162 170 171 156
38 31 39 46 52 44 34 89 130 116 130 145 114 121 142 221 214 204 213 221 218 207 172 267 341 404 369 381 325 285 169 168 171 180 213 217 218 212 203 192 201 204 175
49 92 25 23 49 43 44 66 93 122 138 127 129 139 144 177 189 204 218 216 227 204 178 224 264 343 398 365 323 281 152 122 193 195 213 203 212 214 202 199 204 219 189
78 0 -12 -13 -39 -47 -43 -37 -3 29 97 87 98 128 150 165 189 182 164 150 164 199 197 212 250 335 401 385 258 178 115 157 204 238 205 218 219 214 220 212 192 214 239
-31 -38 -59 -26 -22 -29 -29 -40 -55 -40 -56 -52 19 120 133 125 151 133 106 106 138 162 199 224 239 347 458 458 265 121 150 206 213 248 206 190 233 228 230 233 239 242 285
-6 -72 -89 -54 -89 -93 -70 -76 -94 -119 -134 -137 -117 -91 41 18 75 133 98 103 112 166 227 289 345 340 352 193 192 118 216 245 219 198 227 214 269 235 237 260 246 244 334
15 -25 -78 -117 -119 -134 -229 -278 -197 -256 -236 -204 -258 -170 -175 64 70 121 94 102 171 332 314 353 444 417 391 351 289 175 208 236 209 225 234 232 254 268 257 289 315 342 338
5 -92 -96 31 38 -81 -184 -269 -93 -116 -142 -211 -202 -195 -62 -47 34 11 36 67 148 335 241 162 117 146 195 206 174 190 177 179 187 193 184 265 312 268 196 264 283 311 307
283 255 135 99 148 134 100 102 255 250 285 397 253 128 -2 -17 -15 100 223 212 153 161 193 200 204 179 206 198 161 142 138 172 173 169 207 239 245 248 342 371 379 393 371
339 300 297 304 434 256 293 203 175 165 222 208 85 107 346 195 105 194 240 218 228 216 227 174 186 252 192 139 115 161 182 150 148 135 131 195 214 207 246 239 298 397 422
299 295 292 280 270 253 269 210 194 193 180 190 137 139 134 155 145 105 128 265 235 176 111 223 287 278 250 199 175 155 133 119 136 183 178 238 241 226 259 233 333 318 404
222 241 214 200 192 173 188 188 214 200 175 160 164 186 156 130 143 154 133 135 120 127 57 92 177 244 208 157 119 89 139 182 164 164 152 162 234 377 371 422 515 655 613
126 158 134 130 131 131 111 94 144 159 169 187 150 121 109 102 70 91 98 95 115 197 177 111 112 98 144 150 149 106 95 103 87 83 136 160 159 143 159 232 291 360 383
51 47 48 19 60 117 115 101 136 135 116 94 94 105 88 69 77 89 110 102 104 125 104 108 147 185 177 195 181 163 139 109 108 87 64 21 33 106 112 177 213 283 335
82 81 47 28 45 42 21 10 29 26 47 63 59 70 84 62 21 -6 -10 -26 2 47 81 104 117 136 164 163 180 204 174 146 140 134 131 141 67 91 54 57 88 97 158
69 50 29 13 43 35 11 8 14 29 19 17 5 12 24 27 35 37 41 52 43 56 70 80 90 105 111 136 152 161 165 156 158 161 157 142 115 120 118 141 131 118 230
31 31 0 -9 14 10 -9 -35 -8 -19 -20 -39 -5 -26 -11 4 29 41 39 49 75 82 93 103 113 123 125 123 152 155 156 135 135 137 139 144 144 136 103 74 72 103 261
26 10 -21 -21 -13 -17 -54 -54 -49 -30 -11 -18 -22 5 26 31 36 39 43 42 50 55 67 89 106 112 129 152 148 151 145 144 128 117 112 116 113 102 116 142 131 174 192
6 -5 -19 -37 -41 -51 -49 -30 -27 -50 -62 -60 -44 -32 -27 -17 -15 -9 4 18 47 68 51 65 76 78 92 141 152 137 115 114 117 121 115 123 119 121 119 133 133 164 165
8 -8 -20 -26 -27 -35 -41 -38 -41 -48 -42 -37 -43 -41 -36 -22 -14 1 6 36 60 86 108 121 103 94 143 168 182 188 171 150 96 102 103 118 123 127 118 114 126 154 150